GFSSE_850_temp_000.txt.gz
Temp
16 17 16 16 15 15 15 14 14 14 13 12 11 11 12 12 12 12 12 11 12 12 12 12 11 11 12 11 11 12 12 13 12 13 13 13 14 13 12 12 12 12 13
17 16 16 16 15 15 15 14 14 14 13 11 12 11 12 12 12 11 11 11 11 11 10 11 11 11 11 12 11 11 13 13 13 12 11 11 13 13 12 12 12 12 12
16 17 16 15 15 14 14 14 14 14 12 11 12 12 12 12 11 11 11 11 11 11 10 11 11 11 10 11 11 11 13 13 13 12 12 11 12 11 12 12 12 12 12
16 16 16 15 15 14 14 14 13 13 12 12 12 12 12 12 11 12 11 11 11 10 11 13 11 10 10 10 11 11 13 13 12 11 12 12 12 13 11 12 13 12 11
16 16 15 15 15 14 13 13 13 12 12 12 12 12 12 11 11 11 11 11 11 11 12 13 11 10 10 10 10 12 13 12 11 11 11 12 12 13 13 13 13 12 12
16 16 15 15 15 14 13 13 13 12 12 11 11 11 12 11 11 11 11 11 11 12 12 13 12 13 10 12 12 13 12 12 11 11 11 11 11 12 13 13 13 13 13
16 16 15 15 14 13 13 13 13 12 11 11 11 11 12 11 10 10 11 11 11 11 12 12 13 13 13 13 13 13 13 12 11 11 11 11 13 13 13 13 13 13 12
16 16 15 15 14 14 13 13 13 12 11 11 11 12 12 10 11 10 11 10 10 11 11 12 13 13 13 13 13 13 13 12 11 11 11 11 13 13 13 13 13 13 12
16 15 15 15 15 14 13 14 13 11 11 11 12 12 12 11 10 10 10 11 11 11 11 12 13 13 13 13 13 13 13 13 12 11 11 12 13 13 12 12 13 13 12
16 15 15 15 15 16 16 15 13 11 11 11 11 12 13 12 11 11 11 11 11 11 11 12 13 13 14 14 14 14 14 13 13 13 12 12 12 13 13 12 13 12 12
16 16 15 15 14 14 15 15 16 14 14 14 14 15 13 13 12 12 12 12 12 12 12 12 13 13 14 14 14 14 14 13 13 13 12 13 13 13 13 13 13 13 12
17 16 16 15 15 14 14 14 15 16 16 16 16 16 14 13 11 11 12 13 13 13 13 13 13 13 13 13 13 13 14 14 14 12 12 13 13 13 13 13 13 13 12
18 17 17 16 15 15 15 15 16 17 17 17 15 14 14 13 12 12 13 13 13 14 14 13 13 14 14 13 13 13 13 13 13 13 12 13 13 13 13 13 13 13 12
20 20 18 17 16 16 16 16 16 16 16 16 15 14 14 13 13 14 14 14 14 14 13 13 13 14 14 14 13 13 13 13 13 13 13 13 13 13 13 13 13 13 12
20 20 19 19 17 17 16 17 17 17 16 16 15 15 14 14 14 14 13 13 13 13 13 12 12 12 12 14 14 14 13 13 13 13 13 14 14 14 13 13 13 13 13
20 19 19 19 18 16 16 17 18 17 17 17 17 16 16 16 15 15 14 14 14 13 13 13 13 13 13 13 13 13 14 14 14 13 14 14 14 14 14 14 13 13 13
20 20 20 19 19 18 17 17 17 17 17 17 17 17 17 17 16 16 15 14 15 14 15 14 13 12 12 12 12 12 12 12 13 14 14 14 14 14 14 14 14 13 13
21 20 19 19 19 19 19 18 17 16 16 17 18 18 17 17 17 16 16 16 15 15 14 14 14 13 13 12 12 12 11 12 12 12 12 13 14 14 14 14 14 14 13
21 21 20 19 19 19 19 19 18 17 17 18 18 19 19 19 18 18 17 17 16 15 14 14 14 13 12 12 11 11 12 11 11 11 11 12 12 13 13 14 14 14 13
22 21 21 20 19 19 19 18 17 17 18 18 19 19 19 19 19 18 18 17 16 15 14 14 13 13 12 12 11 11 11 11 11 11 11 11 11 11 11 12 13 14 13
21 21 21 20 20 19 18 18 18 18 18 18 19 19 19 19 19 18 18 17 15 14 14 14 13 13 12 11 10 10 10 11 11 11 11 11 11 11 11 11 12 12 12
20 20 20 20 20 19 19 18 18 17 18 18 18 19 19 18 18 16 16 16 15 14 13 13 12 12 12 11 10 10 10 10 11 11 12 12 12 11 11 10 10 10 11
19 19 19 19 19 18 18 18 17 16 16 16 17 16 15 15 15 14 14 13 13 12 13 12 12 12 12 11 10 10 10 11 11 12 12 12 12 11 11 11 10 10 10
19 19 18 18 18 18 17 17 16 16 15 16 15 15 15 15 16 16 15 14 13 12 12 12 12 12 11 12 11 11 10 10 11 11 11 11 11 11 11 11 11 11 11
18 18 17 17 17 17 16 16 16 16 15 15 15 14 15 15 15 15 15 14 13 12 11 12 12 12 12 11 11 11 11 10 10 9 9 10 10 11 10 10 10 10 10
18 17 17 17 17 17 17 16 15 15 15 15 15 14 14 14 14 14 14 14 13 13 12 12 12 12 12 12 12 12 11 10 11 10 9 9 9 10 10 10 10 10 10

GFSSE_850_temp_003.txt.gz
Temp
17 17 17 16 15 15 14 14 15 14 14 13 11 11 11 11 12 11 11 11 11 11 11 11 11 12 12 11 12 12 13 13 13 12 12 13 13 12 11 12 12 12 12
17 17 17 16 15 14 15 15 14 14 14 12 11 12 12 12 12 11 11 11 11 11 10 10 11 11 11 12 11 12 13 13 12 12 12 11 12 11 12 12 12 11 12
18 17 17 16 15 15 15 14 14 14 13 11 11 12 12 12 11 11 11 11 11 11 11 12 11 11 11 11 12 11 13 13 12 11 11 11 12 13 13 13 13 12 12
18 17 17 16 15 15 14 14 14 14 13 12 12 12 12 12 11 11 11 11 11 11 12 13 11 10 10 10 11 11 13 13 12 11 11 11 12 13 13 14 13 13 12
17 16 16 16 15 14 14 14 14 13 12 12 12 12 12 12 11 11 11 12 12 12 13 13 12 10 10 10 10 12 13 13 13 11 11 11 12 13 13 13 13 13 13
16 16 16 15 15 15 14 14 13 13 12 11 11 12 12 11 11 11 12 12 12 13 14 13 13 14 12 11 11 13 13 13 12 11 11 12 13 14 13 13 13 13 13
16 16 15 15 15 14 14 13 13 13 12 12 11 11 11 11 11 10 11 12 12 13 14 14 14 13 14 13 13 13 13 13 12 11 11 12 13 13 13 13 13 13 13
17 16 16 15 15 14 13 13 13 13 11 11 11 12 12 12 12 11 12 12 12 12 13 13 13 13 13 13 13 13 13 12 12 11 11 12 13 13 13 13 13 12 12
17 16 16 16 15 15 14 13 13 13 11 11 11 13 13 13 13 14 12 12 11 11 12 12 13 13 14 14 14 13 13 12 12 11 11 12 13 13 13 13 13 12 12
17 17 17 17 16 15 15 15 15 14 13 13 14 15 14 14 15 14 13 11 11 11 11 12 12 13 14 14 14 14 14 13 13 12 12 12 12 13 13 13 13 12 12
18 18 18 17 17 16 16 16 16 16 16 16 15 15 15 15 15 14 13 13 12 12 12 12 12 13 13 14 14 14 14 14 13 13 13 13 13 13 13 13 13 12 12
20 19 18 17 17 16 17 16 16 16 16 16 16 16 16 16 15 14 14 14 14 14 13 12 13 13 14 14 14 14 14 14 14 14 14 13 13 13 13 13 13 13 12
22 21 19 18 17 16 16 17 17 17 17 17 16 16 16 15 15 16 15 15 14 13 14 14 14 14 14 14 14 14 14 14 14 14 14 14 13 13 13 13 13 13 13
22 21 20 18 17 16 16 17 17 17 17 17 17 17 17 16 16 16 16 15 15 14 15 15 15 14 15 14 14 14 14 14 14 14 14 14 14 14 14 13 13 13 13
21 20 21 20 19 17 17 17 18 18 18 18 17 17 17 16 16 16 16 15 16 17 16 16 16 15 15 15 14 14 14 14 14 14 14 14 14 14 14 14 14 13 13
21 21 20 20 19 18 17 18 18 17 18 17 17 17 17 17 17 16 16 16 16 17 16 16 16 16 15 14 15 13 13 14 14 14 14 14 14 14 14 14 14 14 14
22 21 20 20 19 18 18 18 18 17 17 18 18 17 18 17 17 17 17 17 17 16 16 15 15 15 14 13 14 14 14 13 13 13 13 13 14 14 14 14 14 14 14
22 21 20 20 20 19 19 19 18 17 17 18 19 19 19 18 18 17 17 18 17 16 15 15 15 15 14 14 14 14 13 13 13 13 13 13 13 13 14 14 14 14 14
21 21 21 20 20 20 20 19 18 18 18 18 18 19 19 19 19 18 18 18 17 15 15 15 15 14 14 13 13 13 13 13 13 12 13 13 13 13 13 13 13 13 13
21 21 20 20 20 19 19 19 18 17 18 18 18 19 19 19 18 17 16 16 15 13 14 13 13 13 13 13 12 12 13 13 13 12 12 12 12 12 12 12 12 12 13
21 20 20 20 19 19 19 18 18 18 18 18 18 18 17 16 16 15 15 15 15 14 14 14 13 13 13 12 11 11 11 12 12 12 12 12 12 12 11 11 11 11 11
20 20 20 19 19 19 18 19 18 18 18 17 17 16 16 15 15 15 15 15 15 14 13 13 13 13 12 11 11 10 10 11 12 13 13 13 12 12 12 12 11 11 11
20 20 20 19 19 18 18 18 17 17 17 17 17 16 15 15 14 14 14 14 13 13 13 12 12 12 11 11 11 10 10 11 12 13 13 13 12 12 13 12 12 12 11
18 18 18 18 18 18 18 17 16 16 15 15 15 15 14 14 14 14 14 14 14 13 13 12 12 11 11 11 11 11 11 11 11 11 12 12 11 11 12 12 12 11 11
17 17 17 17 18 18 17 17 16 16 15 15 14 14 14 13 13 13 13 14 14 13 13 13 12 12 11 11 11 11 11 11 11 10 10 11 10 11 11 11 11 11 11
16 16 16 16 16 16 15 15 15 15 14 14 14 14 13 13 13 13 13 13 13 13 13 13 13 12 12 11 12 11 11 11 11 10 10 10 10 10 10 10 10 11 11

GFSSE_850_temp_006.txt.gz
Temp
18 16 16 16 15 15 15 14 14 14 14 14 12 11 11 11 12 11 11 11 11 11 12 11 11 12 12 12 11 12 12 13 13 12 13 13 13 11 11 12 12 12 12
18 17 16 16 15 15 14 14 14 14 14 13 11 11 12 11 11 12 12 11 11 10 11 11 11 11 11 11 11 12 13 13 12 12 12 12 12 11 13 12 12 12 13
18 17 16 16 15 14 14 14 14 13 13 13 11 12 12 12 12 11 11 11 11 10 11 11 11 11 11 12 12 11 12 12 11 11 11 12 12 13 13 13 12 12 12
18 17 16 16 15 15 14 14 14 13 13 13 12 13 12 12 11 11 11 11 10 11 12 13 10 10 11 11 11 11 12 12 11 11 12 12 12 14 14 14 13 12 12
18 17 17 16 15 15 14 14 14 14 13 12 12 12 12 11 11 11 11 11 12 13 14 13 12 11 11 10 10 11 12 12 11 11 12 12 12 13 14 14 13 13 13
19 17 16 16 15 15 14 14 13 14 13 12 13 12 12 11 11 11 12 12 12 13 13 13 13 13 14 13 11 13 12 12 11 11 11 11 12 13 13 13 13 13 13
19 18 17 16 15 15 14 14 13 13 13 12 11 11 11 12 11 12 12 12 13 12 13 14 14 14 14 14 14 13 13 12 12 12 12 12 13 13 13 13 13 13 13
19 18 17 16 15 15 14 14 14 13 13 13 11 11 12 11 12 12 12 12 12 12 12 13 13 14 14 14 14 14 13 12 12 13 12 12 13 13 13 13 13 13 13
18 18 17 16 15 15 15 15 14 14 14 12 11 13 13 12 13 13 13 11 11 12 12 12 12 13 14 14 14 14 13 13 12 13 13 13 13 13 13 13 13 13 13
18 18 17 17 16 16 16 15 16 16 16 13 13 15 15 14 14 13 12 12 13 11 12 12 12 13 13 14 14 14 13 13 13 13 13 13 13 13 13 13 13 13 13
19 18 18 18 17 17 16 17 17 17 16 16 15 15 15 15 15 14 14 14 13 14 14 13 13 13 14 14 14 14 14 13 13 13 13 13 13 13 13 13 13 13 13
21 20 19 18 18 17 17 17 17 17 17 17 16 16 15 15 15 15 15 15 15 16 15 15 14 14 14 14 14 14 14 14 13 13 13 14 13 13 12 13 13 13 13
21 20 20 19 18 17 17 18 17 17 17 17 16 16 16 16 16 16 16 16 16 16 15 15 15 15 14 14 14 14 14 14 14 14 13 13 14 13 13 13 13 13 13
21 20 19 19 18 18 18 18 18 17 17 17 17 17 17 17 17 17 17 17 16 16 16 15 15 15 14 14 14 14 14 14 14 14 14 13 13 14 13 13 14 14 14
20 20 19 19 19 18 18 18 18 17 17 17 17 17 17 17 17 17 17 17 17 16 16 16 16 15 15 15 15 14 14 14 14 14 14 13 13 13 13 13 13 13 14
22 22 20 19 19 18 19 19 18 17 17 17 17 18 17 18 18 17 17 17 17 16 16 16 16 15 15 14 14 14 14 13 14 14 14 13 13 13 13 13 13 13 13
21 21 21 20 19 19 19 19 19 18 17 17 18 18 18 18 18 17 17 17 17 15 14 14 14 13 13 13 14 14 14 14 13 13 13 13 13 13 13 13 13 13 13
21 21 21 20 20 19 19 19 18 18 17 18 18 17 17 17 16 15 15 15 15 14 14 14 14 14 13 13 13 13 13 13 13 13 13 12 12 12 12 12 13 13 12
22 22 21 20 20 20 19 19 18 18 18 18 17 17 17 16 15 15 15 15 14 14 14 13 13 12 13 13 13 13 13 13 13 13 13 12 12 12 12 12 12 12 12
20 21 21 20 19 18 18 18 18 18 17 18 18 18 17 16 15 15 14 14 14 14 14 13 13 12 12 12 11 12 12 12 12 12 12 12 12 12 12 12 12 12 12
19 19 19 19 19 18 18 18 18 18 18 18 18 17 16 16 15 14 14 14 14 13 13 13 12 12 12 11 11 11 11 12 12 13 12 12 12 12 12 12 12 12 12
19 19 19 19 19 19 19 18 17 17 17 17 16 15 15 15 14 14 13 13 13 13 13 13 12 12 12 11 11 10 9 11 11 12 13 13 15 13 13 13 12 12 12
19 19 19 19 18 18 18 18 17 16 16 16 15 14 14 14 13 13 13 13 13 13 13 13 13 12 12 12 11 10 10 11 12 12 13 12 12 12 12 12 12 12 12
17 17 17 17 17 16 16 16 16 15 15 14 14 14 14 13 13 13 13 13 13 13 13 13 13 13 12 12 12 11 11 10 10 11 12 12 11 11 11 11 11 12 11
16 16 16 16 16 15 15 15 14 14 14 13 13 13 13 12 12 12 12 12 13 13 13 13 12 12 12 13 13 12 11 11 11 10 10 11 12 11 11 11 11 11 11
15 15 15 15 14 14 14 14 13 13 13 13 13 13 13 12 12 12 12 12 12 11 11 12 12 12 12 11 11 11 11 11 11 10 10 10 10 12 12 11 11 11 11

GFSSE_850_temp_009.txt.gz
Temp
19 17 16 16 15 15 15 14 14 14 14 13 12 11 11 11 12 11 11 11 11 11 12 13 13 13 13 12 12 11 12 12 13 13 13 13 12 11 11 12 12 12 12
20 18 16 16 15 15 15 14 14 14 13 13 12 11 11 11 11 12 11 11 11 10 11 11 11 12 11 11 11 11 12 12 12 12 12 12 11 11 12 12 12 12 12
20 18 17 16 15 15 14 14 14 13 13 13 11 11 12 12 11 11 11 11 11 11 10 11 11 11 11 12 12 11 12 12 12 12 11 12 11 11 12 12 12 12 12
19 18 17 16 15 14 14 14 14 13 13 12 12 12 13 12 11 11 11 11 11 11 10 11 10 11 10 11 11 11 12 12 12 12 12 12 12 11 13 13 13 12 12
20 18 17 16 15 15 14 14 14 13 14 13 12 13 13 12 11 11 11 11 11 11 12 12 11 11 11 11 11 10 12 12 12 12 12 12 12 12 14 14 14 13 13
19 18 17 16 15 14 14 14 14 14 13 13 12 12 13 12 11 11 11 11 12 12 13 13 12 13 13 12 12 10 12 12 11 12 12 12 12 13 14 14 14 14 13
19 18 17 16 15 15 14 14 14 14 14 13 12 12 12 12 11 10 12 11 12 12 12 13 14 13 13 14 14 14 12 12 12 12 12 13 13 13 14 14 14 13 13
19 18 17 16 15 15 14 14 14 14 14 13 12 11 11 11 11 11 11 11 11 12 12 13 13 13 13 14 14 14 13 12 12 12 12 12 13 13 13 14 14 13 13
19 18 18 17 16 15 14 14 14 14 14 14 13 12 12 11 11 12 12 12 12 13 14 14 14 13 13 14 14 14 13 13 12 12 12 12 12 12 13 13 13 13 13
19 19 18 17 16 16 16 15 15 15 15 15 13 15 15 13 12 13 14 14 14 15 14 13 13 13 13 13 13 14 13 13 13 12 12 12 12 13 12 13 13 13 13
20 20 19 18 17 16 16 16 15 16 16 16 16 16 16 15 15 15 15 15 15 15 14 13 13 13 13 13 13 13 13 13 13 13 12 13 13 13 13 12 13 13 13
21 21 19 19 18 17 17 17 17 17 17 17 16 16 16 15 15 15 16 15 15 15 15 15 14 13 13 13 13 14 14 13 13 13 13 13 13 13 13 12 13 13 13
21 21 20 19 18 17 17 17 17 17 17 17 17 17 16 16 16 16 16 16 16 16 15 15 14 14 14 14 14 14 14 13 13 13 14 13 13 13 13 12 11 13 13
21 21 20 19 19 18 17 17 17 17 17 17 17 17 16 17 16 17 17 17 16 15 15 14 14 13 13 13 14 14 14 14 14 14 14 13 13 13 13 13 10 10 12
21 20 20 19 19 19 18 17 17 17 17 17 17 17 17 17 16 16 16 15 15 15 14 14 14 14 13 13 14 14 14 14 14 14 14 13 13 13 12 12 10 10 10
20 20 19 19 19 19 18 18 17 17 17 17 17 17 17 16 16 16 15 15 15 14 14 14 13 13 13 13 13 13 13 13 13 13 13 13 13 13 12 12 12 10 10
21 21 20 20 19 19 18 18 18 18 17 18 18 17 17 17 16 16 16 16 15 15 14 14 14 13 13 13 13 13 13 13 13 13 13 13 13 13 12 12 12 12 11
21 21 21 20 19 19 19 18 18 18 17 17 17 17 17 16 16 16 16 16 15 14 14 14 14 13 13 13 13 13 13 12 13 12 12 12 12 12 13 12 12 12 12
21 21 21 21 20 19 18 18 18 18 17 17 17 17 17 16 15 15 15 14 14 14 13 13 13 13 12 12 12 12 12 12 12 12 12 12 12 12 12 12 12 12 11
19 19 20 20 20 19 18 18 18 17 17 17 17 17 16 15 15 14 14 14 13 13 13 13 12 12 12 12 11 12 11 12 12 12 12 12 12 12 12 13 12 12 12
19 19 19 19 19 19 18 18 18 18 17 17 16 16 16 15 14 14 13 13 13 13 12 12 12 12 12 12 11 11 11 12 12 12 12 12 13 13 13 13 13 12 12
18 18 18 18 18 18 18 18 16 16 16 15 15 15 14 14 13 13 13 12 12 12 12 12 12 12 12 12 12 10 10 11 12 12 12 12 12 13 13 13 13 12 13
17 17 17 17 17 17 17 16 16 15 14 14 14 14 14 13 13 12 12 12 12 12 12 12 12 12 12 13 13 11 10 11 11 12 13 13 13 13 12 13 13 13 12
15 15 16 16 16 15 15 15 14 14 14 13 13 13 12 12 12 11 11 11 11 12 12 12 12 11 11 11 11 11 11 11 10 11 11 12 12 12 12 13 13 13 13
15 15 14 15 15 14 14 14 14 13 13 12 12 12 12 12 11 11 11 11 11 11 10 10 11 11 10 10 10 11 10 11 10 10 10 10 10 10 11 11 11 12 12
14 14 14 14 14 13 13 13 13 13 12 12 12 12 12 11 11 11 11 11 11 11 11 10 10 10 10 9 9 9 9 9 9 9 10 10 10 10 11 10 11 10 11

GFSSE_850_temp_012.txt.gz
Temp
20 18 17 16 15 15 15 14 14 14 14 14 14 12 11 11 12 11 11 11 11 10 11 12 13 13 13 13 12 12 12 12 13 13 13 13 11 11 11 11 12 12 13
20 19 17 16 15 15 14 14 14 14 14 13 13 11 11 11 11 12 11 11 11 11 10 12 12 12 12 11 11 11 11 11 12 12 12 13 12 11 11 11 12 12 12
20 18 17 16 15 15 15 13 14 14 13 13 12 11 12 12 12 12 11 11 11 11 10 10 11 11 11 11 11 11 11 11 12 12 12 12 13 12 12 12 11 12 12
20 18 18 16 15 15 14 14 14 13 13 13 13 12 13 12 11 11 11 11 11 11 10 12 10 11 11 11 12 11 10 11 12 12 12 12 12 12 12 12 11 11 11
20 19 17 16 15 14 14 14 14 13 13 13 13 13 13 13 12 11 11 11 11 11 13 12 10 10 11 11 11 10 10 11 12 12 12 12 12 12 11 13 13 14 13
21 19 17 16 15 15 14 14 14 13 14 13 12 12 13 13 12 11 10 11 11 12 12 12 12 12 12 12 12 10 11 11 12 12 12 11 11 12 12 13 14 14 14
21 19 17 16 15 15 14 14 13 13 13 13 11 12 13 12 11 11 11 11 12 13 12 12 12 12 13 12 12 13 12 11 12 12 12 12 12 12 11 13 14 14 14
21 19 18 16 15 15 14 14 14 14 14 14 12 12 11 11 12 11 12 13 13 12 12 12 12 12 12 12 13 14 13 13 13 12 12 12 12 12 10 12 13 14 14
21 19 18 17 16 14 14 14 14 14 14 13 14 13 13 12 12 13 12 12 12 12 10 10 10 11 12 12 13 13 13 13 13 12 12 13 12 12 11 10 13 14 14
21 19 18 17 16 15 15 14 14 14 14 14 14 13 15 14 13 14 13 13 13 12 10 11 11 11 12 12 12 12 13 13 13 13 13 12 12 12 12 10 11 13 13
21 20 19 18 17 16 16 16 15 14 14 14 15 15 15 14 14 15 15 15 14 13 13 12 10 11 12 12 12 12 13 13 13 13 13 12 12 12 12 10 10 10 13
22 21 20 19 17 16 17 17 16 16 15 15 15 15 15 15 15 15 15 14 13 13 13 13 12 12 12 12 13 13 13 13 13 13 13 12 12 11 12 12 10 10 10
21 20 20 19 18 17 17 17 17 16 16 16 16 16 16 16 16 15 15 14 14 14 13 13 13 13 13 13 13 13 13 13 13 13 13 13 12 12 12 12 11 10 10
20 20 19 19 18 18 18 17 17 17 16 17 16 16 16 16 16 16 15 15 15 14 14 14 13 13 13 13 13 13 13 13 13 13 14 13 13 13 12 12 12 10 10
20 20 20 19 19 18 18 18 17 17 17 17 16 17 17 17 17 16 16 15 15 14 14 14 14 14 14 14 13 13 13 13 13 13 14 14 13 12 12 12 12 11 10
20 20 19 19 19 18 18 18 18 17 17 17 17 17 16 17 16 16 16 15 15 15 14 14 14 14 14 14 14 13 13 13 13 13 13 13 13 13 13 12 12 12 11
20 21 20 20 19 19 19 18 18 17 17 17 17 17 16 16 16 15 15 15 15 14 14 14 14 13 13 13 13 13 13 13 13 13 13 13 13 13 13 13 13 12 12
20 21 21 21 20 19 19 19 18 17 17 17 17 16 16 15 15 14 14 14 14 13 13 13 12 12 12 12 12 12 12 12 12 12 12 12 12 13 13 13 12 12 12
20 20 20 20 20 20 19 18 18 18 17 17 17 16 15 14 14 14 14 14 13 13 13 12 12 12 12 11 11 11 11 11 11 12 12 12 12 12 13 13 13 13 12
19 19 18 19 20 19 19 18 18 17 17 16 16 15 14 14 13 13 13 13 12 12 12 12 12 12 12 12 12 12 12 12 12 12 13 13 13 13 13 13 13 13 13
18 18 19 19 19 19 18 18 16 15 15 14 14 14 14 14 14 13 13 13 12 12 12 12 12 12 12 12 11 13 13 13 13 13 13 14 13 13 13 13 13 13 13
17 18 19 19 19 18 18 17 16 15 14 13 13 13 13 13 13 13 12 12 12 12 12 12 12 11 11 11 10 10 10 11 11 11 12 12 12 12 12 12 12 12 12
17 17 17 17 18 17 17 16 15 14 13 13 13 13 12 12 12 12 11 11 11 11 11 11 10 10 9 9 10 9 10 10 10 10 11 11 12 11 12 12 12 12 12
15 15 16 16 15 15 14 14 14 14 13 12 12 11 11 11 11 11 11 11 11 11 10 10 10 10 9 9 9 9 9 9 9 9 10 10 10 11 11 11 11 11 11
14 14 14 14 14 13 13 13 13 12 12 11 12 12 12 11 11 11 11 11 10 10 10 9 10 10 9 9 8 8 9 9 8 8 8 8 8 9 10 10 10 11 10
13 13 13 13 13 13 13 12 12 12 12 12 12 12 12 11 11 11 10 10 9 9 8 8 8 8 8 8 8 7 6 5 6 6 6 6 6 7 8 8 9 9 9

GFSSE_850_temp_015.txt.gz
Temp
20 19 17 16 16 15 15 15 14 14 14 14 14 14 14 13 13 12 11 11 11 11 12 13 13 14 13 13 13 12 12 12 12 13 14 13 14 12 11 12 12 12 13
20 19 17 16 16 15 15 14 14 14 14 13 13 11 12 11 12 12 11 12 11 11 12 12 13 13 12 12 11 11 11 12 12 13 13 13 13 11 11 11 12 12 12
21 19 18 16 15 15 15 14 14 14 13 13 13 11 11 11 12 12 12 11 11 10 10 12 12 11 11 11 12 12 11 11 12 12 12 13 12 12 12 11 12 12 12
21 20 18 16 16 15 15 14 13 13 13 13 13 11 12 12 12 11 11 11 11 10 11 14 12 11 11 10 12 12 11 10 11 12 12 12 12 12 11 11 11 11 12
21 20 18 16 16 15 14 14 14 13 13 13 13 12 13 12 12 12 11 13 12 12 12 12 12 10 10 11 11 11 10 10 11 12 12 12 12 12 11 12 12 11 12
21 20 18 17 15 15 15 14 14 13 13 14 13 12 13 13 12 12 13 13 12 12 12 12 12 12 12 11 11 10 10 10 10 11 12 12 12 12 12 10 11 12 13
21 20 18 17 15 15 15 14 14 13 13 13 12 12 13 13 12 12 13 12 12 12 12 12 12 12 12 11 11 11 10 9 10 11 12 12 12 12 11 10 12 13 13
21 20 18 17 15 15 15 14 14 13 13 13 13 12 12 13 12 12 12 12 12 12 11 11 11 11 11 12 11 9 10 10 10 12 12 12 12 12 12 10 10 12 13
20 20 19 18 16 15 14 14 14 13 13 13 13 12 12 12 13 12 12 12 11 11 10 11 10 10 10 10 11 11 12 12 11 12 12 12 12 12 11 11 10 10 10
20 20 19 18 17 16 15 14 14 14 13 13 13 13 13 13 13 12 12 11 11 12 11 10 10 10 10 10 10 11 11 11 12 12 12 13 12 12 11 11 10 10 10
20 20 20 19 18 17 16 15 15 14 14 14 14 13 13 14 13 13 13 13 12 12 12 12 10 10 10 10 11 11 11 12 12 12 13 13 12 12 12 12 10 10 10
19 19 19 19 19 18 17 17 16 16 15 15 15 14 14 14 14 14 14 14 14 13 13 13 13 13 12 12 13 13 13 13 13 13 13 13 13 13 13 12 12 10 10
20 19 19 19 18 18 18 17 17 16 16 16 16 15 15 15 15 15 15 15 14 14 14 14 13 13 13 13 13 13 13 13 14 14 14 14 13 13 13 13 12 12 10
20 19 19 19 19 18 18 18 17 17 16 16 16 16 16 16 16 15 15 14 14 14 14 14 14 14 14 14 14 14 13 13 14 14 14 14 14 14 14 13 13 13 12
20 19 19 19 19 18 18 18 18 17 17 16 16 16 16 15 15 15 15 15 15 14 14 14 14 13 13 13 13 13 13 13 13 13 13 14 13 13 13 13 13 13 13
20 20 20 20 19 18 18 18 17 17 17 16 16 15 15 15 15 15 15 15 14 14 13 13 13 13 12 12 12 12 12 12 12 12 13 13 13 13 13 12 12 13 13
20 20 20 20 20 20 19 18 18 17 17 16 16 15 14 14 14 14 14 14 13 13 13 12 12 12 12 12 12 12 12 12 12 12 12 13 13 13 13 12 12 12 12
20 20 20 21 21 20 19 18 18 17 16 16 15 14 14 14 13 13 13 13 13 13 13 13 12 12 12 12 12 12 11 11 12 12 12 13 13 13 14 14 13 13 12
19 19 19 20 20 20 18 18 17 17 17 16 15 14 14 13 13 14 14 14 13 13 13 13 12 12 12 12 12 12 12 12 12 12 13 13 13 14 14 14 14 13 13
18 19 19 19 19 18 18 17 17 16 16 15 15 14 14 14 14 14 13 13 13 13 12 12 12 12 12 12 11 11 12 12 12 13 13 13 13 13 13 13 13 13 13
18 18 18 19 19 18 18 17 16 15 15 14 14 14 13 13 13 13 12 12 12 12 11 11 11 11 11 11 9 9 9 9 10 11 11 11 12 12 12 12 12 12 12
17 18 18 18 18 18 17 16 15 14 13 13 12 12 12 12 12 12 12 11 11 11 11 11 10 10 10 10 8 8 9 9 10 10 10 10 10 11 10 11 11 11 11
16 17 17 17 17 16 15 15 14 13 12 12 12 12 12 11 11 11 11 11 10 10 10 10 9 9 8 9 9 7 8 9 7 9 9 9 10 10 10 10 10 10 10
15 15 15 15 15 14 14 14 14 13 13 11 11 11 11 11 11 11 11 10 10 10 10 9 9 9 8 8 8 8 8 7 6 7 8 8 8 8 8 9 9 9 9
13 14 14 14 14 13 13 13 12 12 11 11 11 11 11 11 10 10 10 10 9 9 8 8 8 8 7 6 6 5 5 6 5 5 5 6 5 6 6 7 8 8 8
13 13 13 13 13 12 12 12 12 12 11 11 11 11 11 10 10 10 10 9 9 8 8 7 7 7 6 6 5 5 3 2 3 3 3 3 4 4 5 6 6 7 7

GFSSE_850_temp_018.txt.gz
Temp
21 20 18 16 16 16 15 15 15 14 14 14 14 14 14 13 13 12 12 12 11 11 12 13 13 13 13 13 13 13 11 12 12 12 13 13 13 12 12 12 13 12 14
21 20 18 16 16 16 15 15 15 14 14 13 13 13 11 12 13 12 13 12 11 11 12 12 13 13 13 13 12 11 11 11 12 12 13 13 13 12 12 12 13 12 13
21 19 18 17 16 15 15 15 14 14 13 13 13 12 11 12 12 12 11 12 11 11 12 13 13 12 12 12 12 12 11 11 11 12 13 12 11 12 12 12 12 13 13
21 20 17 17 16 16 15 15 14 13 13 13 13 12 12 12 12 12 12 12 12 12 13 13 13 12 11 11 12 12 12 10 11 11 11 12 12 12 13 12 12 12 12
21 20 18 17 16 16 15 15 14 14 13 13 13 13 12 13 12 12 11 12 12 12 12 13 12 12 11 10 11 11 11 10 10 11 10 11 11 11 13 11 12 11 12
20 19 19 17 16 15 15 14 14 14 13 13 13 13 13 13 13 12 12 12 12 12 12 12 13 12 10 11 11 10 10 10 10 10 10 10 12 11 12 12 10 11 11
20 19 18 17 16 16 15 15 14 14 14 14 13 12 13 13 13 12 12 12 12 12 12 12 12 12 12 12 12 11 10 10 10 10 10 10 10 11 12 11 10 11 12
19 19 17 17 16 15 15 15 14 14 14 13 13 11 12 13 13 12 12 12 11 11 11 10 10 10 10 11 11 11 9 10 10 9 10 10 11 12 12 10 10 10 11
19 19 18 16 16 15 15 13 14 14 14 13 13 12 11 12 12 12 12 12 11 10 10 10 11 11 11 10 10 10 10 11 10 10 10 10 10 12 12 11 11 11 11
20 19 17 16 14 14 14 14 13 14 14 13 13 13 13 13 12 13 13 12 12 12 13 13 12 11 11 11 11 10 12 12 12 10 10 10 13 13 12 12 12 11 11
20 20 19 17 15 14 14 14 14 14 14 14 14 14 14 12 12 13 13 13 13 14 14 14 13 13 13 12 13 13 13 12 11 11 11 12 14 13 13 13 13 11 10
20 20 19 19 18 15 14 14 13 13 13 13 12 12 12 12 12 14 14 14 14 14 14 14 14 14 13 12 11 12 12 11 11 11 12 14 14 14 14 14 13 13 12
19 20 20 19 18 17 15 14 14 13 13 13 14 13 13 14 13 13 14 14 14 14 14 14 14 13 12 12 11 11 11 11 11 11 12 14 13 14 14 14 14 14 13
20 19 19 19 19 18 16 16 14 15 15 15 15 15 15 14 14 14 14 14 14 14 13 13 12 12 12 11 11 11 11 11 11 11 12 14 14 13 13 13 13 14 13
20 19 19 19 19 18 17 16 16 15 16 15 15 15 15 15 14 14 13 13 13 12 12 12 12 11 11 11 11 11 12 12 12 12 12 13 14 14 13 13 13 13 13
20 20 20 20 19 19 18 17 16 16 15 15 15 15 14 14 14 13 13 13 13 13 13 13 13 13 13 12 12 12 12 11 11 11 11 12 13 14 14 14 13 13 13
20 20 20 20 20 19 18 17 16 16 16 15 15 14 14 14 14 13 14 14 13 12 13 13 13 12 11 11 11 11 11 11 11 11 11 11 11 12 14 14 13 13 13
20 20 20 20 20 19 17 17 16 16 15 15 15 14 14 14 14 14 14 13 13 13 13 12 11 11 11 11 11 11 10 10 10 11 11 11 11 11 12 13 13 13 13
18 19 19 19 19 18 17 17 16 16 15 14 14 14 14 14 14 14 13 13 13 12 11 11 11 10 11 10 10 10 10 10 10 11 11 10 10 11 12 12 12 13 13
17 18 18 18 18 17 16 16 16 15 14 14 14 14 13 13 13 13 12 12 12 12 11 11 10 10 9 10 9 9 9 10 10 10 11 11 11 10 10 10 10 11 12
17 17 18 17 17 16 15 14 14 13 13 13 13 12 12 12 12 12 12 12 12 11 11 11 9 9 9 9 9 10 9 10 11 11 11 11 11 11 11 11 11 10 10
17 17 17 17 17 16 16 15 14 13 13 12 12 12 12 12 12 12 12 12 11 11 11 10 10 9 8 8 8 8 10 10 11 10 10 10 10 11 11 11 11 10 10
16 16 16 16 16 15 14 14 13 13 12 12 12 12 12 11 11 11 11 11 10 10 10 9 8 7 6 6 7 7 8 9 7 8 8 9 10 9 9 9 9 10 10
14 15 15 15 14 14 13 13 13 13 12 11 11 11 10 11 11 11 10 10 9 9 8 8 7 7 5 5 5 6 5 5 5 6 7 7 7 7 7 7 8 8 8
14 14 14 14 14 13 13 13 13 12 11 11 11 10 10 10 10 10 9 9 8 8 8 7 7 6 4 4 4 4 4 4 5 5 4 6 5 6 6 6 6 7 8
13 13 13 13 13 12 12 12 12 11 11 10 10 10 10 9 9 9 8 8 7 7 7 6 6 6 5 5 4 3 3 3 3 3 3 3 4 4 5 5 5 6 6

GFSSE_850_temp_021.txt.gz
Temp
19 19 19 17 16 16 16 15 15 15 14 14 14 14 14 13 13 13 12 12 12 11 12 13 13 14 13 13 13 13 12 12 12 12 13 14 14 13 12 13 13 13 13
20 18 19 17 16 16 15 15 15 14 14 14 14 13 12 12 12 12 12 12 11 11 12 13 13 13 13 13 13 11 11 11 11 12 13 13 13 13 12 13 13 12 13
18 17 19 17 16 16 16 15 15 14 14 13 13 12 12 12 12 12 12 11 11 11 12 12 13 13 12 12 11 12 12 11 11 12 13 13 12 12 12 12 13 13 13
18 17 16 17 16 16 15 15 15 14 14 13 13 13 12 12 13 12 12 12 11 11 12 12 12 12 12 12 12 12 12 11 11 12 12 12 13 13 12 13 13 13 13
18 17 16 17 16 16 15 15 14 14 14 13 13 13 13 13 13 12 12 12 12 11 12 12 13 12 13 12 12 11 11 10 10 12 11 11 11 12 12 12 12 12 12
18 18 19 18 16 16 15 15 14 14 14 14 14 13 13 13 13 12 12 12 12 12 12 12 13 13 13 13 12 12 11 10 10 10 11 11 11 12 11 12 12 11 11
19 18 19 18 16 16 15 15 14 14 14 14 14 12 13 13 13 13 12 12 12 12 12 12 13 12 12 12 12 12 12 11 11 11 11 11 11 11 10 12 11 11 11
18 17 17 18 17 16 15 15 14 14 14 14 14 12 12 13 13 13 12 12 12 12 12 12 10 11 11 11 11 12 12 12 13 11 11 11 11 12 13 13 11 11 11
18 17 16 18 17 16 15 14 14 14 14 14 14 13 12 12 13 13 13 13 13 13 12 13 13 12 12 12 12 13 13 13 13 13 12 11 11 12 14 13 13 11 11
17 17 17 16 16 15 15 15 13 13 14 14 14 14 14 14 14 13 13 14 14 14 14 14 14 13 13 13 13 13 13 13 14 12 11 12 12 13 14 14 14 13 11
18 17 17 17 16 16 16 15 15 14 14 14 15 14 15 15 12 12 12 14 14 14 14 14 14 14 14 14 14 13 13 13 12 11 12 12 12 13 14 14 14 14 13
19 18 17 17 17 16 16 15 14 14 14 14 13 13 13 13 13 13 14 15 15 15 15 14 14 14 14 14 12 12 12 12 12 12 12 12 14 14 14 14 14 14 14
20 19 18 17 17 17 16 15 16 15 15 14 14 14 14 13 13 13 13 13 14 14 14 13 13 13 12 12 12 12 12 13 12 12 12 12 14 15 14 14 14 14 14
20 19 18 17 17 17 16 15 16 15 15 15 14 14 14 13 13 13 13 13 12 12 12 12 12 12 12 12 12 12 12 12 12 12 12 12 12 13 14 14 14 14 14
20 19 18 18 17 17 16 16 16 16 15 15 14 14 13 13 13 13 13 13 13 12 12 12 12 12 12 13 13 13 13 12 12 12 12 12 12 12 12 12 13 13 13
19 18 18 17 17 17 17 16 16 15 15 14 14 13 13 13 13 12 12 12 12 12 12 12 12 12 12 12 12 12 13 13 13 13 12 12 12 12 12 12 13 13 13
17 17 18 18 17 16 17 16 16 15 14 14 14 13 12 12 12 12 12 12 12 12 12 12 12 12 11 11 11 11 12 12 12 12 12 12 12 12 12 11 11 12 12
18 17 18 19 19 17 16 16 15 15 14 14 13 13 12 12 12 12 12 12 12 11 11 11 11 11 11 11 11 11 11 11 11 11 11 12 12 11 11 11 11 11 11
16 16 18 18 17 15 14 14 14 13 13 12 12 12 12 11 12 11 12 11 11 11 11 11 11 10 11 11 11 11 11 11 11 11 11 11 12 12 11 11 11 11 11
15 15 16 16 15 14 13 13 13 12 12 11 11 11 11 12 12 11 11 12 12 11 10 11 10 10 10 10 10 10 10 10 11 11 11 12 12 12 12 11 11 11 11
14 14 14 14 14 14 14 13 12 11 11 12 12 12 12 12 12 12 12 11 11 11 10 10 10 9 9 9 8 8 9 10 11 11 11 11 11 11 10 11 11 11 11
14 14 14 14 13 13 13 12 12 11 11 12 12 12 12 12 12 11 11 11 11 11 10 10 8 8 7 7 7 7 8 8 10 10 10 9 9 9 9 10 10 10 10
14 15 15 15 15 15 14 14 13 12 11 10 11 11 11 11 11 11 11 11 10 9 9 8 7 7 6 6 6 6 7 7 6 6 7 8 8 8 8 8 8 9 8
14 14 15 15 14 13 12 12 11 11 12 12 11 11 11 11 11 10 10 10 9 8 8 7 6 6 5 5 5 5 5 5 5 5 6 6 6 7 6 6 6 6 6
13 13 14 14 13 13 13 13 13 12 12 11 10 10 10 10 10 10 9 8 8 7 7 7 6 6 5 4 4 3 3 4 4 4 4 4 4 4 4 4 5 5 5
12 13 13 13 13 13 13 12 12 11 11 10 10 10 9 9 9 9 8 7 6 6 6 6 6 5 5 4 3 3 2 3 2 2 2 2 2 3 3 3 3 4 4

GFSSE_850_temp_024.txt.gz
Temp
20 20 19 17 16 16 15 15 15 15 14 14 14 14 14 14 13 13 13 12 12 11 11 12 12 13 13 13 14 13 12 11 12 12 13 14 14 13 12 12 13 12 12
21 20 19 16 16 16 15 15 14 14 14 13 13 13 13 12 12 12 12 12 11 11 11 11 12 13 12 12 13 12 11 11 11 12 13 14 14 12 13 13 13 12 12
19 20 19 17 16 16 15 15 14 14 14 13 13 13 11 12 12 12 12 11 11 11 11 12 12 12 12 12 12 12 12 11 10 12 13 13 12 13 13 13 13 12 13
19 19 19 17 16 16 15 15 14 14 14 13 13 13 11 12 12 12 12 12 12 12 12 12 12 12 12 12 12 12 11 11 10 12 13 13 12 12 12 12 13 13 13
19 18 18 17 16 16 16 15 14 14 14 13 14 13 12 13 13 11 12 12 12 12 13 13 13 13 12 12 12 12 11 11 10 13 12 11 12 12 11 12 12 13 12
18 18 18 18 16 16 15 15 15 14 14 14 14 13 13 13 13 12 12 12 12 12 13 13 14 14 13 13 13 13 12 12 13 14 13 11 11 12 11 11 12 13 13
18 18 19 19 17 16 16 15 15 14 14 14 14 12 12 13 13 13 12 12 12 12 13 14 15 14 14 14 14 14 14 14 15 15 15 13 12 11 12 11 13 13 12
18 19 20 19 18 16 16 16 15 14 15 14 14 13 12 12 13 13 13 13 13 14 15 15 15 14 14 14 14 14 14 14 14 14 15 14 13 12 13 14 14 14 12
18 18 20 19 18 17 16 16 15 15 15 15 15 14 13 12 13 13 13 14 14 15 15 15 15 14 14 14 13 14 14 14 14 15 15 14 14 12 12 14 14 14 14
18 18 18 19 18 18 17 17 17 17 15 15 15 15 14 14 14 14 14 15 15 15 15 15 15 15 14 15 15 14 13 14 14 15 15 15 14 14 14 15 15 15 14
18 18 17 17 17 17 17 16 16 16 17 17 16 16 15 15 14 13 13 15 15 15 15 15 15 15 15 15 14 13 13 14 14 14 14 13 13 13 13 14 14 15 15
19 18 17 17 17 16 16 16 16 16 15 16 15 15 14 14 13 13 13 14 15 15 15 15 15 14 14 14 14 13 13 13 13 13 13 13 13 13 13 14 14 14 14
21 19 18 17 17 17 16 16 15 15 15 15 14 14 14 14 14 13 13 14 14 14 15 15 15 14 14 13 13 13 12 12 12 12 12 12 12 12 12 12 12 12 13
21 20 19 18 17 17 16 16 16 16 15 15 14 14 14 13 13 13 13 13 13 13 13 13 12 12 12 12 12 12 12 12 12 12 12 12 12 12 12 12 11 11 12
21 20 19 18 18 17 17 16 16 16 15 15 14 14 13 13 13 13 13 13 13 12 12 12 12 12 12 12 12 12 12 12 12 12 12 12 12 12 12 12 12 12 11
20 20 19 18 18 17 17 16 16 16 15 15 14 14 13 13 13 13 13 12 12 12 12 12 12 12 12 12 12 12 12 13 13 12 12 12 12 12 12 12 12 12 11
19 19 18 18 17 17 17 17 16 15 15 14 14 13 13 13 12 12 12 12 12 12 12 12 12 12 12 11 11 11 11 11 12 12 12 12 12 11 11 11 12 11 11
18 18 18 19 18 17 16 16 16 15 14 14 13 13 12 12 12 12 12 12 11 12 12 11 11 11 11 11 11 11 11 11 11 11 11 11 11 11 11 11 11 11 11
16 16 18 18 18 17 16 15 15 14 13 13 13 12 12 11 11 11 11 12 11 11 11 11 12 11 11 11 11 10 11 11 11 11 10 10 10 11 11 11 11 11 11
15 16 17 17 16 15 15 14 14 13 12 12 12 11 12 12 12 12 12 12 12 11 11 11 11 11 10 10 10 10 10 11 10 10 10 10 10 11 11 11 11 11 10
14 14 15 15 15 14 13 13 13 12 12 12 12 12 12 12 12 12 12 12 11 11 10 10 10 10 10 9 8 8 9 9 9 9 10 10 11 11 11 10 9 9 10
14 14 14 14 14 14 13 13 13 12 12 12 12 12 12 12 12 12 11 11 11 11 10 10 9 8 8 8 6 6 6 7 8 8 8 8 8 8 8 8 9 9 9
13 14 14 14 14 14 13 13 12 12 11 12 12 12 12 11 11 11 11 11 10 10 9 8 8 7 7 7 6 5 4 5 4 6 5 6 7 7 6 6 6 6 6
13 13 13 13 13 12 12 12 12 12 12 11 11 11 11 11 11 10 10 10 9 8 8 7 7 7 6 6 6 6 5 4 3 3 4 4 4 4 4 3 3 4 4
12 12 12 13 12 12 12 12 12 12 11 11 11 10 10 10 10 9 9 9 8 7 7 6 6 6 5 5 4 4 4 4 3 2 1 2 1 1 2 2 2 3 2
12 12 12 13 13 13 13 12 12 11 11 10 10 9 9 9 9 9 8 8 7 6 6 6 5 5 5 4 4 3 2 1 1 1 1 1 0 0 0 1 1 1 1

GFSSE_850_temp_027.txt.gz
Temp
19 19 19 17 16 15 15 15 14 14 14 14 14 14 14 13 13 12 12 12 12 11 11 11 13 13 13 13 14 13 12 11 12 13 14 13 14 14 13 14 13 13 11
20 19 19 16 16 16 15 15 14 14 14 13 13 13 13 12 12 12 12 12 11 11 12 12 12 13 13 13 13 12 12 11 10 12 13 13 13 13 12 13 13 13 12
20 20 19 16 16 16 15 15 14 14 14 13 13 13 11 11 12 12 12 12 11 11 12 12 12 13 12 12 12 13 12 11 10 12 13 13 12 13 12 12 13 13 13
20 20 19 17 16 16 15 15 14 14 14 13 13 13 11 12 12 12 12 12 13 13 13 14 13 13 13 12 13 13 12 12 12 14 14 13 13 13 12 12 12 13 13
20 19 19 17 16 16 15 15 14 14 14 14 14 13 12 13 12 11 12 12 13 13 14 14 14 14 14 14 13 13 14 13 14 14 14 14 13 12 12 11 12 12 13
20 20 19 18 17 16 15 15 14 15 14 15 15 13 12 13 13 12 12 13 13 14 15 15 15 15 15 14 14 14 14 14 14 14 14 13 13 13 12 12 13 13 13
19 19 19 19 17 16 16 15 15 15 15 15 15 14 13 13 13 13 12 13 13 14 15 15 15 15 15 14 15 15 14 14 14 14 14 14 13 12 11 11 11 12 13
19 19 19 20 18 17 16 15 15 15 15 15 15 14 14 13 13 13 13 13 14 14 14 14 15 15 15 15 15 15 15 14 15 15 15 14 14 14 12 11 11 13 13
19 19 19 19 19 17 16 16 16 15 15 15 15 15 15 14 14 13 13 14 14 14 14 14 14 14 14 14 14 14 14 14 14 14 15 15 14 14 13 11 12 14 14
19 19 19 19 19 18 17 17 17 16 16 16 16 16 15 15 15 14 14 14 14 14 14 14 14 14 14 14 14 14 14 14 14 14 14 14 14 13 13 11 12 13 14
19 19 18 18 18 18 18 17 16 16 16 16 16 15 15 15 14 14 14 14 14 14 15 14 14 14 14 14 14 14 13 13 13 13 13 13 13 13 13 12 12 12 12
20 19 19 18 18 18 17 16 16 16 16 16 15 15 14 14 14 13 13 14 14 14 14 14 14 14 14 14 13 13 13 13 13 13 12 12 12 12 12 12 12 12 12
22 20 19 18 17 17 17 16 16 16 16 15 15 14 14 13 13 13 13 13 13 13 14 14 14 13 13 13 12 12 12 12 12 12 12 12 12 12 12 12 12 12 12
21 21 20 19 17 17 16 16 16 15 15 15 14 14 14 13 13 13 13 13 13 13 13 12 12 12 12 12 12 12 13 13 13 12 13 13 12 12 12 12 12 12 12
21 21 20 19 18 17 16 16 16 15 15 15 14 14 14 13 13 13 13 13 13 12 12 12 12 12 12 12 12 12 12 12 12 13 12 12 12 12 12 12 11 12 12
21 20 19 19 18 17 17 16 16 16 15 15 14 14 13 13 13 13 13 13 12 12 12 12 12 12 12 12 12 12 12 12 12 12 12 12 12 12 11 11 11 11 11
20 19 19 18 18 17 17 16 16 16 15 14 14 13 13 13 12 12 12 12 12 12 12 12 12 12 12 12 12 12 12 12 12 12 11 11 11 10 10 11 11 11 10
19 18 18 18 18 17 17 16 16 15 15 14 13 13 13 12 12 11 11 11 12 12 12 12 12 12 12 12 12 12 11 11 11 11 11 10 10 10 10 10 11 11 10
18 18 18 18 17 17 16 16 16 15 15 14 13 12 12 11 11 11 11 11 11 12 12 12 12 11 11 11 11 11 11 11 11 10 10 10 10 10 10 10 10 11 10
16 16 17 17 17 16 16 15 15 14 14 12 12 12 11 11 11 11 12 12 12 12 12 11 11 11 10 9 10 10 10 10 10 10 9 9 10 10 10 10 10 10 10
15 15 15 15 15 15 15 15 15 14 13 12 12 12 12 12 12 12 12 12 11 11 11 10 10 10 9 9 9 9 9 9 9 9 9 9 9 9 9 9 8 8 8
14 14 14 14 14 14 14 14 14 13 12 12 12 12 12 12 12 11 11 11 11 10 10 9 8 8 8 7 6 6 5 7 8 7 7 7 7 7 7 7 6 6 6
13 13 13 13 13 14 14 13 13 12 12 12 12 12 11 11 11 11 10 10 10 9 9 8 7 7 6 6 6 4 3 3 3 5 5 5 5 5 4 4 5 4 3
13 13 13 13 13 13 13 13 13 13 12 11 11 11 11 11 10 10 10 9 9 8 7 6 6 6 5 5 6 4 3 2 1 1 2 3 2 2 3 2 2 2 1
13 13 13 13 13 13 13 13 13 12 12 11 11 11 11 10 10 9 9 8 7 7 6 6 5 5 5 4 4 4 4 3 2 -0 -1 -0 0 1 1 0 0 -0 -0
12 12 12 13 12 12 12 11 12 12 11 11 10 10 9 9 9 8 8 7 6 6 5 5 5 4 4 4 3 2 1 0 -0 -0 -1 -1 -1 -1 -1 -2 -2 -2 -2

GFSSE_850_temp_030.txt.gz
Temp
18 18 17 16 15 15 15 15 15 15 14 14 14 14 14 14 13 12 12 12 11 11 11 12 14 14 14 14 14 13 12 12 13 13 13 14 14 14 14 13 13 13 12
19 19 18 17 16 15 15 15 14 14 14 14 14 14 13 13 12 12 12 11 11 12 13 12 13 13 13 13 13 13 12 12 13 13 13 13 13 13 13 13 13 13 12
20 19 18 17 16 15 15 15 14 14 14 14 14 13 12 12 12 11 11 12 11 13 13 13 13 13 13 12 12 13 13 13 14 14 13 13 13 13 13 12 13 13 13
20 20 18 16 16 15 15 15 14 14 14 14 13 13 11 11 11 12 12 13 13 13 14 14 13 13 13 13 13 13 13 13 13 14 13 13 13 13 12 12 12 12 13
20 20 19 17 16 15 15 15 15 14 15 14 14 13 12 12 12 12 12 13 13 14 14 14 14 14 13 13 13 13 13 13 13 13 13 13 13 12 11 11 11 11 12
20 20 19 17 16 16 15 15 15 14 15 15 14 13 12 12 13 12 12 13 13 13 14 14 14 14 14 13 14 14 14 14 13 14 14 13 13 13 12 11 11 11 12
20 19 18 17 16 16 15 15 15 14 15 15 15 13 13 13 13 12 12 13 13 14 14 14 14 14 14 13 13 13 14 14 14 14 14 13 13 13 12 11 11 11 11
20 19 18 18 17 16 16 16 15 15 15 15 14 14 13 13 13 13 13 13 14 14 14 15 15 14 14 14 14 14 14 13 13 13 13 14 13 13 13 11 11 10 11
19 19 18 18 17 16 16 16 15 16 15 15 15 15 14 14 13 13 13 14 14 14 14 14 14 14 14 14 14 14 14 13 13 13 13 13 13 13 13 13 11 11 11
19 19 18 19 18 18 17 16 16 16 15 15 15 15 15 14 14 14 14 14 14 14 14 14 14 14 14 14 14 14 13 13 13 13 13 13 13 13 13 13 12 11 12
19 19 19 19 19 18 17 17 16 16 15 16 16 15 15 15 14 14 14 14 14 14 14 14 14 14 14 13 13 13 13 13 12 13 13 13 12 12 12 12 12 12 12
20 20 20 19 18 18 17 17 16 16 15 16 15 14 14 14 14 14 14 14 14 13 14 14 13 13 13 13 13 12 12 12 12 13 13 13 13 13 12 12 12 12 12
21 20 20 19 18 18 17 17 16 16 15 15 14 14 14 14 13 13 14 13 13 13 13 13 13 12 12 12 12 12 12 12 13 13 13 13 13 13 12 12 12 12 12
22 21 20 19 18 18 17 16 16 15 15 15 14 14 14 13 13 13 13 13 12 12 12 12 12 12 12 12 12 12 12 12 12 12 12 12 12 12 12 12 12 12 12
21 21 20 19 19 18 17 16 16 15 15 15 14 14 13 13 13 13 13 12 12 12 12 12 12 12 12 12 12 12 12 12 12 12 12 12 12 12 11 11 11 11 11
22 21 20 19 18 18 17 16 16 15 15 15 14 14 13 13 13 12 12 12 12 12 12 12 12 12 12 12 12 12 12 13 12 12 12 12 12 12 11 11 11 11 11
21 21 20 19 18 17 17 16 16 16 15 14 14 13 13 13 12 12 12 11 12 11 12 12 12 12 12 12 12 12 12 12 12 11 11 11 11 10 10 10 10 10 10
20 20 20 18 17 17 17 16 15 16 15 15 14 14 13 13 11 11 11 11 11 11 11 11 12 12 12 12 12 12 12 11 11 11 10 10 9 9 9 10 10 10 10
19 19 18 18 17 17 17 16 15 16 15 15 14 13 13 12 11 11 10 11 11 12 12 12 12 11 11 11 11 11 10 10 10 10 9 9 9 9 9 10 9 9 9
18 18 18 17 17 17 16 16 15 15 15 14 13 13 12 11 11 11 11 12 12 11 11 11 11 10 9 9 9 9 10 9 9 9 8 9 9 9 9 9 8 8 8
17 16 16 17 17 17 16 16 15 15 14 14 13 12 12 11 12 12 12 11 11 11 10 10 9 9 8 8 8 9 9 8 9 8 9 8 8 8 8 7 7 7 7
16 16 16 16 16 15 15 15 15 14 13 13 12 12 12 11 11 11 11 11 10 10 9 8 8 7 7 6 5 6 5 7 7 7 6 6 6 5 5 6 6 6 6
15 15 14 14 14 14 14 14 14 13 13 12 12 12 11 11 11 11 10 10 9 8 8 7 6 6 6 5 4 4 3 2 2 4 5 4 4 5 5 5 5 5 4
14 14 14 13 13 13 14 14 14 13 13 12 12 11 11 11 10 10 10 9 8 7 6 6 5 5 5 4 4 3 2 1 0 0 2 3 2 2 2 2 2 2 1
14 14 13 13 13 13 13 13 13 13 12 12 11 11 10 10 10 9 9 8 7 6 6 5 5 4 4 3 3 3 2 2 1 -1 -2 -1 2 2 2 1 1 0 -0
12 13 13 12 12 12 12 13 13 13 12 12 11 10 10 9 9 9 8 7 6 5 5 4 4 3 3 3 2 2 1 0 -1 -2 -2 -3 -3 -2 -2 -1 -0 -1 -2

GFSSE_850_temp_033.txt.gz
Temp
19 17 16 16 15 15 15 15 15 14 14 14 15 15 15 14 13 12 13 13 14 15 12 13 14 14 14 14 14 14 13 13 13 12 13 13 14 13 14 14 13 12 13
20 18 17 16 15 15 15 15 15 14 14 14 14 14 14 14 13 12 13 13 13 13 12 12 13 13 13 14 14 13 12 13 13 12 12 13 13 13 13 13 13 12 12
20 19 18 16 16 15 15 14 15 14 14 14 14 14 13 13 13 13 11 12 12 13 13 12 12 12 13 13 13 13 12 12 12 12 13 13 13 13 12 12 12 12 12
20 20 19 17 16 15 15 14 14 14 14 14 13 12 11 11 11 12 13 13 13 13 13 13 13 13 13 12 12 12 12 12 12 13 12 13 13 12 13 12 12 12 12
20 20 19 17 16 15 15 14 14 14 14 14 14 12 11 11 12 12 12 12 12 13 14 14 14 13 13 13 12 12 13 13 13 13 13 13 13 12 12 11 11 11 11
20 20 19 17 16 15 15 15 15 14 14 14 14 12 12 12 12 12 12 13 13 13 14 15 15 14 14 14 14 14 13 13 13 13 13 13 13 13 12 11 10 11 11
20 20 19 17 16 16 15 15 15 14 14 15 14 13 12 12 12 12 12 12 13 14 14 14 15 14 14 14 14 14 13 13 13 13 13 13 13 13 13 12 10 11 11
19 19 18 17 16 15 15 15 15 15 14 15 15 13 13 13 13 12 12 12 13 14 14 14 14 14 14 14 14 14 14 13 13 13 13 13 13 13 13 13 12 11 11
19 18 18 18 16 15 16 16 15 15 15 15 15 14 14 13 13 13 13 13 14 14 14 14 14 14 14 14 14 13 13 13 13 13 13 13 12 12 12 12 12 12 11
19 18 18 18 18 17 16 16 15 15 15 15 15 15 14 14 14 13 14 14 14 14 14 14 14 14 14 13 13 13 13 12 12 12 12 12 12 12 12 12 12 12 11
18 18 18 18 19 18 17 16 16 15 15 15 15 15 14 14 14 13 13 13 13 13 13 13 13 13 13 13 12 12 12 12 12 12 12 12 12 12 12 12 12 12 12
20 19 19 19 19 18 17 16 16 15 14 15 15 14 14 14 14 13 13 13 13 13 13 13 12 12 12 12 12 12 12 12 12 12 12 12 12 12 12 12 12 12 12
21 20 20 19 18 18 17 16 16 15 15 14 14 14 14 14 13 13 13 13 13 12 12 12 12 12 12 11 12 12 12 12 12 12 12 12 12 12 12 12 12 12 12
20 20 20 19 18 18 17 16 16 15 15 14 14 13 13 13 13 13 13 13 12 12 12 12 12 11 11 12 12 12 12 12 11 11 11 11 11 11 11 11 12 12 12
20 21 20 19 19 18 17 16 16 15 15 14 14 13 13 13 13 12 12 12 12 12 12 12 12 12 12 12 12 12 12 11 12 12 12 11 11 11 11 11 11 11 11
21 21 21 20 19 18 17 17 16 15 15 14 14 13 13 12 12 12 12 12 12 12 11 11 12 12 12 12 12 12 12 12 12 12 12 11 11 11 10 10 10 10 10
21 21 21 21 19 18 17 17 16 15 15 15 14 14 13 13 13 12 11 11 11 11 11 11 11 11 11 12 12 12 12 12 12 11 11 11 10 10 9 9 9 9 9
20 20 21 21 19 18 17 16 15 16 15 15 14 14 13 13 13 12 12 11 11 11 11 11 12 12 12 12 12 12 11 11 11 10 10 9 9 8 9 9 9 9 9
19 20 20 20 18 17 16 16 15 16 15 14 13 13 13 13 12 11 11 11 11 12 12 11 11 11 11 11 10 10 10 10 10 9 9 8 8 8 9 8 8 8 8
18 18 18 19 18 17 16 16 15 15 14 13 13 13 13 13 12 11 11 11 11 11 11 11 10 10 9 9 9 9 9 10 9 8 8 8 8 8 8 8 7 7 7
18 17 17 17 17 17 16 16 15 15 14 13 13 13 12 12 11 11 11 11 11 11 10 10 9 8 8 8 8 9 9 9 8 8 7 8 8 8 7 7 7 7 7
17 17 16 16 16 16 16 16 15 15 14 14 14 13 12 12 11 11 11 11 10 10 9 9 8 7 6 6 6 6 5 7 8 8 7 7 6 6 6 6 6 6 6
17 16 16 16 16 16 15 15 14 14 14 13 13 12 12 11 11 11 11 10 10 9 8 7 7 6 6 5 4 3 3 3 3 5 4 5 4 4 4 4 5 5 4
16 16 15 15 15 14 14 14 15 15 15 13 12 12 12 11 11 10 10 9 9 8 7 6 6 5 5 4 4 3 2 1 0 0 2 3 3 3 3 3 3 3 2
15 15 14 13 13 13 14 14 14 14 13 12 12 12 11 10 10 10 9 9 8 7 6 5 5 4 4 3 2 2 1 1 -0 -2 -2 -1 2 2 2 2 1 1 1
14 14 13 13 13 13 13 13 13 13 12 12 12 11 10 10 9 9 8 8 7 6 5 5 4 3 3 2 2 1 0 -1 -2 -3 -3 -3 -4 -2 -1 1 1 0 -0

GFSSE_850_temp_036.txt.gz
Temp
20 18 16 16 15 15 15 15 15 15 15 15 15 15 15 15 14 14 14 14 15 16 13 13 14 14 14 14 14 13 13 13 13 12 12 13 13 13 13 13 13 13 13
20 19 17 16 15 15 15 15 15 15 15 15 14 14 14 13 13 13 13 13 15 14 12 12 13 14 14 14 13 13 12 13 13 12 13 13 13 13 13 13 13 13 12
20 19 17 16 15 15 15 15 15 15 15 14 14 14 13 13 12 13 12 11 12 13 13 11 13 13 13 12 13 13 13 13 13 13 12 13 12 12 12 12 12 12 12
20 20 18 16 16 15 15 15 15 14 14 14 13 13 11 11 12 12 12 12 12 13 13 13 12 13 13 12 13 13 13 13 13 13 12 13 13 12 12 12 12 12 12
20 20 19 17 16 15 14 15 14 14 14 14 13 11 11 11 11 12 12 13 13 13 14 14 13 13 13 13 13 13 13 13 14 13 13 13 13 13 12 12 11 12 11
20 20 19 18 16 16 14 15 15 14 14 14 14 12 11 12 12 12 12 12 13 14 14 14 14 14 14 14 14 14 14 14 14 13 13 13 13 13 13 13 12 11 11
20 19 19 18 16 15 15 15 15 15 14 14 14 13 12 12 13 12 12 12 13 14 14 14 14 14 14 14 14 14 13 13 13 13 13 13 13 13 13 13 13 11 11
19 19 18 18 17 16 15 15 15 15 15 15 15 13 12 12 13 12 12 12 13 13 13 13 14 13 13 13 13 13 13 13 12 12 12 12 12 12 12 12 12 12 11
18 18 18 18 17 16 15 15 15 15 15 15 15 14 13 13 13 13 12 13 13 13 13 13 13 13 13 13 13 12 12 12 12 12 12 12 12 12 12 12 12 12 12
18 18 18 18 18 17 16 15 15 15 15 15 15 14 13 13 13 13 13 13 13 13 13 13 13 13 12 12 12 12 12 12 12 12 12 12 12 12 12 12 13 13 13
18 18 18 18 18 17 17 16 15 15 14 14 14 14 14 14 14 13 13 12 12 12 12 12 12 12 12 12 12 12 12 12 12 12 12 12 12 12 12 12 12 12 12
20 19 18 18 18 17 17 16 15 15 14 14 14 14 14 14 13 13 13 13 13 12 12 12 12 12 12 12 12 12 12 12 12 12 12 12 12 12 12 12 12 12 11
20 19 19 19 18 17 17 17 16 15 14 14 14 14 13 13 13 13 13 12 12 12 12 12 12 11 11 11 11 11 11 12 12 11 11 11 11 12 12 12 12 12 12
20 19 19 19 18 18 17 17 16 15 15 14 14 13 13 13 13 12 12 12 12 12 12 12 11 11 11 11 11 12 12 12 11 11 11 11 12 12 11 11 11 11 11
20 20 20 19 19 18 17 16 16 15 15 14 14 13 13 13 12 12 12 12 12 12 11 11 11 11 11 12 12 11 11 11 11 12 11 11 11 11 11 11 11 10 10
20 20 20 20 19 18 17 17 16 15 15 14 14 13 13 12 12 12 12 12 11 11 11 11 11 12 11 11 11 11 12 12 12 11 11 11 11 10 10 10 10 10 10
20 20 20 21 20 18 18 17 16 15 15 14 14 13 13 13 13 12 12 11 11 11 11 11 11 11 11 11 11 11 11 11 11 11 11 10 10 9 9 9 9 9 9
20 20 20 21 20 19 17 17 16 15 15 14 14 14 14 13 13 12 12 11 11 11 11 11 11 12 12 12 11 11 11 11 10 10 10 9 8 8 8 8 9 9 9
20 20 21 20 20 19 17 16 15 15 15 14 14 14 13 13 12 12 12 11 11 11 11 11 11 11 11 11 11 11 10 10 10 9 8 8 8 8 8 8 8 8 8
19 20 20 19 19 18 17 16 15 15 15 14 14 13 13 12 12 12 12 11 11 11 11 11 11 10 10 9 9 9 10 10 9 8 8 8 7 8 8 7 7 7 7
18 19 19 19 18 18 16 16 15 15 13 14 13 12 12 12 12 11 12 11 11 11 11 11 10 9 9 8 9 9 9 9 8 7 8 7 8 8 7 6 7 6 6
17 18 18 18 17 17 16 16 15 14 13 13 13 12 12 12 11 12 11 11 11 10 10 10 9 8 7 7 6 6 6 7 7 7 7 7 6 6 6 5 5 5 5
17 18 18 17 16 16 15 15 14 13 13 12 12 12 12 11 12 11 11 11 10 10 9 9 7 7 6 5 5 4 4 3 2 4 5 5 5 4 4 4 4 4 4
17 17 16 16 15 15 15 15 15 15 14 13 12 12 12 11 11 11 10 10 10 9 8 7 6 6 5 5 4 3 2 1 0 0 2 3 3 2 3 3 3 3 3
16 16 16 15 14 14 14 14 14 14 13 14 13 12 11 11 10 10 10 9 9 8 7 6 5 5 4 4 3 2 2 1 0 -2 -2 1 2 2 2 2 1 1 1
15 15 15 15 14 13 13 13 14 13 13 13 11 11 11 10 10 9 9 8 8 7 6 5 5 4 4 3 2 1 0 -1 -1 -3 -3 -3 -3 -2 -1 0 1 1 0

GFSSE_850_temp_039.txt.gz
Temp
20 19 17 15 15 15 14 14 14 15 15 14 14 14 14 13 14 14 14 14 14 14 13 14 15 15 14 14 13 12 13 13 13 13 13 13 13 13 13 13 14 13 13
21 19 17 15 15 15 15 15 15 15 14 14 14 13 13 13 12 12 12 13 13 12 12 13 14 14 14 14 14 12 12 13 13 13 13 14 14 13 13 13 13 13 12
21 19 17 16 15 15 15 15 15 15 15 15 14 14 14 13 12 13 12 11 12 13 11 12 13 13 14 13 13 12 12 12 13 13 13 13 14 13 13 13 13 13 13
20 20 18 16 16 16 15 15 15 15 15 15 15 14 13 13 13 13 13 13 13 13 13 13 13 12 12 12 12 13 13 13 13 14 13 14 14 14 14 13 13 12 12
20 19 18 16 16 16 16 16 15 15 15 15 14 11 11 12 13 13 13 13 13 14 14 13 13 12 13 12 12 13 13 13 14 14 13 13 14 14 14 13 13 12 12
21 19 18 16 16 16 15 15 15 15 15 15 14 12 12 12 12 12 13 13 13 13 14 13 13 13 13 13 13 13 13 13 13 13 13 13 13 13 13 13 13 12 12
20 19 17 16 16 16 15 15 15 15 15 15 14 13 11 12 13 12 12 13 13 13 13 13 13 13 13 13 13 12 13 13 13 12 12 12 13 13 13 13 13 12 11
20 19 18 16 16 16 15 15 15 15 15 15 15 13 12 12 13 12 12 12 13 13 13 13 13 13 13 13 13 13 13 13 12 12 12 12 12 12 12 12 13 13 13
19 19 18 17 16 15 15 15 15 15 15 15 15 14 13 12 13 13 12 12 13 13 13 13 13 13 13 13 12 12 12 12 12 12 12 12 12 12 13 13 13 13 13
18 18 18 17 17 16 15 15 15 15 15 15 15 14 14 13 13 12 12 13 13 13 13 13 13 12 12 12 12 12 12 12 12 12 12 12 12 12 12 12 12 13 12
18 18 17 17 17 16 16 15 15 15 14 14 14 14 14 13 13 13 13 13 13 13 12 12 12 12 12 12 12 12 12 12 12 12 12 12 12 12 12 12 12 12 12
19 18 18 17 17 16 16 15 15 15 14 14 15 14 14 14 13 13 13 12 13 12 12 12 12 12 12 11 11 11 11 11 11 11 11 11 12 12 12 12 12 12 12
20 19 18 18 17 17 17 16 15 15 15 14 14 14 14 13 13 13 13 13 12 12 12 12 11 11 11 11 11 11 11 11 11 11 11 11 11 12 11 11 11 12 11
19 19 19 18 18 17 17 17 16 15 15 14 14 14 13 13 13 13 13 12 12 12 12 11 11 11 11 11 11 11 11 11 11 11 11 12 12 11 11 11 11 11 11
20 19 19 19 18 18 17 17 16 15 15 14 14 13 13 13 12 12 12 12 12 12 11 11 11 11 12 12 12 11 11 11 12 12 11 11 11 11 10 10 10 10 10
20 20 19 20 19 18 18 17 16 15 14 14 14 13 13 13 13 13 13 12 12 12 11 11 11 11 11 11 11 11 11 11 11 11 11 11 10 10 9 9 9 9 9
20 20 20 20 20 20 18 17 16 15 14 14 14 14 14 13 13 13 13 12 11 11 11 11 11 11 11 11 11 11 11 11 11 10 10 10 9 8 8 8 8 8 8
19 19 20 20 20 20 19 17 16 15 14 14 14 14 14 13 13 12 13 12 11 10 11 11 11 11 11 11 11 11 10 10 10 9 9 8 8 7 7 8 8 8 8
19 19 19 20 20 20 20 17 16 15 15 14 14 14 14 13 12 12 12 12 11 11 12 12 11 11 11 11 11 10 10 10 10 9 8 7 7 7 7 7 7 7 7
18 19 19 19 20 19 19 17 15 15 15 14 14 14 13 13 12 12 12 11 11 12 11 11 11 11 11 10 10 10 10 10 9 8 7 7 7 7 7 7 7 7 7
18 19 19 19 19 19 19 17 15 15 15 14 14 13 12 12 12 12 11 12 12 11 11 11 10 10 9 9 9 10 9 9 8 7 7 7 7 7 7 6 6 6 6
18 18 18 18 18 18 18 17 15 15 15 14 13 12 11 11 12 11 11 12 11 11 10 10 10 9 9 8 8 7 7 7 7 8 8 7 6 6 6 5 5 5 5
17 18 18 17 17 17 17 16 14 14 13 12 12 11 11 11 12 11 11 11 11 10 10 9 9 8 7 7 6 6 5 4 4 6 6 6 5 5 5 5 5 4 4
17 17 17 17 16 16 16 15 15 15 13 12 12 11 11 11 11 11 11 11 10 10 9 9 8 7 6 6 5 5 4 3 1 1 3 3 3 3 4 4 4 3 3
17 17 17 16 15 15 15 14 14 14 13 12 11 11 11 11 10 10 10 10 10 9 8 8 7 6 5 5 4 4 3 2 1 -1 -1 1 2 2 2 2 2 2 1
16 16 16 16 15 14 14 13 13 13 12 11 11 11 11 10 10 10 10 9 9 8 7 7 6 5 5 4 3 3 2 1 -0 -2 -4 -3 -3 -2 -0 0 1 1 1

GFSSE_850_temp_042.txt.gz
Temp
20 16 17 16 15 15 15 15 15 15 15 15 15 15 15 15 14 14 14 14 14 14 13 14 15 15 14 14 13 13 13 13 14 14 14 14 14 14 14 14 14 12 14
20 17 17 16 15 15 15 15 15 15 14 14 14 14 14 13 14 12 13 13 14 13 12 13 14 15 13 13 13 13 12 13 13 13 14 14 14 14 14 14 14 12 13
20 17 16 16 15 15 15 15 15 15 15 15 14 13 14 13 13 12 12 12 13 13 12 13 14 14 14 13 14 12 12 13 13 13 13 12 12 13 13 13 13 13 13
18 16 16 16 15 15 15 16 16 15 15 15 14 13 13 13 13 13 12 12 13 13 12 13 13 13 13 13 12 12 13 13 13 14 12 11 11 13 13 13 12 12 12
19 16 16 16 15 15 15 16 15 15 15 15 15 13 13 13 13 13 13 13 13 13 13 13 12 12 12 12 12 12 13 13 13 13 12 13 13 12 14 13 12 12 12
16 16 19 16 15 15 15 16 16 15 15 15 14 12 12 13 13 13 13 13 14 14 14 13 13 13 13 13 13 13 13 13 13 11 11 11 13 13 14 14 13 13 13
16 16 18 16 15 15 15 15 15 15 15 15 14 12 12 13 13 13 12 13 13 14 14 14 13 13 13 13 13 12 11 13 12 12 11 12 12 13 13 13 13 13 13
18 16 16 16 15 15 15 15 15 15 15 15 14 13 12 13 13 13 12 13 13 13 13 13 13 13 13 13 13 13 13 13 12 11 12 12 13 13 13 13 13 13 13
18 17 16 15 15 15 15 15 15 15 15 15 15 13 12 13 13 13 13 13 13 13 13 13 13 13 13 13 13 13 13 13 12 12 12 12 12 12 13 13 13 13 13
18 17 16 15 14 15 15 15 15 15 15 15 15 14 13 13 13 13 13 13 13 13 13 13 13 13 13 13 13 13 12 12 12 11 11 12 12 12 12 12 12 12 12
18 18 16 15 15 15 15 15 14 14 14 14 15 14 14 12 13 13 13 13 13 13 13 13 13 13 12 12 12 12 12 11 11 11 11 12 12 12 12 12 12 12 12
17 17 17 15 15 14 14 15 15 14 14 13 14 14 12 12 12 13 13 13 13 13 12 12 12 12 12 11 11 11 11 11 11 12 11 12 12 12 12 12 12 12 12
17 16 18 16 17 15 14 14 15 14 13 13 13 13 12 13 13 13 12 12 12 12 11 12 12 11 11 11 11 11 11 11 11 11 11 12 12 12 12 12 11 11 12
17 17 18 17 18 17 17 15 14 14 13 13 14 14 13 13 13 12 12 12 12 12 11 11 11 11 12 11 11 11 11 11 11 11 11 12 11 11 11 10 10 11 11
18 17 17 18 18 18 17 17 15 13 13 13 14 14 12 12 12 12 12 12 12 12 11 11 11 11 11 11 11 11 11 12 12 11 11 11 11 10 10 10 10 10 10
18 18 17 19 18 18 18 18 17 13 13 13 13 14 13 13 13 13 13 13 12 12 12 11 11 11 11 11 11 12 12 11 11 11 10 10 10 9 9 9 9 9 9
19 18 19 19 18 19 18 17 17 14 13 13 13 14 14 14 13 13 13 13 12 12 11 11 11 11 11 12 11 11 11 11 10 10 10 9 9 8 8 8 8 8 8
18 19 19 19 19 18 18 17 15 14 14 13 14 14 14 14 14 13 13 13 12 12 11 11 11 11 11 11 11 11 10 10 10 9 9 8 8 7 7 7 8 8 8
18 18 19 19 19 19 18 15 14 14 14 13 14 14 14 14 13 13 12 12 12 11 11 12 12 12 12 11 11 10 10 10 9 9 8 7 7 7 7 7 7 7 7
17 18 19 19 19 19 18 14 14 14 14 13 14 14 14 14 13 13 12 12 11 11 12 11 12 12 11 11 10 10 10 10 9 8 7 7 7 7 7 7 7 7 7
16 18 18 19 19 19 18 13 13 13 14 15 14 14 13 13 13 12 11 11 11 12 11 11 11 11 10 10 10 9 9 9 8 7 7 7 7 7 6 6 6 6 6
16 17 18 19 19 19 17 15 12 13 14 15 14 13 13 12 12 12 11 11 11 11 11 11 11 10 10 9 8 7 7 7 5 7 6 6 6 6 6 6 6 6 5
15 16 18 18 19 18 17 13 14 15 14 13 13 12 12 12 12 12 11 11 11 11 11 10 10 9 8 8 7 6 6 7 5 5 5 5 5 5 4 5 5 5 5
15 16 17 18 18 17 17 17 16 15 14 13 12 12 11 11 11 11 11 11 11 11 10 10 9 8 7 6 5 6 5 4 3 4 3 3 2 2 1 2 4 4 4
15 16 16 17 17 17 17 16 14 13 12 12 11 11 11 10 10 10 10 10 10 10 10 9 8 7 6 5 5 5 4 3 1 0 2 2 1 1 -0 -1 -2 -1 -2
14 16 16 16 16 16 16 15 13 12 13 12 11 10 10 10 10 10 10 10 10 9 9 8 7 6 5 5 4 4 3 1 1 -0 -0 0 -0 -0 -1 -1 -2 -2 -2

GFSSE_850_temp_045.txt.gz
Temp
19 19 17 17 16 15 15 15 15 15 15 16 16 15 15 15 15 15 15 15 15 14 14 15 15 15 14 14 14 13 13 13 14 14 14 14 14 15 14 14 14 13 13
19 20 17 17 16 15 15 15 15 15 15 15 15 15 14 15 14 14 14 14 14 13 13 13 14 15 14 13 13 13 13 13 13 13 14 14 14 14 14 14 14 12 13
19 17 17 16 16 15 15 15 15 15 15 15 14 14 14 13 13 13 13 13 14 13 13 13 13 14 14 13 13 13 13 13 14 14 13 12 12 13 13 14 14 13 13
19 16 16 16 15 15 15 15 15 15 15 15 14 14 13 13 13 14 13 13 14 14 13 13 14 13 13 13 14 13 13 13 14 14 12 12 12 13 14 14 14 13 12
18 17 16 16 15 15 15 16 15 15 15 15 14 14 13 14 14 13 13 13 14 14 14 13 13 13 13 13 13 13 13 14 14 13 12 12 13 12 14 14 14 12 12
19 18 17 16 15 15 15 15 15 15 15 14 13 13 13 13 13 13 13 13 14 14 14 13 13 13 13 13 13 13 13 13 13 12 12 12 12 13 13 14 14 14 13
19 18 17 16 15 15 15 15 15 15 15 14 13 12 12 13 13 13 13 13 14 14 14 14 14 14 14 14 14 14 14 14 13 13 12 12 12 13 13 14 13 13 13
19 17 16 16 16 15 15 15 15 15 15 15 14 13 12 12 13 13 13 13 14 14 14 14 14 14 14 14 14 14 13 13 12 13 12 12 12 13 13 13 13 13 13
18 17 15 16 16 15 15 15 15 15 15 15 14 13 13 13 13 13 13 13 14 14 14 14 14 14 14 13 13 13 13 13 13 12 12 12 12 12 13 13 12 13 13
18 17 17 15 15 15 15 15 15 15 15 15 15 14 13 13 13 13 13 13 13 14 14 13 13 13 13 13 13 13 13 13 13 12 12 12 12 12 12 12 12 12 13
18 18 17 17 15 15 15 15 15 14 14 15 15 14 14 13 13 13 13 13 14 13 13 13 13 13 13 12 12 12 13 12 12 12 12 12 12 12 12 12 12 12 12
18 18 18 17 16 15 15 15 15 14 15 15 15 15 13 13 13 13 13 13 13 13 13 13 12 12 12 12 12 12 12 12 12 11 11 12 12 12 12 12 12 12 12
19 18 18 17 17 16 15 15 14 15 13 14 13 13 13 13 13 13 13 13 13 13 12 12 12 11 12 12 12 11 11 11 11 11 11 12 12 12 12 11 11 11 11
20 19 17 17 17 17 15 15 14 14 14 13 13 13 13 13 12 13 13 12 12 12 12 12 12 12 12 12 12 12 12 12 12 11 11 12 12 11 11 10 11 11 10
20 19 18 17 17 15 15 16 16 14 14 14 14 13 13 13 13 13 13 12 12 12 12 12 12 12 11 11 11 12 12 12 12 11 10 11 11 11 10 10 10 10 10
20 20 19 18 17 16 15 17 16 15 14 14 14 13 13 13 13 13 13 13 13 13 12 12 12 11 11 12 12 12 11 11 11 11 10 10 10 10 10 10 9 9 9
20 20 19 18 18 17 16 16 17 15 14 14 13 13 13 13 14 14 13 13 13 12 12 12 11 11 12 12 12 12 12 11 11 10 9 7 8 9 9 8 8 8 8
20 20 20 18 18 17 16 15 17 15 15 14 14 13 13 14 14 14 14 13 13 12 12 11 11 12 12 12 12 11 11 11 10 9 8 7 8 6 8 8 8 8 8
19 19 19 18 18 17 16 15 14 15 15 15 14 13 14 14 14 14 13 13 12 12 12 12 12 12 12 11 11 11 10 10 9 8 7 8 8 8 7 7 8 8 8
20 19 19 18 17 18 16 16 16 16 15 15 14 13 13 14 14 13 13 12 12 12 12 12 12 12 11 11 11 10 10 10 9 8 7 7 6 7 7 7 7 7 7
18 18 18 18 17 17 16 16 16 16 15 14 13 13 13 13 14 13 13 12 12 11 12 12 12 11 11 11 10 9 8 9 8 7 7 6 5 5 5 5 6 6 6
17 17 17 18 17 17 16 16 16 15 15 14 14 13 12 13 13 12 12 12 12 11 12 11 11 11 11 10 9 8 8 8 7 7 6 6 6 5 4 5 5 6 5
17 17 17 17 17 17 16 15 15 15 14 13 12 12 13 13 13 12 11 11 11 11 11 11 11 10 9 9 8 8 7 8 7 6 6 5 5 4 4 4 4 5 4
17 17 17 17 16 16 15 14 14 16 15 13 12 12 12 12 12 11 11 11 11 11 11 10 10 10 9 8 7 7 6 6 4 4 5 4 4 4 2 2 2 4 3
17 17 16 16 15 15 15 14 15 14 12 12 12 12 12 12 11 11 11 11 10 10 10 10 10 9 8 7 7 6 5 3 2 2 2 3 3 2 2 1 0 -0 0
15 16 16 15 14 14 13 15 15 11 12 13 12 11 11 11 10 10 10 10 10 10 10 9 9 8 7 7 6 5 5 3 2 1 1 1 1 2 1 1 0 1 -1

GFSSE_850_temp_048.txt.gz
Temp
20 20 18 17 16 16 15 15 16 16 16 16 16 15 15 15 15 15 15 15 15 15 14 14 15 15 14 14 14 13 13 13 14 14 14 15 14 15 15 14 14 12 12
21 19 17 17 16 15 15 16 16 16 16 16 15 15 15 15 14 14 14 14 14 14 14 14 15 14 14 14 14 13 13 13 14 14 14 13 13 13 14 14 14 14 13
20 20 18 17 16 15 16 16 16 15 15 15 15 14 14 14 14 14 14 15 15 14 13 13 14 14 14 13 15 13 13 13 14 14 13 12 12 13 14 14 14 14 13
20 19 18 17 16 16 16 16 16 15 15 15 15 14 13 13 13 14 14 15 14 14 13 13 14 14 13 13 15 14 14 14 14 13 13 13 12 13 14 14 14 13 13
18 18 18 18 17 16 16 16 16 16 15 15 14 13 13 13 14 14 14 15 15 15 13 12 14 15 15 15 14 14 14 14 13 12 12 12 13 13 14 14 14 14 13
18 17 17 16 16 16 16 16 16 16 15 15 14 14 13 14 14 14 14 15 15 15 14 13 13 13 14 14 14 14 15 14 13 12 12 12 12 13 13 14 14 13 13
18 17 17 16 16 16 16 16 16 16 16 15 14 14 13 13 13 13 13 14 14 14 15 14 14 14 14 14 15 15 14 13 13 12 12 12 12 13 13 13 13 13 13
19 18 17 16 16 16 16 16 16 16 16 15 14 13 13 13 13 13 13 14 14 14 14 14 14 14 14 14 14 14 14 13 13 12 12 12 12 12 13 13 13 13 13
19 18 18 17 16 16 16 16 16 16 16 15 14 13 13 13 13 13 13 14 14 14 14 14 14 14 14 14 13 13 13 13 12 12 12 12 12 12 12 12 12 12 13
18 17 17 17 16 16 16 16 16 16 16 16 15 14 13 13 13 13 13 14 14 14 14 14 14 14 13 13 13 13 13 12 12 12 12 12 12 12 12 12 12 12 12
18 17 17 16 14 15 16 16 15 15 15 15 15 15 14 13 13 13 13 14 14 14 14 14 13 13 13 12 12 12 12 12 12 12 12 12 12 12 12 12 12 12 12
18 18 17 17 16 15 14 15 15 15 15 15 15 15 14 13 13 13 13 13 14 14 13 13 13 12 12 12 12 12 12 12 12 11 12 12 12 12 12 12 12 12 12
18 18 18 17 17 16 15 15 14 14 14 14 14 15 14 13 13 13 13 13 13 13 13 12 12 12 12 12 12 12 11 12 12 12 12 12 12 12 12 12 12 12 11
19 18 18 17 17 16 16 15 15 14 14 13 13 13 13 13 13 13 13 13 13 12 12 12 12 12 12 12 12 12 12 12 12 12 12 12 12 11 11 11 11 11 11
20 19 18 18 17 17 16 16 15 15 14 14 13 13 13 13 13 13 13 13 12 12 12 12 12 12 12 12 12 12 12 12 12 11 11 11 11 11 11 10 10 10 10
21 20 19 18 17 17 16 16 16 16 15 14 14 14 13 13 13 13 13 12 13 13 12 12 12 12 12 12 12 12 12 12 12 11 11 11 10 10 10 9 9 9 9
20 20 19 18 18 17 17 16 16 15 15 14 14 13 13 13 13 13 13 13 13 13 12 12 12 12 12 13 13 12 12 12 11 11 9 10 10 9 9 9 9 9 8
20 20 20 19 18 17 17 17 17 15 15 15 14 13 13 13 13 14 14 13 13 13 13 12 12 12 13 13 13 12 12 12 11 10 9 9 9 9 9 9 8 8 8
20 20 20 19 19 18 17 16 17 17 15 15 14 14 13 13 13 14 14 13 13 13 12 12 12 12 12 12 12 12 12 11 10 9 8 8 8 8 7 7 8 8 8
20 20 19 19 19 18 17 16 16 16 15 15 15 14 14 13 14 14 14 13 13 12 12 12 12 12 12 12 12 11 11 10 10 9 8 8 7 8 7 7 7 7 7
19 20 20 19 19 19 17 16 16 16 15 16 15 15 14 13 14 14 13 13 12 12 12 12 12 12 12 11 11 11 10 10 9 9 8 7 7 6 7 6 6 6 6
18 19 19 19 18 18 18 17 16 16 16 16 15 14 13 13 13 13 13 13 12 12 12 12 12 12 11 11 10 10 9 8 8 8 8 7 6 6 6 5 5 5 5
18 18 18 18 18 17 18 16 15 15 16 15 14 14 13 12 13 13 12 12 12 12 11 11 11 11 11 10 10 10 9 8 8 7 6 6 6 5 5 4 5 4 4
18 17 17 17 18 18 17 16 16 16 16 15 15 14 13 12 12 11 11 11 12 12 11 11 11 10 10 10 9 9 8 7 7 6 6 5 5 4 4 4 3 4 3
17 17 17 17 17 17 17 16 15 16 16 17 15 14 12 11 11 10 10 11 11 11 11 10 10 10 10 9 9 8 7 7 5 4 4 5 5 4 4 3 3 2 1
16 17 16 17 17 17 16 15 15 16 16 16 14 12 12 11 10 10 10 11 11 11 10 10 10 9 9 8 8 7 7 6 4 3 2 3 3 4 2 2 2 1 0

GFSSE_850_temp_051.txt.gz
Temp
18 19 19 18 17 16 16 16 16 16 16 16 16 15 15 15 15 15 15 15 15 15 15 15 15 14 14 14 14 14 13 14 15 15 15 15 15 14 14 14 14 14 13
19 18 18 18 17 16 16 15 16 16 16 16 15 15 15 15 15 15 15 15 15 15 13 15 15 15 14 14 15 14 14 14 14 14 14 14 14 13 14 14 14 14 14
20 18 17 16 17 16 16 16 16 16 15 14 14 14 15 14 14 14 15 15 15 15 13 14 15 14 14 14 15 14 14 14 14 14 13 14 14 13 14 14 14 14 13
20 18 17 17 17 17 17 16 16 16 16 15 14 14 13 14 14 15 15 15 15 14 13 14 14 14 15 15 15 14 14 14 14 13 12 13 13 13 14 14 14 14 13
19 18 18 17 17 18 17 17 17 17 17 16 15 14 14 14 15 15 15 15 15 14 13 13 14 15 15 15 14 14 14 14 13 12 12 12 13 13 13 14 14 14 14
18 18 17 17 17 18 18 17 18 18 17 17 16 14 14 15 15 15 15 15 15 15 13 13 14 14 14 14 14 15 14 13 12 12 12 12 12 13 13 12 13 13 13
18 18 17 17 17 17 17 17 17 18 18 17 16 15 14 14 14 15 15 15 15 15 15 14 14 14 14 14 15 14 14 13 12 12 12 12 12 12 13 12 13 13 13
18 17 17 17 17 17 17 17 17 17 17 17 15 14 14 14 14 14 15 15 15 15 15 15 15 14 14 14 14 14 13 13 12 12 12 12 12 12 12 12 12 12 13
18 18 17 17 18 17 17 17 17 17 17 16 15 14 12 13 13 14 14 15 15 15 15 15 14 14 14 14 14 13 13 12 12 12 12 12 11 12 12 12 12 13 13
18 18 18 17 17 16 16 16 17 17 16 16 15 14 13 13 13 13 14 14 14 14 14 14 14 14 14 14 13 13 12 12 12 12 12 12 11 12 12 12 12 12 12
18 18 18 18 17 16 16 16 16 16 16 16 15 14 14 14 14 13 14 14 14 14 14 14 14 13 13 12 13 12 12 12 12 12 12 12 12 12 12 12 12 12 12
18 18 17 17 17 16 16 16 16 16 16 16 16 15 14 13 13 13 14 14 14 14 14 13 13 13 12 12 12 12 12 12 12 12 12 12 12 11 11 12 12 11 11
18 18 17 17 17 17 17 15 15 15 15 15 16 15 14 13 12 13 13 14 14 14 13 13 13 12 12 12 12 12 12 12 12 12 11 12 12 11 10 11 11 11 10
18 18 18 17 17 16 16 16 15 14 14 15 15 15 14 14 13 13 13 13 13 13 12 12 12 12 12 12 12 12 12 11 12 12 12 12 11 11 10 11 10 10 10
19 18 17 18 17 17 16 16 15 14 14 14 14 14 13 14 13 13 13 13 13 12 12 12 12 12 12 12 12 12 12 12 12 12 12 11 11 10 10 10 10 10 9
19 19 18 17 17 17 16 16 16 15 15 14 13 13 13 13 13 14 13 13 13 12 12 12 12 12 12 12 12 12 12 12 12 12 12 11 10 10 9 9 9 9 9
20 20 19 18 17 17 17 16 16 15 15 14 14 14 13 13 14 13 13 13 12 12 12 12 12 12 12 12 12 12 13 12 11 12 11 11 10 10 9 9 9 9 9
20 20 19 19 18 17 17 17 16 16 15 15 14 14 13 14 13 13 13 13 12 13 13 12 12 11 12 13 13 13 12 12 11 11 11 10 10 9 9 9 9 9 8
20 19 20 19 19 18 17 17 16 16 15 15 14 14 13 13 13 13 13 13 13 13 13 12 12 12 13 12 12 12 12 12 11 10 10 10 9 9 8 8 8 8 8
19 19 19 20 19 19 18 17 17 16 16 15 14 14 14 13 13 13 13 13 13 13 13 12 12 13 12 12 12 12 12 11 10 10 9 9 9 8 8 8 8 7 7
19 19 19 19 19 18 18 17 17 17 16 16 15 15 14 14 14 14 13 13 13 13 12 12 12 12 12 12 12 12 11 10 9 9 9 9 8 7 7 7 6 6 6
19 19 19 19 19 19 18 18 17 17 16 16 15 15 15 15 14 14 13 13 13 13 13 12 12 12 12 12 12 11 11 10 9 9 8 7 7 6 6 5 6 5 5
18 18 18 19 19 19 19 18 17 17 16 16 15 16 15 15 14 14 13 13 13 12 12 12 12 12 11 12 11 11 10 10 9 8 7 6 5 5 6 5 5 4 4
17 18 18 18 18 18 18 18 17 17 16 16 16 15 15 15 14 14 12 12 12 12 11 12 12 12 11 11 11 10 9 9 9 8 7 6 6 5 5 5 4 4 3
17 17 17 17 17 17 17 17 18 16 16 16 16 16 15 15 13 12 12 11 11 11 10 11 11 11 11 10 10 9 9 8 7 7 7 7 6 5 5 5 4 3 2
16 17 17 17 17 17 17 17 17 17 16 16 16 16 16 15 13 11 11 11 10 10 10 10 11 10 10 10 9 8 8 7 6 5 4 5 4 5 5 4 4 3 1

GFSSE_850_temp_054.txt.gz
Temp
17 18 16 16 16 16 16 16 16 16 16 16 16 16 16 16 15 15 15 15 15 15 15 14 14 14 14 14 14 14 14 14 15 15 15 15 15 15 14 14 14 14 13
19 18 16 16 16 16 16 16 16 16 16 16 16 16 15 15 15 15 15 14 15 14 15 15 14 14 14 14 14 14 14 15 15 15 14 14 15 15 14 14 14 14 14
19 18 17 16 16 16 16 16 16 16 16 16 16 15 15 15 15 15 16 15 15 12 14 15 15 14 14 15 14 14 14 14 14 14 14 14 14 14 14 14 14 13 13
20 19 18 16 17 17 17 17 17 17 17 15 14 14 16 15 15 16 16 16 15 13 13 15 14 14 15 15 14 14 14 14 13 13 13 13 14 13 14 14 14 14 13
19 19 18 16 17 17 17 17 17 17 17 15 14 15 15 15 16 16 16 15 15 13 13 14 14 14 14 14 14 14 14 13 12 12 13 13 13 13 13 14 13 13 13
19 19 18 16 16 17 17 17 17 17 17 16 15 15 15 15 16 16 16 15 14 13 13 13 13 14 14 14 14 14 14 13 12 12 11 12 12 13 13 12 13 13 13
19 18 17 16 16 17 18 18 18 18 18 17 16 15 15 15 15 16 16 15 15 13 13 13 13 14 14 14 15 14 13 12 12 12 12 12 12 13 13 13 13 13 13
20 18 17 16 17 17 17 18 19 19 19 19 17 15 15 15 15 15 15 15 15 15 14 14 14 15 15 15 14 14 13 12 12 12 12 11 12 12 12 12 12 12 13
19 19 17 17 17 17 17 17 18 19 19 19 18 16 15 15 14 15 15 15 15 15 15 15 15 14 14 14 13 13 13 12 12 12 12 12 12 12 12 12 12 12 12
18 18 18 17 17 17 17 17 17 18 18 18 17 16 15 14 14 14 15 15 15 15 14 14 14 14 14 13 13 12 12 12 12 12 12 12 11 11 12 12 11 11 10
17 17 17 17 17 17 17 16 16 16 17 17 17 16 14 14 13 14 14 15 14 14 14 14 14 13 13 13 12 12 12 12 12 12 12 12 11 11 12 11 11 11 11
18 17 18 17 17 17 17 16 16 16 16 16 16 15 14 14 14 14 14 14 14 14 14 13 13 13 13 13 12 12 12 12 12 12 12 12 12 11 11 11 11 10 10
18 17 17 17 17 17 17 16 16 16 16 16 16 15 15 14 14 14 14 14 14 14 13 13 13 13 12 12 12 12 12 12 12 12 12 12 11 11 9 10 10 10 10
18 18 18 17 17 17 17 17 16 16 16 16 16 15 15 15 14 14 14 14 14 13 13 13 12 12 12 12 12 12 12 12 12 12 12 12 11 10 10 10 10 10 9
19 19 18 18 17 17 17 16 16 15 15 15 15 15 15 15 15 14 13 14 14 13 13 12 12 12 12 12 12 12 12 12 12 12 12 11 11 10 10 9 9 9 9
18 18 19 18 17 17 17 17 16 16 15 15 15 15 15 15 14 14 13 13 13 13 12 12 12 12 12 12 12 12 12 12 12 12 11 11 10 10 9 9 9 9 9
19 18 18 18 18 17 17 17 16 16 15 15 14 14 14 15 14 13 14 13 13 13 12 12 12 11 12 12 12 12 12 12 12 12 11 10 10 9 9 9 9 9 9
19 19 18 18 18 18 17 17 17 16 15 15 14 14 14 14 14 13 13 13 13 12 12 12 12 12 12 12 12 12 12 12 12 11 11 10 9 9 9 8 8 8 8
19 19 18 18 18 18 17 17 17 17 16 15 15 14 14 14 13 13 13 13 12 12 12 12 12 12 12 12 12 12 12 12 12 11 10 10 9 8 8 8 8 7 7
19 19 19 18 18 18 17 17 17 17 16 16 15 14 14 14 13 13 13 12 12 12 12 12 12 12 12 12 12 12 12 12 11 10 10 9 9 8 8 7 7 7 7
19 19 19 19 18 18 17 17 17 17 17 16 16 15 14 14 14 13 13 12 12 13 13 12 12 12 12 12 12 12 12 11 11 10 9 8 8 7 7 7 6 6 6
18 18 18 18 19 19 18 18 17 17 16 17 16 15 14 14 14 15 13 13 13 12 12 12 12 12 12 12 12 11 11 10 10 9 9 8 7 7 6 6 6 5 5
17 17 18 18 18 19 19 18 17 17 16 16 16 16 15 14 15 15 14 14 13 13 12 12 12 12 12 12 12 11 11 11 10 9 8 8 7 6 6 5 5 4 4
17 17 17 17 18 18 18 18 18 18 17 16 16 16 15 15 15 15 14 13 13 12 12 12 11 11 11 11 11 11 11 10 10 9 8 7 6 5 5 5 4 4 4
17 17 17 17 17 17 17 17 17 17 17 17 16 16 16 15 15 16 15 14 13 12 11 11 11 11 11 11 11 10 10 10 9 8 8 7 6 5 5 5 4 4 3
16 16 17 17 17 17 17 17 17 17 17 17 17 16 16 15 15 15 15 13 12 12 11 11 11 10 10 10 10 10 9 8 8 7 6 6 5 6 5 5 4 3 2

GFSSE_850_temp_057.txt.gz
Temp
18 16 16 16 16 16 16 16 17 16 16 17 16 16 16 16 16 16 16 15 15 15 15 14 14 15 14 14 14 14 14 15 15 15 15 15 15 15 15 14 14 13 13
19 16 16 16 16 16 16 16 16 16 15 15 16 15 15 15 16 15 15 15 15 14 14 14 14 15 14 14 14 14 14 14 15 14 15 14 14 15 14 14 14 14 13
19 16 16 16 15 16 16 16 16 15 15 16 16 16 16 15 15 15 15 15 14 13 13 14 14 14 14 14 14 14 14 14 14 14 14 14 14 14 14 14 14 14 14
19 18 16 16 16 15 15 15 15 16 16 16 16 16 16 16 15 15 16 15 14 12 13 14 14 14 14 14 14 14 14 14 13 13 13 13 13 13 14 14 14 14 13
19 19 18 16 16 16 16 16 16 16 16 16 16 16 15 15 16 16 16 15 12 12 12 13 13 14 14 14 13 13 13 12 13 13 13 13 13 12 12 13 13 13 13
19 19 19 17 17 16 17 17 16 15 14 14 15 16 15 15 16 16 16 15 13 12 13 13 14 14 14 14 13 13 13 12 12 12 12 12 13 13 13 13 13 13 13
19 19 19 18 17 17 17 17 17 16 16 15 17 16 16 16 16 16 16 15 14 14 13 14 14 14 14 14 14 13 12 12 12 12 12 12 12 12 12 12 13 13 13
19 19 18 17 17 17 17 17 17 18 18 17 17 16 16 16 16 16 16 16 15 14 13 13 13 14 14 14 13 13 12 13 12 12 12 11 12 12 12 13 13 12 13
18 19 18 18 17 17 17 18 18 19 19 19 18 17 16 16 16 16 16 16 15 15 14 14 14 14 14 13 13 13 13 12 12 12 12 11 12 12 12 12 12 12 12
18 18 18 18 18 18 17 17 18 19 19 19 18 18 16 16 15 16 16 15 15 15 14 14 14 14 13 13 13 13 12 12 12 12 12 11 11 11 12 12 12 11 11
17 18 18 18 18 18 17 17 17 18 18 18 18 17 16 15 15 15 15 15 15 14 14 14 14 13 13 13 13 12 12 12 12 12 12 11 11 11 11 12 11 11 11
17 18 17 17 17 17 17 17 17 17 17 17 17 16 15 15 14 14 14 15 14 14 14 14 13 13 12 12 12 12 12 12 12 12 11 11 11 11 11 11 11 11 11
19 18 17 17 17 17 17 17 17 17 17 16 16 15 15 15 14 14 14 14 14 14 14 14 13 13 12 12 12 12 12 12 12 11 11 11 11 10 10 11 11 10 10
19 19 18 18 17 17 17 17 17 17 17 17 16 15 15 15 14 14 14 14 14 13 13 13 13 12 12 12 12 12 12 12 12 12 12 12 11 10 10 10 10 10 9
18 19 18 18 17 17 17 16 16 17 16 16 16 16 15 15 14 14 14 13 13 13 13 12 12 12 12 12 11 11 12 11 12 12 12 12 11 10 10 9 9 9 9
18 18 18 18 17 17 17 17 16 16 16 16 15 16 16 15 15 14 14 13 13 13 12 12 12 12 12 11 11 11 12 12 12 12 11 11 11 10 10 9 9 9 8
18 18 18 18 18 17 17 17 17 16 16 16 15 15 15 15 15 14 14 13 13 12 12 12 12 11 11 11 11 12 12 12 12 12 11 11 10 10 9 9 9 9 8
18 17 18 18 17 17 17 17 17 17 16 16 16 15 15 15 15 14 13 13 13 12 12 12 12 11 11 11 11 12 12 12 12 12 11 11 10 9 9 9 8 8 8
18 18 18 18 17 17 17 17 17 17 16 16 15 16 15 15 14 14 13 13 13 12 12 12 12 11 11 11 11 12 12 12 12 11 11 10 10 9 9 8 8 8 7
19 19 18 18 18 18 17 17 17 17 17 16 16 15 16 15 14 14 13 13 12 12 12 12 12 11 11 11 12 12 12 11 11 11 10 10 9 9 8 8 7 7 7
18 19 18 18 18 18 18 16 17 17 16 16 16 16 15 15 15 14 13 13 12 13 12 12 12 12 12 11 12 12 11 11 11 10 10 9 9 8 8 7 7 7 7
17 18 18 18 18 18 18 18 17 17 16 16 16 16 16 16 15 14 14 13 13 13 12 12 12 12 12 12 11 11 11 10 10 10 9 9 8 7 7 7 6 6 6
17 17 17 18 18 18 18 18 17 17 17 16 16 16 16 16 16 15 15 14 13 13 12 12 12 12 12 12 12 11 11 11 10 9 9 8 7 7 6 6 5 5 5
17 17 17 17 17 17 17 17 17 18 17 16 16 16 16 16 16 15 15 15 14 13 12 11 12 12 12 11 11 11 11 11 10 9 8 8 7 7 6 5 5 4 4
16 16 17 17 17 17 17 17 17 17 17 16 16 16 16 16 15 15 15 15 14 13 12 11 11 11 11 11 11 11 11 10 10 9 8 8 7 6 5 5 5 4 4
17 16 16 16 17 17 17 17 17 17 16 16 16 16 16 16 16 15 15 15 15 14 12 11 10 10 11 10 10 10 10 10 10 9 8 7 6 6 5 5 4 4 3

GFSSE_850_temp_060.txt.gz
Temp
19 17 16 16 16 16 17 16 17 17 17 17 16 16 16 16 16 15 15 15 15 15 14 14 15 14 14 14 14 14 14 15 15 15 15 15 15 15 15 14 14 14 14
21 17 16 17 17 17 17 17 17 16 15 16 16 16 16 15 15 15 15 15 14 14 14 14 14 14 14 14 14 14 14 14 14 14 14 14 15 15 15 14 14 14 14
20 18 17 17 17 16 16 16 16 16 15 14 16 16 15 15 15 15 15 15 14 14 13 14 14 14 15 14 14 14 14 14 14 14 14 14 15 15 14 14 14 14 13
20 18 17 17 16 16 16 16 16 15 14 14 15 16 15 15 15 15 15 15 14 13 13 14 14 13 14 14 13 14 14 13 13 13 14 14 14 13 14 14 14 14 13
20 19 17 16 16 16 15 15 15 14 14 14 14 15 15 16 15 16 16 15 12 12 15 15 14 14 14 14 13 14 14 13 13 13 13 13 13 12 13 13 13 13 13
19 18 17 16 16 15 15 15 14 15 14 13 13 15 16 16 17 17 16 15 12 13 13 13 13 13 13 13 13 14 13 13 12 12 12 12 12 12 12 13 13 13 13
19 18 17 16 16 15 15 15 15 14 14 14 14 16 16 16 17 17 16 16 14 13 13 13 13 13 13 13 14 14 13 12 12 12 12 12 12 12 12 13 13 13 13
19 18 17 16 16 16 16 15 15 15 15 14 17 16 16 16 16 17 16 16 15 14 13 13 13 13 13 14 14 13 12 12 12 12 12 12 12 12 12 12 12 12 12
17 18 17 18 18 17 17 17 17 18 17 16 17 16 16 16 16 16 16 16 15 14 14 14 14 14 14 13 13 13 12 12 12 12 12 11 12 12 12 12 12 11 12
17 17 18 18 18 18 18 18 18 18 18 18 18 17 16 16 16 16 16 16 15 15 14 14 14 14 13 13 13 13 12 12 12 12 11 11 11 12 12 11 11 11 12
17 17 17 18 18 19 19 18 18 18 18 18 18 17 16 15 15 16 15 15 15 14 14 14 14 13 13 13 13 12 12 12 12 12 11 11 11 11 11 12 11 11 12
18 18 18 18 18 18 18 18 18 18 18 18 18 17 16 15 15 15 15 15 14 14 14 13 13 13 13 13 13 12 12 12 12 12 11 11 11 10 11 11 11 11 11
18 18 18 18 17 17 17 18 18 18 18 18 17 16 15 14 14 14 14 14 14 14 13 13 13 13 12 12 12 12 12 12 12 11 11 11 11 10 11 11 11 11 10
19 18 18 18 17 17 17 17 17 17 17 17 17 16 15 15 14 14 14 14 14 14 13 13 12 12 12 12 12 12 12 12 12 11 11 11 10 10 10 11 11 11 10
19 18 18 18 18 17 17 16 16 16 17 17 17 16 15 15 15 14 14 14 14 13 13 13 12 12 12 12 12 11 11 11 12 12 12 12 11 10 10 10 10 10 10
18 18 18 18 18 18 17 17 16 16 16 16 16 16 16 15 15 14 14 14 13 13 13 12 12 12 11 11 11 11 11 11 12 12 12 11 11 10 10 9 10 9 9
18 18 18 18 18 17 17 17 17 17 16 16 16 16 15 15 15 15 14 13 13 13 12 12 12 11 11 11 11 11 11 12 12 12 12 11 11 10 10 9 9 9 9
17 17 17 17 17 17 17 17 17 17 17 16 16 15 15 15 15 15 14 13 13 12 12 12 12 11 11 11 11 11 11 12 12 11 11 11 10 10 9 9 8 9 9
18 17 17 17 17 17 17 17 17 17 17 16 16 16 15 15 14 14 14 13 13 12 12 12 12 11 11 11 11 11 11 12 11 11 11 10 10 9 9 8 8 8 8
18 18 17 17 18 18 17 17 17 17 17 16 17 16 16 15 14 14 14 13 13 13 12 12 12 11 11 11 11 11 11 11 11 11 11 10 10 9 9 9 8 8 8
17 18 18 17 18 18 18 17 17 17 17 17 17 17 17 15 15 15 14 14 13 13 13 12 12 11 11 11 11 11 11 11 11 11 10 10 9 9 8 8 8 8 7
17 17 17 18 17 17 17 18 18 18 17 17 17 16 16 16 16 16 15 14 14 13 13 12 12 12 11 11 11 11 11 11 11 11 10 9 9 9 8 8 7 7 7
16 17 17 17 17 17 17 17 17 17 17 16 16 16 16 16 16 16 16 15 15 14 13 13 12 12 11 11 11 11 11 11 11 10 10 9 9 8 8 7 7 7 6
16 17 17 16 16 16 16 16 17 17 17 18 17 17 17 16 16 16 15 15 15 14 13 13 12 11 11 11 11 11 11 11 11 10 9 9 9 8 7 7 6 6 5
15 15 16 16 16 17 17 16 16 16 16 16 16 17 17 17 16 16 16 15 15 15 13 12 12 11 11 11 11 10 10 11 10 10 10 9 8 8 7 6 5 5 5
15 15 15 15 16 16 16 16 16 17 16 16 16 16 16 16 16 16 15 15 15 15 14 14 13 11 11 10 10 9 9 10 10 9 9 9 8 7 6 6 5 4 4

GFSSE_850_temp_063.txt.gz
Temp
21 19 17 17 17 17 17 17 17 17 16 16 16 16 16 16 16 15 15 15 15 14 14 14 14 14 14 14 15 15 15 15 15 15 15 16 15 15 15 15 14 14 14
22 19 17 17 17 17 17 17 17 16 16 15 16 16 15 15 15 15 15 15 14 14 14 14 14 14 14 14 14 15 15 14 15 15 15 15 15 15 15 14 14 14 14
21 19 17 17 17 17 17 17 16 16 15 15 16 16 15 15 15 15 15 15 15 14 14 14 14 14 14 14 14 14 14 14 14 14 14 14 14 14 14 14 14 14 14
20 18 16 16 16 16 16 16 16 16 15 14 15 16 15 15 15 15 15 15 15 13 13 14 14 14 14 14 14 14 14 14 14 13 13 14 14 13 13 13 13 14 13
19 19 17 16 17 17 16 16 16 15 14 14 14 16 16 16 16 16 16 15 14 13 14 14 14 13 14 14 14 14 14 13 13 13 13 13 13 12 13 13 13 13 13
19 19 17 17 17 16 15 16 16 15 14 14 14 14 16 16 16 16 15 12 13 14 14 14 14 14 14 13 13 14 13 13 13 13 13 13 12 13 13 13 13 13 13
18 18 17 16 16 16 15 15 14 14 14 14 14 15 16 16 16 16 15 12 12 14 13 13 13 13 13 13 14 14 13 13 12 12 12 12 12 13 13 13 13 13 12
18 17 17 16 16 16 15 14 14 14 14 14 15 15 15 16 16 16 16 15 14 13 13 13 13 13 13 14 14 13 13 12 12 12 12 12 12 12 13 13 12 12 13
18 18 17 17 16 16 16 15 14 14 14 14 14 15 15 16 16 16 16 15 14 14 13 13 13 13 14 14 14 13 12 12 12 12 12 12 12 12 12 12 11 12 12
18 18 17 17 17 17 17 17 16 16 15 14 14 15 15 15 16 16 16 15 14 14 14 14 14 14 14 14 13 13 12 12 12 12 12 12 12 12 12 12 11 12 12
18 18 17 17 17 17 17 17 17 17 17 16 15 17 15 15 15 15 15 15 15 14 14 14 14 14 14 13 13 12 12 12 12 12 11 11 11 11 11 12 11 12 12
18 17 17 17 17 17 18 18 18 17 17 17 18 17 16 15 15 15 15 15 15 14 14 14 13 13 13 13 12 12 12 12 12 11 11 11 11 10 11 11 11 11 11
18 17 17 17 17 17 17 18 17 17 17 18 17 17 16 15 15 15 15 15 14 14 14 14 13 13 13 13 12 12 12 12 12 11 11 11 10 10 11 11 11 11 11
18 18 18 17 17 17 17 17 17 17 17 18 17 17 16 16 15 14 14 14 14 14 14 13 13 13 12 12 12 12 12 12 12 12 12 11 10 10 11 11 11 10 10
17 17 18 18 17 17 17 17 17 17 17 17 17 17 16 16 15 15 14 14 14 14 13 13 13 13 12 12 12 12 11 12 12 12 12 11 11 10 10 10 10 10 10
17 17 17 18 17 17 17 17 17 17 17 17 16 16 16 16 15 14 14 13 13 13 13 13 13 12 12 12 12 12 11 11 11 12 12 11 11 10 10 10 9 9 9
17 17 17 17 18 17 17 18 17 17 16 16 16 16 16 15 15 15 14 13 13 13 13 12 12 12 12 11 11 11 11 11 11 12 11 11 10 10 9 9 9 9 9
17 17 17 17 17 17 18 18 18 18 17 16 16 15 15 15 15 14 14 13 13 13 13 12 12 12 12 11 11 11 11 11 11 11 11 11 11 10 9 9 9 9 9
18 18 18 17 17 17 17 17 18 18 17 17 17 16 15 15 14 14 14 14 13 12 12 12 12 12 11 11 11 11 11 11 11 11 11 11 11 10 10 10 9 9 9
17 17 18 18 17 17 17 17 17 17 17 17 17 16 16 15 14 14 14 14 13 12 12 12 12 11 11 11 11 11 11 11 11 11 11 11 10 10 10 9 9 9 8
16 17 17 17 18 17 17 17 17 17 17 17 17 17 17 16 16 15 14 14 13 13 13 12 12 11 11 11 11 10 10 11 11 11 11 10 10 10 9 9 9 8 8
16 16 16 17 17 17 17 18 17 18 17 18 17 17 17 17 16 16 15 15 14 13 13 13 12 12 11 11 11 10 10 10 11 11 11 10 10 9 9 8 8 8 8
16 16 16 16 16 17 16 17 16 16 16 17 17 18 17 17 17 16 16 16 15 14 13 13 13 12 12 11 11 11 10 11 11 11 11 10 10 9 9 9 8 8 7
14 15 16 16 16 16 16 16 16 16 16 17 18 18 18 18 17 16 16 16 15 15 14 13 13 13 12 11 11 11 11 11 11 11 10 11 10 9 9 8 8 7 7
14 14 14 15 16 15 16 16 16 15 16 16 16 17 17 17 17 16 16 16 16 15 15 14 13 12 12 11 11 11 10 10 10 10 10 10 10 9 8 8 7 7 6
13 13 14 14 14 15 15 15 15 16 16 16 15 16 16 16 16 16 16 16 15 15 15 15 14 12 12 11 10 11 10 10 10 10 9 9 10 9 8 7 6 6 5

GFSSE_850_temp_066.txt.gz
Temp
20 20 18 17 17 17 17 17 17 16 16 16 16 16 16 15 15 15 15 15 15 15 15 15 15 15 15 15 15 15 15 15 15 15 16 16 16 16 15 14 13 12 13
20 19 18 17 17 17 17 17 17 16 16 16 15 16 15 15 15 15 15 15 15 15 14 15 14 14 15 15 15 15 15 14 15 15 15 15 15 15 15 15 15 14 14
17 17 18 17 17 17 17 17 17 16 16 15 15 15 15 15 15 15 15 15 15 14 14 14 13 15 14 14 15 15 15 14 14 15 15 13 15 15 15 14 14 14 14
17 16 17 17 18 17 17 16 16 16 15 15 15 15 15 15 15 15 15 15 15 14 14 14 14 14 14 14 14 14 14 14 14 14 12 12 12 14 14 14 14 14 13
16 16 16 17 17 17 17 16 16 16 15 14 14 14 16 15 15 15 15 15 14 14 14 14 14 14 14 14 14 14 14 14 14 12 12 12 13 13 13 13 13 13 13
17 17 17 17 17 17 16 16 16 15 14 14 14 16 17 16 15 16 16 14 14 14 14 14 13 14 14 14 14 14 13 13 13 12 12 13 13 13 13 14 13 13 13
17 16 17 16 17 16 15 16 15 15 14 14 14 15 16 16 16 16 15 13 14 13 14 14 13 14 14 14 14 14 13 13 12 12 12 13 13 13 13 14 14 13 13
16 16 16 16 16 16 15 15 15 14 14 14 14 14 16 16 16 16 14 12 13 13 13 13 13 14 14 14 14 13 13 13 12 12 12 12 13 13 13 13 13 13 13
16 15 16 16 16 15 15 15 14 14 14 14 14 14 15 16 16 16 16 14 13 12 13 13 13 13 13 14 14 13 13 12 12 12 12 12 12 12 12 12 11 13 13
18 16 16 15 15 15 15 15 14 14 14 14 14 13 15 15 15 15 15 15 14 13 13 13 13 14 14 14 14 13 13 12 11 11 11 11 12 11 11 11 12 12 12
17 15 15 15 15 15 15 14 14 14 15 14 13 13 14 14 15 15 15 15 14 14 13 13 14 14 14 14 13 13 13 11 11 11 11 12 12 11 11 12 12 12 12
17 17 15 15 15 14 14 14 13 13 13 13 14 14 12 12 13 13 15 15 14 14 14 14 14 14 13 13 13 13 11 11 11 11 11 12 11 11 12 12 11 11 11
17 18 17 16 14 14 14 14 14 14 13 13 13 13 12 12 14 14 14 14 14 14 14 14 14 13 12 11 12 11 12 11 11 11 11 11 11 11 11 11 11 11 11
18 18 18 17 17 14 14 16 15 15 14 13 13 13 12 12 13 12 12 13 13 14 12 12 11 11 13 13 12 12 12 11 11 12 11 11 11 11 11 11 11 11 11
16 18 17 17 17 15 14 16 15 16 16 16 15 14 14 13 12 12 12 13 13 12 12 12 12 12 12 12 12 12 12 12 12 12 11 12 11 10 10 11 11 10 10
16 17 18 18 17 17 14 14 15 16 16 16 16 16 16 14 13 12 12 12 13 13 12 11 11 12 12 12 12 12 12 11 12 12 10 11 11 10 10 10 10 10 10
15 15 18 17 17 17 16 16 16 16 16 16 16 16 16 15 14 13 12 12 12 13 13 12 11 12 12 12 12 12 11 11 11 11 11 9 11 10 10 10 10 10 9
16 15 15 16 17 17 17 17 17 16 17 17 16 16 16 15 15 15 14 12 12 11 12 12 12 12 12 12 12 11 11 11 11 11 11 11 10 9 10 10 9 9 9
16 17 17 16 17 18 17 17 17 17 17 17 16 16 16 15 15 15 14 13 13 12 11 12 12 12 12 12 11 11 11 11 11 11 11 11 11 10 9 10 9 9 9
17 17 17 17 17 18 18 17 17 17 17 17 17 17 16 16 15 15 14 14 13 11 12 12 12 12 12 11 11 11 11 11 11 11 11 11 11 10 10 10 10 9 9
17 17 17 17 18 16 16 18 17 17 18 18 17 17 17 17 17 16 15 14 13 13 12 12 13 12 12 11 11 11 11 11 11 11 11 11 11 10 10 10 9 9 9
16 16 17 17 17 17 15 18 18 18 18 18 17 17 17 17 17 17 16 16 15 14 12 12 12 12 12 11 11 10 10 10 11 11 11 11 11 10 10 10 9 9 9
16 16 16 16 16 16 17 14 14 15 16 17 18 18 18 17 17 17 17 16 16 15 14 14 13 12 12 12 11 11 10 11 10 11 11 11 11 10 9 9 9 8 8
14 15 15 16 16 16 16 14 13 14 15 17 17 17 18 18 17 17 17 16 16 16 15 15 14 13 12 12 11 11 11 12 11 10 11 11 10 9 9 8 8 7 7
13 14 14 14 15 15 15 15 13 12 13 14 15 16 16 17 17 17 16 16 16 16 15 15 15 13 13 12 12 12 11 11 11 11 10 11 10 10 9 8 7 7 6
12 13 13 14 14 14 15 15 14 12 12 12 12 13 15 15 16 16 16 16 16 15 15 15 15 13 13 11 12 11 11 11 11 11 10 9 9 9 8 7 7 6 6

GFSSE_850_temp_069.txt.gz
Temp
19 21 20 18 17 17 17 17 17 17 17 17 17 16 16 16 16 16 15 15 15 15 15 15 15 15 15 15 15 16 16 16 16 16 16 16 16 16 16 15 13 13 14
19 21 20 18 17 17 17 17 17 16 16 16 16 16 16 16 15 15 15 15 15 15 15 15 15 15 15 15 15 16 16 15 15 16 15 15 15 15 15 15 15 15 14
18 18 19 18 17 17 17 17 17 16 16 16 15 15 15 15 15 15 15 14 14 14 14 14 15 14 14 14 15 15 15 15 15 14 13 13 15 15 15 15 15 15 15
18 17 18 18 17 17 17 17 17 16 16 15 15 15 14 15 14 14 15 15 15 14 14 14 14 14 14 14 15 15 14 14 14 13 14 13 13 14 14 14 14 14 14
19 17 17 18 18 17 17 16 16 16 15 14 14 14 14 14 14 15 15 15 15 15 14 14 14 14 14 14 14 14 14 14 13 13 13 13 13 14 14 14 13 13 14
19 18 17 18 17 17 17 16 16 16 15 14 14 14 15 16 15 16 15 15 14 15 14 14 14 14 14 14 14 14 14 13 13 13 13 13 13 13 13 13 13 13 13
19 18 17 17 17 17 17 16 16 15 14 14 14 14 17 16 16 16 15 15 14 14 14 14 13 14 14 14 14 14 13 13 13 13 13 13 13 13 13 13 13 13 13
19 17 17 17 17 16 16 16 15 14 14 14 14 15 17 16 16 16 14 14 13 14 14 14 13 14 14 14 14 14 13 13 13 13 13 13 13 13 12 13 13 13 13
18 16 16 16 16 16 15 15 15 14 14 14 14 14 16 16 16 16 15 13 13 14 14 13 13 14 14 14 14 14 13 13 13 12 13 12 13 12 12 12 13 13 13
17 17 16 15 15 15 15 14 14 14 14 14 14 14 15 16 16 16 16 15 13 12 12 13 13 14 14 14 14 13 13 13 12 12 12 12 12 12 12 13 13 13 13
17 18 16 16 15 16 16 15 14 14 14 14 14 13 15 15 16 16 15 15 13 14 13 13 14 14 14 14 14 13 13 12 13 12 12 12 12 12 12 12 13 13 12
16 18 18 17 17 17 16 15 14 14 14 13 13 14 13 13 14 14 15 15 15 14 14 14 14 14 14 13 13 13 13 12 12 12 12 12 12 12 12 12 12 12 12
16 16 17 18 17 17 16 15 15 15 14 14 14 14 13 14 13 14 15 15 15 14 14 14 14 14 13 12 12 12 12 13 12 12 12 12 12 12 11 12 12 12 12
16 16 17 16 17 17 16 15 16 15 15 15 15 14 14 13 13 13 13 14 13 14 12 13 12 12 12 12 12 12 12 12 12 11 11 12 11 12 12 12 12 12 12
16 16 16 16 15 16 16 15 16 15 15 15 15 14 14 13 13 13 13 13 12 12 13 12 13 12 12 12 12 12 12 11 12 11 11 12 12 12 11 11 11 11 11
16 16 15 15 15 16 16 16 15 15 15 15 14 14 14 14 13 13 13 13 13 13 13 12 12 12 12 12 12 12 12 12 12 12 11 11 12 11 11 10 11 11 11
16 15 15 15 17 18 16 15 15 15 15 14 14 14 14 13 13 13 13 12 12 12 12 12 12 12 12 12 12 11 12 11 12 12 11 10 11 11 11 10 11 10 10
18 17 16 15 16 18 17 15 15 15 15 14 14 14 14 14 13 13 13 13 12 12 12 12 12 12 11 11 12 11 12 12 11 11 11 10 9 10 11 11 11 10 10
17 17 17 17 15 17 18 17 15 15 15 14 14 14 14 14 14 14 13 13 13 12 12 12 12 11 11 11 11 11 12 12 11 11 11 11 10 9 10 11 11 11 10
17 17 17 17 16 16 15 16 17 16 15 14 14 14 14 14 13 13 13 13 13 13 12 12 11 11 11 11 11 11 11 11 11 11 11 10 11 11 10 11 11 10 10
16 16 17 17 16 16 16 15 17 17 17 17 16 14 14 14 14 13 13 13 12 13 13 12 11 11 11 11 10 10 10 11 11 11 11 11 11 11 11 9 11 10 10
15 15 16 16 16 16 16 16 17 17 18 17 18 17 16 15 16 16 15 13 13 13 12 12 12 11 11 12 11 11 10 10 11 11 11 11 10 10 10 9 9 9 8
15 15 15 15 15 16 16 16 15 15 14 15 18 18 18 17 15 15 16 15 13 12 13 13 12 12 12 12 12 11 10 11 12 11 10 10 9 9 9 9 9 8 8
13 14 15 15 15 15 15 15 15 15 14 14 14 16 17 17 17 16 14 15 15 13 12 13 12 13 12 12 12 12 11 12 11 10 10 9 8 8 8 8 8 8 8
13 14 14 15 15 15 15 15 14 14 14 14 13 13 13 14 15 17 16 15 15 14 14 14 12 11 12 11 13 12 11 11 11 11 11 10 9 8 7 8 8 8 8
12 12 13 12 13 14 14 14 14 14 13 13 13 13 13 13 13 13 15 15 15 15 14 15 15 11 11 10 11 12 12 12 11 11 10 10 10 9 8 8 7 7 7

GFSSE_850_temp_072.txt.gz
Temp
19 21 20 19 18 18 18 18 17 17 17 17 16 16 16 16 15 15 15 15 15 15 15 14 15 15 15 16 16 16 16 16 16 16 16 16 16 15 15 14 14 14 14
20 21 20 19 18 18 17 17 17 17 17 17 16 16 16 16 15 15 15 15 15 15 15 15 15 15 15 15 16 16 16 15 15 15 15 15 15 15 15 14 14 14 14
20 20 20 19 18 17 17 17 16 16 16 16 16 15 15 15 15 15 15 15 15 14 14 15 15 15 15 15 15 15 15 14 14 13 14 14 15 15 15 15 15 14 14
19 20 20 18 18 17 17 17 16 16 16 15 15 15 14 15 15 14 15 15 15 14 14 14 15 15 15 15 15 15 14 14 13 13 13 13 14 14 14 14 13 14 14
18 19 19 18 17 17 17 16 16 16 15 15 14 14 14 14 15 15 16 16 15 15 14 14 14 14 14 15 15 14 14 13 13 13 13 13 13 14 14 14 13 13 13
18 16 18 18 17 17 17 16 16 15 14 14 14 14 15 15 15 16 16 15 15 15 14 14 14 15 14 15 14 14 13 13 13 13 13 13 13 13 13 13 14 14 14
18 17 18 18 17 17 17 16 16 15 14 14 14 16 17 16 16 16 15 14 13 14 14 14 13 14 14 14 14 14 14 13 13 14 13 13 13 13 13 14 14 14 14
19 18 18 17 17 17 16 16 15 14 14 14 13 16 17 17 16 15 14 14 14 14 14 13 13 13 14 14 14 14 13 13 13 13 13 12 13 12 13 13 13 13 13
18 18 17 17 16 16 16 16 15 14 13 13 13 15 16 16 16 16 15 14 14 14 14 13 13 14 14 15 14 14 13 13 13 12 12 12 13 12 12 13 13 13 13
18 17 17 16 16 15 15 15 15 14 14 13 13 14 16 16 16 16 16 15 14 14 14 14 14 14 14 15 14 14 13 13 12 12 12 12 12 12 12 13 13 13 13
17 17 15 15 16 15 15 14 14 14 14 13 13 13 16 17 17 16 16 16 14 14 15 14 14 14 15 15 14 14 13 12 12 12 12 12 13 12 12 13 13 13 13
18 18 17 15 15 16 16 15 15 14 14 14 14 14 15 16 16 16 16 17 16 16 15 15 15 15 15 14 14 14 13 12 12 12 12 12 13 13 13 13 13 13 12
18 18 18 17 17 16 16 16 16 16 15 14 14 15 15 13 14 15 16 16 16 16 15 15 15 15 14 14 13 13 13 12 12 12 12 12 13 13 12 12 12 12 12
17 18 18 18 17 17 16 16 15 15 15 14 14 15 15 14 14 15 16 16 16 16 16 15 15 14 14 12 12 12 12 12 12 12 12 12 13 13 12 12 12 13 12
16 17 18 17 17 17 16 16 16 15 15 15 15 14 14 14 14 15 15 15 15 15 14 14 14 13 13 12 12 12 12 12 12 12 12 12 13 13 12 12 12 13 12
17 17 17 17 17 17 16 16 16 16 15 15 15 15 14 14 14 14 13 13 14 13 13 12 13 12 12 12 12 12 12 12 12 12 12 12 12 13 12 12 12 12 12
17 16 16 16 16 17 16 16 16 15 15 15 15 15 15 14 14 14 13 13 14 13 13 13 12 12 12 12 12 12 12 12 12 12 12 12 12 12 13 12 12 12 12
17 17 16 17 17 17 17 16 16 15 15 15 15 15 15 15 15 14 14 13 13 14 13 12 12 12 12 12 12 12 12 12 12 12 11 12 12 12 12 12 12 12 11
18 17 17 17 17 17 17 16 15 15 15 15 15 15 15 15 15 15 14 14 13 13 13 13 12 12 12 12 12 12 11 12 12 12 12 11 12 12 12 12 12 12 11
18 18 17 16 16 17 17 17 15 15 15 15 15 15 15 14 15 14 15 15 14 13 13 13 12 12 12 12 11 11 11 12 12 12 11 11 11 11 12 12 12 11 11
17 17 17 17 17 16 16 16 16 16 16 15 15 15 15 14 14 14 15 14 15 14 14 13 13 12 12 11 11 11 10 11 11 11 11 11 11 11 11 12 11 11 11
17 16 16 17 17 17 16 15 16 16 17 17 16 16 15 15 15 15 15 15 14 13 13 14 13 12 11 11 11 10 10 10 11 12 11 11 11 11 10 10 11 11 10
15 15 15 16 16 16 16 16 16 16 16 16 17 18 17 15 16 15 16 15 15 14 13 12 14 13 12 11 11 11 10 11 12 12 12 11 10 10 10 9 9 10 10
14 14 15 15 15 15 16 16 16 16 15 16 17 16 16 17 17 15 15 14 15 14 13 14 13 15 13 11 10 11 11 11 11 11 11 11 10 9 9 9 9 8 7
12 13 14 14 14 15 15 15 15 15 15 14 14 14 14 15 15 15 15 14 13 13 12 12 12 12 14 13 11 11 11 11 11 11 12 11 10 9 8 8 8 7 6
11 12 12 12 13 14 14 14 14 14 15 15 14 13 13 13 13 13 13 13 13 12 13 13 12 12 12 13 11 11 11 11 11 10 10 11 10 9 7 6 6 6 5

GFSSE_850_temp_075.txt.gz
Temp
18 19 19 18 18 18 18 17 17 17 17 16 16 16 16 16 15 15 15 15 15 15 14 15 15 16 16 16 16 16 16 16 16 16 16 16 15 15 15 14 14 14 14
20 19 19 18 18 18 18 17 17 17 17 17 16 16 16 15 15 15 15 15 15 14 15 15 15 15 16 16 16 15 15 15 15 15 15 15 15 15 15 15 14 14 13
20 20 19 18 18 18 18 17 17 17 17 16 16 15 15 15 15 15 15 15 14 14 15 15 15 15 15 15 15 15 14 14 14 14 14 14 15 15 14 15 15 14 14
20 19 18 18 18 18 17 17 17 16 16 16 15 14 14 14 14 14 15 15 15 14 14 15 14 15 15 15 15 14 13 13 13 13 14 13 14 14 14 14 14 14 14
19 19 18 18 18 17 17 17 16 16 15 15 14 14 14 14 14 15 16 16 15 14 14 15 14 14 15 15 14 13 13 12 13 13 13 13 14 14 14 14 14 14 14
19 19 18 17 17 17 17 16 16 15 15 14 14 14 14 15 15 16 16 16 15 14 15 14 14 14 15 15 14 13 12 12 13 13 13 13 13 13 13 13 14 14 13
18 18 18 17 17 17 17 16 16 15 14 13 14 18 17 16 17 17 16 16 15 14 15 14 13 14 15 15 14 13 13 13 13 13 13 13 13 13 14 14 14 14 14
18 17 18 17 17 17 16 16 15 15 14 13 18 17 18 17 17 18 16 16 15 14 14 13 13 14 14 15 14 13 13 13 13 13 13 13 13 13 14 14 14 14 14
18 17 18 17 17 17 16 16 15 14 14 13 17 17 17 17 17 16 15 14 14 14 14 14 14 14 15 15 14 13 13 12 13 12 12 12 13 13 13 14 14 14 14
18 18 18 17 16 16 16 15 15 14 14 13 14 15 16 17 16 16 15 14 15 15 15 14 15 15 15 15 14 14 13 13 13 12 12 12 13 13 13 13 14 14 14
18 17 17 17 16 15 14 14 14 14 13 13 13 16 16 16 17 17 16 17 16 16 15 15 15 15 15 15 15 14 13 12 12 12 12 12 13 13 13 13 13 13 13
17 17 17 16 16 15 15 15 14 14 14 14 15 17 16 16 16 17 17 16 17 17 16 16 16 16 16 15 15 14 13 12 12 12 12 12 13 13 13 13 14 13 13
17 17 17 17 17 16 15 15 15 15 16 15 15 16 16 16 17 16 17 17 16 17 17 16 16 16 15 15 15 14 13 13 12 12 13 13 13 13 13 13 13 13 13
17 17 16 17 17 16 16 16 15 16 16 16 16 15 16 17 17 16 16 16 16 16 16 16 15 15 15 15 14 13 13 12 12 12 13 13 13 13 13 13 13 13 13
17 16 16 17 17 16 16 16 16 16 16 16 16 16 15 16 16 15 16 16 16 16 16 15 15 15 14 14 13 13 13 12 12 12 13 12 13 13 13 13 13 13 13
18 17 17 17 17 17 17 16 16 15 15 15 15 15 15 15 15 15 15 15 15 15 15 15 15 14 13 13 13 12 12 12 13 13 12 12 12 13 13 13 13 13 13
17 18 18 17 17 17 16 16 16 15 15 15 15 15 15 14 14 14 15 15 14 15 15 14 13 13 12 12 12 12 12 12 12 13 13 12 12 12 12 13 13 13 13
17 17 18 17 17 17 16 16 16 15 15 15 15 15 15 15 14 14 15 15 14 14 14 14 13 13 12 12 12 12 12 12 12 12 13 12 12 12 12 12 13 13 12
17 17 17 17 18 17 16 16 15 15 15 15 15 15 15 15 15 14 14 14 14 13 14 14 14 13 13 12 12 12 12 12 12 12 12 12 12 12 12 12 12 12 12
17 17 17 17 16 17 17 16 16 15 15 15 15 15 16 16 16 15 15 15 14 14 14 13 13 13 13 12 12 12 12 11 11 11 11 11 12 11 11 12 12 12 11
18 17 17 16 16 16 16 17 16 16 15 15 15 15 15 16 16 15 15 15 14 15 15 14 13 13 13 12 11 11 11 11 11 11 11 10 11 11 11 11 11 11 11
18 18 17 17 17 16 16 16 16 16 16 16 16 16 16 16 15 15 15 15 15 14 14 14 13 13 12 12 11 11 11 11 11 12 11 11 11 10 11 11 11 11 10
17 17 17 17 17 16 16 16 16 15 15 15 16 16 15 16 16 16 14 14 14 14 14 14 14 13 14 13 12 11 10 10 12 13 13 12 11 10 10 10 10 10 10
16 16 16 16 16 16 16 16 16 16 16 16 16 16 16 16 15 15 14 14 14 13 13 13 13 14 14 14 12 11 11 11 12 12 12 12 11 9 9 8 8 8 9
14 15 15 15 15 15 15 16 15 15 15 14 14 14 15 14 14 14 14 14 14 13 13 12 12 12 13 13 13 11 10 10 10 10 11 11 11 10 8 7 7 7 6
13 12 13 13 14 14 14 14 15 14 14 14 14 13 13 13 13 13 13 13 12 12 12 12 12 12 11 12 12 11 11 10 10 9 9 10 10 9 8 6 5 5 5

GFSSE_850_temp_078.txt.gz
Temp
18 19 18 18 18 18 18 18 17 17 17 17 16 16 16 16 15 15 15 15 15 16 15 15 16 16 16 16 16 16 15 16 16 16 16 16 15 14 14 14 14 14 14
20 19 19 18 18 18 18 17 17 17 17 17 16 16 16 15 15 15 15 15 14 15 15 15 15 16 16 16 16 15 15 15 15 15 15 15 15 15 15 14 14 14 14
20 19 19 18 18 17 17 17 17 17 17 16 16 16 15 15 15 15 15 14 15 15 15 15 15 16 15 15 15 14 14 14 14 14 14 15 15 15 15 15 14 14 14
20 19 19 18 18 17 17 17 17 17 16 16 16 15 15 15 15 15 15 15 14 14 15 14 15 15 15 14 14 13 13 14 14 14 14 14 14 14 14 14 14 14 14
19 19 18 18 18 17 17 17 16 16 16 16 15 15 14 15 15 16 16 15 14 14 15 14 15 15 15 14 13 13 13 13 14 13 13 14 13 13 13 14 14 14 14
19 19 18 17 17 17 17 16 16 16 15 15 15 14 14 16 16 17 16 15 15 14 14 14 14 15 15 14 13 13 13 13 13 13 13 13 13 13 14 14 14 14 14
18 18 17 17 17 17 17 16 16 15 15 15 16 17 19 18 18 17 17 16 14 14 14 14 14 15 14 14 13 13 13 13 13 13 13 13 13 14 14 14 14 14 14
18 18 17 17 16 16 16 16 15 15 14 17 18 18 19 19 18 18 17 16 15 15 14 14 15 15 15 14 14 13 13 13 13 13 13 13 14 14 14 14 15 15 14
18 18 16 16 16 16 16 16 15 15 15 16 17 17 18 18 18 18 18 17 16 15 15 15 15 15 15 15 14 14 14 13 13 13 13 13 14 14 14 14 15 15 14
17 18 17 16 16 16 16 15 15 15 15 17 17 16 17 17 18 18 17 16 16 15 15 15 15 15 16 15 15 14 14 14 13 13 13 13 14 14 14 14 14 14 14
17 17 17 17 16 16 15 15 14 14 15 17 17 17 17 16 16 17 17 15 14 15 14 15 15 15 16 15 15 14 14 14 14 13 13 13 13 14 14 14 14 14 14
17 17 17 16 16 15 14 14 14 14 14 16 18 18 18 17 17 16 16 16 14 15 15 15 15 15 15 15 15 14 14 13 13 13 13 13 13 14 14 14 14 14 14
17 17 16 16 16 15 14 14 15 16 16 17 17 17 17 17 17 17 17 17 16 17 16 15 15 15 15 15 14 14 13 13 13 13 13 13 13 13 13 14 14 14 14
17 17 16 16 16 16 15 15 16 16 16 16 17 16 16 16 16 17 17 17 17 16 16 16 15 15 15 15 14 14 13 13 13 13 12 13 13 13 13 14 13 13 13
17 17 16 16 16 16 16 16 16 16 16 16 16 16 15 16 17 16 16 16 16 16 16 16 15 15 15 14 14 14 13 12 13 12 12 13 13 13 13 13 13 13 13
17 17 17 16 16 16 16 16 16 16 16 16 16 16 16 16 16 16 16 16 16 16 16 16 15 15 14 14 14 14 13 13 12 12 12 12 12 13 13 13 13 13 13
17 16 16 17 16 16 16 16 16 16 16 16 16 16 16 16 16 16 15 15 15 15 15 15 15 14 13 13 13 13 12 12 12 12 12 12 12 12 12 12 12 13 13
17 16 16 16 17 17 16 16 16 15 15 15 15 15 15 15 15 15 15 15 15 15 15 14 14 14 14 13 13 12 12 12 12 12 12 12 12 12 12 12 12 12 12
18 17 17 16 16 16 16 16 16 16 15 15 15 15 15 15 15 15 16 15 15 15 14 14 14 13 13 13 13 12 12 12 12 12 12 12 12 12 12 11 11 11 11
17 17 17 17 17 16 16 16 16 15 15 15 15 15 15 15 15 16 16 15 15 15 14 14 13 13 13 13 12 12 12 12 12 11 12 12 12 12 11 11 11 11 11
18 17 17 17 17 16 16 16 16 16 15 15 15 15 15 15 15 15 15 15 15 15 15 14 13 13 13 13 12 12 12 12 12 11 11 12 12 12 11 11 11 11 10
18 18 17 17 16 16 16 16 16 16 16 15 15 15 15 15 16 15 15 15 15 15 14 14 13 13 13 12 12 12 11 11 12 12 12 11 11 11 11 11 10 10 10
17 17 17 17 16 17 16 16 16 15 15 15 15 15 15 16 16 16 15 16 15 14 14 14 14 13 13 13 12 11 11 11 12 13 13 12 11 11 10 10 10 9 9
16 17 17 17 16 16 16 16 16 16 16 16 16 15 15 15 15 15 15 15 14 14 13 13 13 12 12 12 12 11 11 11 11 12 12 12 12 11 10 9 8 7 7
15 16 16 16 16 16 16 16 16 15 15 15 15 15 15 15 15 14 14 14 13 13 13 13 12 12 11 12 12 12 12 11 11 10 10 11 10 10 11 10 9 8 6
14 15 15 16 16 16 15 15 15 14 15 14 14 15 15 15 14 13 13 13 13 13 12 12 12 12 12 12 11 12 11 11 11 11 11 10 10 10 10 9 9 8 7

GFSSE_850_temp_081.txt.gz
Temp
18 17 18 18 18 18 17 17 17 17 17 17 17 16 16 16 16 16 16 15 15 15 15 16 16 16 16 16 16 16 16 16 16 16 16 15 15 14 14 13 14 14 14
19 18 18 18 18 18 18 17 17 17 17 17 16 16 16 15 15 15 15 15 15 15 15 16 16 16 16 16 16 16 16 16 16 16 15 15 15 14 14 14 14 14 14
19 18 18 18 18 18 18 17 17 17 17 17 16 16 15 15 15 15 15 15 16 15 15 16 16 16 16 16 15 15 15 15 15 15 15 15 15 15 14 14 14 14 14
19 18 18 18 18 18 18 17 17 17 16 16 16 16 16 15 15 15 15 15 15 15 15 15 16 16 15 15 15 14 14 14 14 14 14 14 14 14 14 14 13 14 14
19 19 18 18 18 18 17 17 17 16 16 16 15 16 16 16 16 16 15 15 15 15 15 15 15 15 15 15 15 14 14 14 13 14 13 13 13 13 14 14 14 14 14
19 19 17 18 18 17 17 17 16 16 15 15 15 16 16 16 16 16 15 15 15 15 14 14 15 15 15 15 15 15 14 14 13 13 13 13 13 14 14 14 14 13 13
19 18 17 17 17 17 17 16 15 15 14 15 15 17 18 17 17 17 16 15 15 15 15 14 15 15 15 15 15 14 14 13 13 13 13 13 13 14 14 14 15 15 14
19 18 17 17 17 17 17 16 15 15 14 14 16 19 19 19 19 18 17 16 15 15 15 15 15 15 15 14 14 14 13 13 13 13 13 13 14 14 14 14 14 14 14
18 17 17 16 16 16 16 16 16 15 15 15 16 17 19 19 19 18 17 16 15 15 15 15 15 15 14 14 14 13 13 13 13 13 14 14 14 14 14 14 15 14 14
17 17 16 16 16 16 16 16 15 15 15 17 18 18 18 18 18 18 18 16 15 15 15 15 15 15 14 14 13 13 13 13 13 13 14 14 14 14 14 14 14 14 14
16 16 16 16 16 16 15 15 15 15 16 17 18 19 18 18 18 17 16 15 15 15 15 15 15 15 15 14 13 13 14 13 13 13 13 13 13 14 14 14 14 14 14
17 16 16 16 16 16 15 15 15 15 15 17 18 18 18 18 18 18 18 16 15 15 14 15 15 14 15 14 14 14 13 13 13 13 13 13 13 13 14 14 14 14 14
17 17 17 16 16 16 15 15 14 15 16 17 17 17 17 17 17 17 17 17 16 16 16 16 15 15 15 15 14 14 13 13 13 13 13 12 12 13 13 13 13 14 14
17 17 16 16 16 16 15 14 14 15 16 16 16 16 16 17 17 17 17 16 16 16 16 16 15 15 15 15 15 14 13 13 13 13 13 13 12 12 13 13 13 13 14
18 17 16 16 15 15 15 15 15 15 15 15 16 16 16 16 16 16 16 16 16 16 16 16 15 15 15 15 15 14 14 13 13 13 13 12 12 12 12 12 13 13 13
18 17 16 16 15 15 15 16 16 15 15 15 15 15 16 16 16 16 16 16 16 16 16 16 15 15 15 15 14 14 14 13 13 13 12 12 12 12 12 12 12 13 13
18 17 17 16 16 16 16 16 15 16 15 15 15 15 15 15 15 15 15 15 15 15 15 15 15 15 15 14 14 14 13 13 13 13 12 12 12 12 12 12 12 12 12
17 17 16 16 16 16 16 16 16 15 15 15 15 15 15 15 15 15 15 15 15 15 15 15 15 14 14 14 14 13 13 13 12 12 12 12 12 12 12 12 11 11 11
17 16 16 16 16 16 16 16 16 15 15 16 15 15 15 15 15 15 15 15 15 15 15 14 14 14 14 13 13 13 12 12 12 12 12 12 12 12 12 12 11 11 11
17 17 16 16 16 16 16 16 15 15 15 15 16 15 15 15 15 15 15 15 15 15 15 14 14 14 13 13 13 12 12 12 12 12 12 12 12 12 11 11 11 11 10
17 17 17 16 16 15 15 15 15 15 15 16 16 16 15 15 15 15 16 15 15 15 15 14 14 14 13 13 12 12 12 12 12 12 12 12 12 12 11 11 11 11 10
17 17 17 17 16 16 15 15 15 15 15 15 15 16 15 15 15 15 15 15 15 14 14 14 14 13 13 13 12 12 12 12 12 12 13 12 12 11 11 11 10 10 10
17 17 17 17 17 16 16 16 16 16 15 15 15 15 16 16 16 15 15 15 15 14 14 14 13 13 13 13 12 11 11 12 12 13 13 12 12 12 11 10 10 9 9
17 17 17 16 16 16 17 16 16 15 15 16 16 15 15 15 15 15 14 14 14 14 13 13 13 13 12 12 12 12 11 10 10 11 11 12 12 12 11 11 11 11 9
16 16 16 16 16 16 16 16 16 16 16 16 16 15 15 15 15 14 14 14 14 14 13 13 13 12 12 12 12 12 12 11 11 10 9 10 11 11 11 10 10 10 9
15 15 15 15 15 16 16 15 15 15 15 15 15 15 15 15 15 14 14 14 14 13 13 13 12 12 11 12 11 11 11 10 11 10 10 10 9 10 9 9 9 9 9

GFSSE_850_temp_084.txt.gz
Temp
18 18 18 18 18 18 18 17 17 17 17 17 17 16 16 16 16 16 16 16 16 16 16 16 16 16 16 16 16 16 16 16 16 16 15 15 14 14 14 14 14 14 14
19 18 18 18 18 18 18 17 17 17 17 17 17 16 16 16 16 16 16 16 16 16 16 16 16 16 16 16 16 16 16 16 16 15 15 15 14 14 14 14 14 14 14
19 18 18 17 18 18 17 17 17 17 17 17 16 16 16 15 15 15 15 16 16 16 16 16 16 16 16 16 16 16 15 15 15 15 15 15 14 14 14 14 14 14 14
19 18 17 17 18 18 17 17 17 17 17 16 16 16 16 15 15 15 15 15 15 15 16 16 16 16 16 15 15 15 14 14 14 14 14 14 13 13 14 14 13 14 13
19 17 17 17 17 17 17 17 17 17 16 16 16 16 16 16 15 15 15 15 15 15 16 16 16 16 15 15 15 14 14 14 14 13 13 13 13 13 13 14 14 14 14
18 17 16 17 17 17 17 17 17 16 16 16 16 16 17 16 16 15 15 15 15 15 15 16 16 15 15 14 14 14 14 14 14 13 13 13 14 14 14 14 14 13 13
18 16 16 16 16 17 17 17 16 16 15 15 15 16 17 16 17 16 15 15 15 14 15 15 15 15 15 14 14 14 14 14 13 13 13 13 13 14 15 14 15 15 13
19 16 16 16 16 17 17 16 15 15 14 14 14 17 18 17 17 17 16 15 15 15 15 15 15 15 15 14 14 14 14 13 13 13 13 13 14 14 14 14 15 15 14
17 17 16 16 16 16 16 16 15 15 15 15 15 16 17 18 18 17 16 15 15 15 15 15 15 15 15 14 14 14 13 13 13 13 13 13 14 14 14 14 14 14 14
17 16 16 16 16 16 16 16 15 15 15 15 16 17 17 17 18 17 17 16 15 15 15 15 15 15 14 14 14 13 13 13 13 13 13 13 13 14 14 14 14 14 14
16 16 16 16 16 16 16 15 15 15 15 16 17 18 18 18 18 18 16 14 15 15 15 14 14 15 14 14 14 14 13 13 13 13 13 13 13 13 14 14 14 14 14
16 16 16 16 16 16 15 15 15 15 15 16 17 18 18 18 18 18 17 16 15 15 15 15 15 15 15 15 14 14 14 13 13 13 13 13 13 13 13 13 13 13 13
16 16 16 16 16 16 16 15 15 15 16 16 16 17 17 17 18 17 17 17 16 15 15 15 15 15 15 15 15 14 14 14 13 13 13 13 12 13 13 13 13 13 13
17 16 16 16 16 16 16 15 15 15 16 16 16 16 16 17 17 17 17 16 16 16 16 16 15 15 15 15 15 14 14 13 13 13 13 13 12 12 12 12 12 13 13
17 17 17 16 16 16 16 15 15 15 16 16 16 16 16 16 16 16 16 16 16 16 16 15 15 15 15 15 15 14 14 13 13 13 13 13 12 12 12 12 12 12 12
17 17 17 16 16 15 15 15 15 16 16 15 15 15 15 15 15 16 16 16 16 16 15 15 15 15 15 15 15 14 14 13 13 13 13 13 12 12 12 12 11 12 12
18 18 17 16 15 15 15 15 15 15 15 15 15 15 15 15 15 15 15 15 15 15 15 15 15 15 15 15 15 14 14 13 13 13 13 12 12 12 12 11 11 11 11
17 18 17 16 16 15 15 15 15 15 15 15 15 15 15 15 15 15 15 15 15 14 14 14 14 14 14 14 14 14 14 13 13 13 13 12 12 12 12 11 11 11 11
17 17 17 16 16 16 16 16 15 15 15 15 15 15 15 15 15 15 15 15 14 14 14 14 14 14 14 14 13 13 13 13 13 13 13 12 12 12 12 11 11 11 11
17 17 16 17 17 17 16 15 15 15 15 15 15 15 15 15 15 15 15 15 14 14 14 14 14 14 14 13 13 13 13 13 13 13 13 12 12 12 11 11 11 11 10
17 17 16 16 16 16 16 16 16 16 16 15 15 15 15 16 15 15 15 15 15 14 14 14 13 13 14 13 12 13 13 12 12 12 12 12 12 12 11 11 11 10 10
17 17 16 16 15 15 15 15 16 16 16 15 15 15 15 16 16 15 16 15 15 14 14 14 14 13 13 13 12 12 12 12 13 12 12 12 13 12 12 12 11 10 10
17 17 17 16 15 15 15 15 15 15 15 15 15 15 16 17 16 16 15 15 15 14 14 14 13 13 13 13 12 11 11 12 12 12 13 12 12 12 12 12 11 11 11
17 17 17 17 16 16 15 15 15 15 16 16 16 16 15 15 15 15 15 14 14 14 14 14 13 13 12 12 12 12 12 12 11 11 11 11 11 11 11 10 10 10 10
17 17 17 17 16 16 16 15 15 15 15 15 15 15 15 15 15 15 14 14 14 14 14 14 13 13 12 12 11 12 12 11 11 10 10 10 10 10 10 10 10 10 9
15 15 15 16 16 16 16 15 16 16 16 15 15 15 15 15 15 14 14 14 14 14 14 14 13 13 12 11 11 11 11 10 10 9 10 9 9 9 10 9 9 8 8

GFSSE_850_temp_087.txt.gz
Temp
18 18 17 17 17 17 17 17 17 17 17 17 17 16 16 16 16 16 16 16 16 16 16 17 16 16 16 16 16 16 16 16 16 15 15 14 14 14 14 14 14 15 15
19 18 18 17 17 17 17 17 17 17 17 17 17 16 16 16 16 17 16 16 16 16 17 16 16 16 16 16 16 16 16 16 16 15 15 15 15 14 14 14 14 14 15
19 18 17 17 17 17 17 17 17 17 17 17 16 16 16 16 16 16 16 16 16 16 16 16 16 16 16 16 16 16 15 15 15 15 14 14 14 14 14 14 14 14 14
20 18 17 17 17 17 17 17 17 17 17 16 16 16 16 15 15 15 16 16 16 16 17 17 16 16 16 16 15 15 15 14 14 14 13 13 13 14 14 14 14 14 14
19 18 17 17 17 17 17 17 17 17 16 15 15 16 15 15 15 15 15 15 15 16 16 16 16 16 15 15 15 14 14 14 13 13 13 13 14 14 14 14 14 14 14
19 18 17 17 17 17 16 16 16 16 16 15 16 16 16 16 15 15 15 15 15 16 16 16 16 15 15 15 14 14 14 13 13 13 13 13 14 14 15 14 14 13 13
18 17 17 17 17 17 16 16 16 15 15 15 16 16 16 16 16 15 15 15 15 15 16 15 15 15 15 15 14 14 13 13 13 13 13 13 14 14 15 15 15 14 14
17 16 16 16 16 17 16 16 16 15 14 14 14 16 16 17 17 15 15 15 15 15 15 15 15 15 15 15 14 14 14 14 13 13 14 14 14 14 14 14 14 15 15
17 16 16 16 16 16 17 16 16 15 14 14 14 16 16 17 17 16 15 15 15 15 15 15 15 15 15 14 14 14 14 14 14 14 14 14 14 14 14 14 14 14 14
16 16 16 16 16 16 16 16 15 15 15 15 16 17 17 17 17 16 15 15 15 14 14 15 15 15 15 14 14 14 14 14 14 13 13 13 13 13 14 14 14 14 14
15 15 15 16 15 16 16 16 15 15 15 16 17 18 18 18 18 17 15 14 14 15 15 15 15 15 15 15 14 14 14 14 14 13 13 13 13 13 13 13 14 14 14
15 15 15 15 15 15 16 16 15 15 16 17 17 18 18 18 18 17 16 15 15 15 15 15 15 15 15 15 15 14 14 14 14 13 13 13 13 13 13 13 13 13 13
15 15 15 15 15 15 16 16 16 16 16 17 17 18 18 17 17 17 16 16 15 15 15 15 15 15 15 15 15 14 14 14 13 13 13 13 12 13 13 13 13 13 13
15 15 16 15 15 15 15 16 16 16 16 17 17 17 17 17 17 17 17 16 16 15 15 15 15 15 15 15 15 14 14 14 13 13 13 12 12 12 12 12 12 12 12
16 16 15 15 15 15 15 15 15 16 16 16 16 16 16 17 16 16 16 16 16 16 15 15 15 15 15 15 15 14 14 14 13 13 13 13 12 12 12 12 12 12 12
17 16 16 16 16 15 15 15 15 15 15 15 15 15 15 15 15 15 16 16 16 15 15 15 15 15 15 15 14 14 14 14 13 13 13 12 12 12 12 12 11 11 11
16 16 16 16 16 15 15 15 15 15 15 15 15 15 15 15 15 15 15 15 15 15 15 15 15 15 15 14 14 14 14 14 13 13 13 13 12 12 12 12 11 11 11
16 16 16 16 16 15 15 15 15 15 15 15 15 15 15 15 15 15 15 15 15 14 15 15 14 15 14 14 14 14 14 13 13 13 13 13 12 12 12 11 11 11 10
16 17 16 16 16 16 15 15 15 15 15 15 15 15 15 15 15 15 15 15 14 14 14 14 14 14 14 14 13 13 13 14 13 13 13 13 12 12 12 11 11 11 10
16 16 17 16 16 16 16 15 15 14 15 15 15 15 15 15 15 15 15 15 14 14 14 14 14 14 14 13 13 13 13 13 13 13 13 13 12 12 12 11 11 11 10
17 16 16 16 16 16 16 16 15 15 15 15 15 15 15 15 15 15 15 15 15 15 14 14 14 13 14 13 13 13 13 13 13 13 13 13 13 12 12 12 12 11 10
17 17 17 16 17 18 17 17 16 16 16 16 16 15 15 15 15 15 15 15 15 14 14 14 14 14 13 13 12 12 12 13 13 13 13 13 13 13 12 12 12 11 11
17 17 17 17 17 17 17 16 16 15 15 16 16 16 16 16 16 15 15 15 15 14 15 14 14 13 13 13 12 12 11 12 12 12 12 12 12 12 11 11 11 11 11
17 17 17 17 17 16 16 16 16 16 16 16 15 15 15 15 15 15 15 15 15 15 15 15 14 14 13 13 12 13 12 11 11 11 11 11 11 11 11 10 10 10 10
16 17 17 17 17 16 16 16 16 15 15 15 15 15 15 15 15 15 15 15 15 14 14 14 14 14 13 12 12 11 11 11 11 10 10 10 10 11 10 10 10 9 10
16 16 17 17 16 16 16 15 15 15 15 15 15 15 15 15 15 15 15 15 14 14 14 14 13 14 13 12 12 12 11 10 10 10 10 10 9 9 9 9 9 9 9

GFSSE_850_temp_093.txt.gz
Temp
18 19 18 18 17 17 17 17 17 17 17 17 17 17 17 16 16 15 15 15 16 16 16 16 16 16 16 16 16 16 16 15 15 15 15 15 15 14 14 14 13 15 14
17 18 18 18 17 17 17 17 17 17 17 16 17 16 17 16 16 16 15 15 16 16 17 17 16 16 16 16 16 16 16 16 15 14 14 14 14 14 14 15 15 15 15
17 16 18 17 17 17 17 17 17 17 16 16 16 16 16 16 16 16 16 17 16 17 17 17 16 16 16 16 16 16 16 15 14 14 13 14 14 14 15 14 14 14 14
17 16 16 17 17 17 17 17 17 16 16 16 16 16 16 16 16 16 16 16 17 17 17 16 16 16 16 15 15 15 15 14 14 13 13 13 13 14 14 14 14 14 14
17 16 16 17 17 17 17 17 17 16 16 15 15 15 15 16 16 16 17 17 17 16 16 16 16 16 15 15 15 15 14 14 14 13 13 13 13 14 14 14 14 14 14
17 17 16 16 16 17 17 17 16 16 16 15 15 15 15 15 15 16 16 16 16 16 16 16 16 15 15 15 14 14 14 13 13 13 13 14 15 15 15 15 14 14 14
18 16 16 16 16 16 16 17 16 16 15 15 15 15 15 15 15 15 16 16 16 16 16 16 16 15 15 15 14 14 14 13 13 13 13 14 15 15 15 15 15 15 14
18 17 16 16 16 16 16 16 16 16 15 14 15 16 15 15 15 15 15 16 16 16 16 16 15 15 15 15 15 15 14 13 13 12 13 14 15 15 15 15 15 15 15
18 17 15 16 16 16 16 16 16 15 15 15 17 16 16 15 15 15 15 16 16 16 16 15 15 15 15 15 15 15 15 14 13 12 13 14 14 14 15 15 15 15 15
17 16 16 15 16 16 16 15 15 15 15 14 15 16 16 15 14 14 15 15 15 15 16 15 16 15 15 15 15 15 14 13 13 13 13 14 14 14 14 14 14 14 15
16 16 16 16 16 15 15 15 15 15 14 15 16 16 17 16 15 13 13 13 14 15 15 16 16 16 15 15 15 15 14 13 13 13 13 14 14 14 14 14 14 14 14
17 16 16 16 16 15 16 15 15 15 15 15 16 17 15 14 14 14 14 14 14 15 15 15 15 16 15 14 15 14 13 13 13 12 13 14 14 13 13 13 13 13 13
16 16 16 16 16 16 15 15 14 14 15 15 14 14 15 14 15 14 14 14 13 14 15 15 15 15 13 13 13 13 13 13 13 13 13 14 14 13 13 13 13 13 13
16 16 16 16 16 15 15 15 15 15 15 15 14 14 14 14 15 14 14 13 13 14 14 13 13 13 14 14 13 13 13 13 13 13 13 14 14 13 13 13 12 12 12
16 15 15 15 15 15 15 15 15 15 15 15 14 14 14 14 14 14 14 14 13 13 13 13 13 13 13 13 13 14 14 13 13 13 12 13 13 13 13 12 12 12 12
16 15 15 15 15 15 15 15 15 15 15 15 14 14 14 14 14 14 14 14 14 13 13 13 13 13 13 13 13 13 14 14 14 13 13 13 13 13 13 12 12 12 12
15 15 15 15 15 15 15 15 15 14 15 14 14 14 14 14 14 14 14 13 13 13 13 13 13 14 13 13 13 13 13 13 13 13 13 13 12 13 13 13 12 11 11
15 15 14 15 15 15 15 15 15 15 14 14 14 14 14 14 14 14 14 14 13 13 13 13 13 13 13 13 13 13 14 14 13 13 12 13 13 13 13 13 12 12 11
16 15 15 15 15 15 15 15 14 14 14 15 15 14 14 13 13 14 14 13 13 13 14 14 13 13 13 13 13 13 13 13 13 13 14 13 12 13 13 11 12 12 11
15 15 15 15 16 16 15 15 15 15 14 15 14 14 14 14 13 14 13 13 13 13 14 14 13 13 14 13 13 14 14 14 13 13 13 12 12 12 13 12 12 12 12
17 15 15 15 15 15 15 15 15 15 14 14 14 14 14 14 13 13 13 13 13 13 13 13 13 14 14 14 14 14 14 14 14 13 13 12 12 12 13 12 12 12 10
17 16 16 15 15 16 15 15 15 15 15 15 15 15 15 14 14 14 14 14 13 13 13 13 13 14 14 13 13 12 13 14 13 13 13 13 12 12 12 12 11 11 11
17 16 16 15 15 16 16 15 14 14 15 15 15 15 15 15 15 15 15 15 14 14 14 14 14 14 14 13 13 13 12 13 13 13 13 12 12 12 12 11 11 11 11
16 16 16 15 15 15 15 15 15 15 15 15 15 14 15 15 15 15 15 15 15 15 15 14 14 14 14 13 12 13 13 12 12 13 12 12 12 11 11 11 10 10 10
15 15 15 16 15 15 15 15 15 15 14 14 14 14 15 15 15 15 14 15 15 15 15 14 14 14 14 13 13 12 13 12 12 12 12 12 11 11 10 10 10 9 9
15 15 15 16 15 15 15 15 13 14 15 14 14 14 14 15 15 15 15 15 15 15 15 14 14 14 13 13 13 12 12 12 11 11 11 10 10 10 10 10 9 9 9

GFSSE_850_temp_096.txt.gz
Temp
19 19 18 18 18 17 17 17 17 17 17 17 17 17 17 16 16 16 16 15 16 16 17 17 17 17 17 17 16 15 14 15 14 14 14 14 14 14 15 15 15 15 14
19 19 18 18 17 17 17 17 17 17 17 17 17 17 16 16 15 15 15 15 16 16 17 17 17 17 17 16 16 15 15 14 14 14 14 14 14 14 14 14 14 15 15
19 18 18 18 17 17 17 17 17 16 16 16 17 17 16 16 16 15 15 16 17 17 17 16 17 16 16 16 16 15 14 13 13 14 13 14 14 14 14 14 14 14 15
19 18 18 17 17 17 17 17 16 16 16 16 16 17 16 16 16 16 16 16 17 17 17 16 16 16 16 15 15 14 14 14 13 13 13 14 14 14 14 14 14 14 14
17 18 18 17 17 17 17 17 16 16 16 16 16 16 16 16 16 16 17 17 17 17 16 16 16 15 15 15 14 14 14 13 13 14 14 15 15 15 14 14 14 13 13
16 17 17 17 17 17 17 16 16 16 16 16 16 15 15 16 16 16 16 17 17 16 16 15 15 15 15 15 14 14 14 13 13 15 15 16 16 15 15 15 14 14 14
17 17 17 16 16 16 16 16 16 16 16 16 15 15 15 15 16 16 17 17 16 16 16 16 16 15 15 15 14 14 13 13 14 15 15 15 16 16 15 15 15 15 15
17 16 16 16 16 16 16 16 16 15 15 15 16 15 15 15 16 16 17 17 16 16 16 16 16 16 15 15 15 14 14 13 13 14 15 15 15 15 15 15 15 15 15
18 17 16 16 16 16 16 16 16 15 14 14 16 15 15 15 15 16 16 16 16 16 16 16 16 16 16 15 15 15 14 14 13 14 14 15 15 15 15 15 15 15 15
18 17 16 16 16 16 16 15 15 14 14 14 15 15 15 15 15 15 15 16 16 16 16 16 16 16 16 15 15 15 14 13 13 13 14 14 15 15 15 15 15 15 15
17 17 16 16 16 16 16 15 15 14 15 15 15 15 15 15 14 15 14 15 15 16 16 16 16 16 16 15 15 15 14 13 13 13 14 14 14 14 14 14 14 14 14
17 16 16 16 16 16 16 16 15 15 15 15 16 16 16 16 15 14 15 15 15 15 16 16 16 16 15 15 15 15 14 13 13 13 14 14 14 14 14 14 14 14 13
17 16 17 16 16 15 16 15 15 15 15 15 16 15 14 14 15 15 15 14 16 16 16 16 15 15 15 14 14 14 13 13 13 13 13 14 14 14 14 14 13 13 13
17 17 17 16 16 16 16 15 15 15 15 14 14 15 14 14 15 14 15 16 16 16 15 16 14 14 15 15 14 14 13 13 13 13 13 13 14 14 14 13 13 13 13
17 17 17 16 16 16 16 16 15 15 15 15 15 15 15 14 15 14 14 14 15 14 14 14 13 13 14 14 14 14 14 14 13 13 14 13 13 13 13 13 13 12 12
16 17 17 16 16 17 15 15 15 16 15 15 15 15 14 14 14 14 14 14 14 14 13 13 13 14 13 13 13 13 14 14 14 14 13 13 13 13 13 13 13 12 12
16 16 16 16 16 16 16 15 15 15 15 15 15 15 15 14 14 14 14 14 14 14 14 14 13 14 14 13 14 13 13 13 13 14 14 13 13 14 13 13 13 12 12
17 16 16 16 16 15 15 15 14 15 15 15 14 14 15 14 15 15 14 14 14 13 14 14 14 15 15 14 14 14 13 14 14 14 13 13 13 13 13 13 12 12 12
16 16 15 16 16 15 15 15 14 14 15 14 14 14 14 14 14 14 15 14 14 14 14 14 14 14 14 14 14 14 14 14 14 14 13 13 13 12 13 13 12 12 12
16 16 16 15 15 15 15 15 14 15 14 15 15 15 14 14 14 14 13 13 13 13 14 14 14 14 14 14 14 14 14 14 14 14 14 13 12 12 13 13 12 12 12
16 15 16 16 16 14 14 15 15 15 15 14 14 15 15 15 14 14 14 13 13 13 14 14 14 14 14 14 14 14 14 14 14 14 14 13 12 12 12 12 12 11 11
16 16 16 16 16 16 16 16 15 15 15 15 15 14 15 15 14 13 14 13 13 13 13 13 13 14 14 14 14 13 13 14 14 14 13 12 12 12 12 12 11 11 11
15 15 16 16 16 16 16 15 15 14 14 14 14 15 14 14 14 14 14 14 14 13 13 14 14 14 14 14 13 13 13 13 13 13 13 13 12 12 12 11 11 10 10
15 15 16 15 15 16 15 15 15 15 15 14 14 13 14 14 14 14 14 14 14 14 14 14 14 15 14 14 13 13 12 12 12 12 12 12 12 11 11 10 10 10 10
15 15 16 15 15 15 15 15 14 14 14 14 14 14 13 13 14 14 14 14 15 15 14 14 13 13 14 13 13 13 13 12 12 11 11 11 11 11 10 10 9 9 9
15 15 16 16 15 15 15 15 14 14 14 13 13 13 14 14 13 13 13 13 14 14 14 14 14 13 14 14 13 12 12 12 12 11 11 11 10 10 10 9 9 9 9

GFSSE_850_temp_102.txt.gz
Temp
17 18 17 17 17 17 17 17 17 17 17 17 16 16 17 17 16 16 16 16 16 17 17 17 16 15 15 15 15 15 14 15 15 15 15 14 14 15 15 14 14 14 14
17 18 17 17 17 17 17 17 17 17 17 16 16 16 16 16 16 16 16 16 17 17 17 17 16 15 15 14 14 14 14 15 15 15 14 14 14 15 15 15 15 14 14
18 17 17 17 17 17 17 17 17 17 17 16 15 16 15 15 16 16 16 17 17 17 17 17 16 15 14 14 14 14 14 15 15 15 14 14 14 14 14 15 15 15 14
18 16 17 17 17 17 17 17 17 17 17 17 15 15 15 16 16 16 17 17 17 17 17 16 15 14 14 14 14 14 15 15 15 15 15 15 15 14 14 14 14 14 14
17 16 16 17 17 17 17 17 17 17 17 17 17 16 16 16 16 17 17 17 17 16 16 15 14 14 14 14 14 15 15 16 16 16 16 16 16 15 15 15 15 13 13
17 16 16 17 16 16 16 17 16 17 17 16 16 17 17 17 17 17 17 17 16 16 16 15 14 14 13 14 15 15 15 16 16 16 16 16 16 16 16 16 16 15 14
17 16 16 16 16 16 16 16 16 16 16 16 17 17 17 18 17 17 17 16 16 16 16 15 15 14 14 15 15 15 15 15 16 16 16 16 16 16 16 16 15 15 15
17 16 16 16 16 16 16 16 16 16 16 16 16 17 17 17 17 17 17 17 16 16 16 16 15 15 15 15 16 15 15 15 15 15 15 16 15 15 15 15 15 15 15
17 16 16 15 15 16 16 16 16 15 15 15 16 17 17 17 17 17 17 17 17 16 17 16 16 15 15 15 15 15 15 15 15 15 15 15 15 15 15 15 15 15 15
17 16 16 15 15 15 15 15 15 15 15 15 15 16 17 17 17 17 17 17 17 17 17 16 16 16 15 15 14 14 15 15 14 14 15 15 15 15 15 14 14 14 14
16 16 15 15 15 15 15 15 15 14 15 15 15 16 17 17 17 17 17 17 16 16 17 16 16 16 16 15 15 14 14 14 14 14 14 14 14 14 14 14 14 14 14
16 15 15 15 15 15 15 15 15 15 15 15 15 15 16 17 17 17 17 17 17 17 16 16 16 16 16 15 14 14 14 14 14 14 14 14 14 14 14 14 14 14 13
15 15 15 15 15 15 15 14 14 15 16 16 16 16 16 16 16 17 17 17 17 17 17 17 16 16 16 15 15 14 14 14 14 14 14 14 14 14 14 14 14 13 13
16 16 16 15 15 15 15 14 15 15 15 16 16 16 16 16 16 16 17 17 17 17 17 17 16 16 15 15 15 15 15 15 15 15 14 14 14 14 14 13 13 13 13
16 16 16 16 16 16 15 15 15 15 15 16 16 16 16 17 17 17 16 16 16 16 16 16 15 15 15 15 15 14 14 15 14 15 14 14 14 14 13 13 13 13 12
16 16 16 16 16 16 16 15 15 15 15 15 15 16 16 16 16 17 17 16 16 16 15 15 14 14 14 14 14 14 14 14 14 14 14 14 14 13 13 13 13 13 12
17 16 17 16 16 16 16 16 15 16 16 15 15 16 16 16 16 16 16 16 15 15 14 14 14 14 14 14 14 15 14 14 14 14 14 14 13 13 13 13 12 12 12
17 16 17 17 17 16 16 16 15 15 16 16 15 16 16 16 16 16 15 15 14 15 14 14 14 14 14 14 14 14 14 14 14 14 14 14 13 13 12 12 12 12 12
17 16 16 16 16 16 16 16 16 15 15 15 15 15 15 15 15 16 15 15 14 14 14 14 13 14 14 14 14 14 14 14 14 14 14 13 13 13 12 12 12 12 12
16 16 17 16 16 16 16 16 16 16 15 15 15 15 15 15 15 15 15 14 14 14 13 14 14 14 14 14 13 14 14 14 14 14 14 13 13 12 12 12 12 12 12
16 16 16 16 16 17 17 15 15 15 15 15 15 14 14 15 15 14 15 14 14 14 14 14 13 13 14 13 13 13 14 14 14 14 13 13 12 12 12 12 12 11 11
16 16 16 16 16 16 16 16 16 15 15 15 14 14 14 14 14 14 14 14 14 14 14 13 13 14 13 13 13 13 13 14 15 14 13 13 12 12 12 12 12 11 11
17 16 16 16 16 16 16 16 16 15 15 15 15 15 14 14 14 14 14 13 13 14 15 15 14 14 14 13 13 12 12 13 13 14 14 12 12 12 12 11 12 11 11
17 17 17 17 16 16 16 16 16 16 16 15 15 14 14 14 14 13 13 14 13 13 13 14 13 14 13 13 12 12 12 12 11 12 12 13 11 11 11 11 11 10 10
17 17 17 16 16 16 16 16 16 15 15 15 15 14 14 13 13 12 13 13 12 12 12 12 12 13 12 13 12 12 12 11 11 11 11 12 11 11 11 11 10 10 9
17 17 17 16 16 15 15 15 15 15 15 15 15 15 14 13 12 13 13 13 14 12 11 12 11 11 11 11 11 12 11 11 12 12 11 11 11 11 11 11 10 9 9

GFSSE_850_temp_105.txt.gz
Temp
17 17 17 17 17 17 17 18 18 18 17 17 17 17 16 16 16 16 16 16 16 17 16 14 13 14 15 15 15 15 15 15 14 14 14 15 15 14 14 14 15 14 14
17 17 17 17 17 17 17 18 18 17 16 16 17 17 16 16 16 16 16 17 17 17 17 13 13 14 14 14 15 15 15 14 14 15 14 14 15 15 15 14 15 14 14
17 17 17 17 17 17 17 17 17 17 16 16 16 16 16 15 16 16 16 17 17 17 17 15 15 14 14 14 15 15 15 14 14 14 14 14 14 14 14 14 14 14 14
17 17 17 16 17 17 17 17 17 17 16 16 16 16 16 16 16 16 17 17 17 17 16 16 15 14 15 15 15 15 15 15 15 15 15 14 14 14 13 13 14 14 13
17 17 16 16 17 17 17 17 17 17 16 16 15 15 15 16 16 17 17 17 17 17 16 15 15 15 15 15 15 16 16 16 16 16 16 16 15 15 16 15 13 12 12
17 17 16 16 17 16 17 17 17 17 16 15 15 15 15 16 16 17 17 17 17 16 15 15 15 15 15 15 16 16 16 16 16 16 16 16 16 16 16 16 16 15 15
16 16 16 16 17 16 16 17 17 17 17 16 16 16 16 17 17 17 17 17 16 16 15 15 16 15 15 15 16 16 16 16 16 16 16 16 16 16 16 16 16 15 15
15 15 15 15 16 16 17 16 17 17 17 17 17 17 17 17 17 17 16 16 16 16 16 16 16 16 15 16 16 16 16 15 15 16 16 16 16 15 15 15 15 15 15
15 15 15 15 15 16 16 16 16 16 16 17 17 18 18 17 17 17 17 17 16 16 16 16 16 16 16 16 16 16 15 15 15 15 15 15 15 15 15 15 15 15 15
15 15 15 15 15 15 15 15 15 15 16 17 17 17 17 17 17 17 17 17 17 17 16 16 16 16 15 16 16 15 15 15 15 15 15 15 15 15 15 14 14 14 14
15 15 15 15 15 15 15 15 15 15 15 16 17 17 17 17 17 17 17 17 17 17 16 16 16 15 15 15 15 15 15 15 15 15 15 15 14 14 14 14 14 14 14
15 15 15 15 15 15 15 15 15 14 15 16 17 17 17 17 17 17 17 17 16 16 16 16 16 16 15 15 14 14 14 14 14 14 14 14 14 14 14 14 14 13 13
15 15 15 15 14 14 15 14 15 15 15 15 16 17 17 17 17 17 17 17 16 16 16 16 16 15 15 15 14 14 14 14 14 14 14 14 14 14 14 13 13 13 13
15 15 15 14 14 14 15 15 15 15 15 15 16 16 17 17 17 17 17 17 16 16 16 16 15 15 15 15 14 14 14 14 14 14 14 14 13 13 13 13 13 13 12
16 15 16 15 14 15 15 15 15 15 16 16 16 16 16 17 17 17 16 16 16 16 16 16 16 15 15 15 14 14 14 14 14 14 14 13 13 13 13 13 13 12 12
18 16 15 15 15 15 15 15 15 15 16 16 17 17 16 16 16 17 16 16 16 15 15 15 15 14 14 14 14 14 14 14 14 14 14 13 13 13 13 13 13 12 12
18 16 15 15 16 15 15 15 15 16 16 17 17 17 17 17 16 16 16 16 15 15 15 14 14 14 14 14 14 13 14 14 14 14 14 13 13 13 12 12 12 12 12
17 17 15 15 16 16 15 15 15 15 16 16 17 17 17 16 16 16 16 16 15 15 14 14 14 14 14 14 14 14 13 13 13 14 14 13 13 13 12 12 12 12 12
17 16 16 16 16 16 15 15 15 16 16 16 16 16 16 16 16 16 16 15 14 14 14 14 14 14 13 13 13 13 13 14 13 13 13 13 13 12 12 12 12 12 12
16 16 16 16 16 16 16 15 15 15 16 15 16 16 15 15 15 15 15 15 14 14 14 13 13 13 13 13 13 13 14 14 13 13 13 13 13 12 12 11 12 12 12
15 15 16 16 16 16 15 15 15 15 15 15 15 15 15 15 15 15 15 14 14 14 14 13 13 13 13 13 13 13 14 14 14 13 13 13 12 12 12 12 12 12 11
15 15 16 16 16 16 16 15 15 15 15 15 14 15 14 14 15 15 14 14 14 14 13 13 14 14 14 13 13 13 13 14 14 14 13 13 12 12 12 12 12 11 12
15 16 16 16 16 16 16 16 16 16 15 15 15 15 14 14 14 15 14 14 14 13 13 13 13 13 14 13 13 12 12 13 13 13 13 13 13 13 13 13 11 12 11
16 16 15 16 16 16 16 16 16 16 16 16 16 16 14 14 14 14 14 14 14 14 13 13 13 12 13 12 12 12 12 12 12 11 12 12 12 12 12 12 11 11 11
17 16 16 16 16 16 16 16 16 16 16 15 15 14 14 14 14 14 13 14 15 15 14 13 13 12 11 11 11 11 11 11 11 10 11 11 11 11 12 11 10 11 10
17 17 16 16 16 16 16 16 16 15 15 15 15 14 15 15 15 14 14 15 14 14 14 13 13 14 12 13 11 10 10 10 10 10 10 11 11 11 11 11 10 10 11

GFSSE_850_temp_108.txt.gz
Temp
17 17 16 17 17 17 17 18 18 18 18 17 17 16 16 16 16 16 16 16 16 16 13 13 14 14 14 15 15 15 14 14 14 15 15 15 14 14 14 14 14 14 14
17 17 16 17 17 17 17 18 18 18 17 17 16 16 16 16 16 16 16 17 16 14 14 14 14 15 15 15 15 14 14 15 14 14 14 15 15 15 14 14 14 14 14
17 17 16 17 17 18 18 17 17 16 16 16 16 16 16 15 15 16 17 17 17 14 13 14 14 14 15 15 15 15 14 14 15 14 13 14 14 14 14 14 14 14 13
17 17 16 17 17 18 17 17 16 16 16 16 16 16 16 15 16 16 17 17 17 16 15 14 14 15 15 15 15 15 15 15 15 15 15 14 14 13 13 13 14 14 14
17 17 16 17 17 17 17 17 16 16 16 16 16 16 16 16 16 17 17 17 17 16 15 14 15 15 16 16 16 16 16 16 16 16 16 16 16 16 15 15 15 15 15
17 16 16 17 17 17 17 17 16 15 16 15 15 15 16 16 16 17 18 17 17 16 14 15 16 16 16 16 16 16 16 16 16 16 16 16 16 16 16 16 16 15 15
17 16 16 17 17 17 17 17 16 15 15 15 15 15 16 16 17 17 17 17 16 16 16 16 16 16 16 16 16 16 16 16 16 16 16 16 16 16 16 15 15 15 15
16 15 15 16 17 17 17 17 17 16 15 14 14 16 16 17 17 17 17 17 16 16 16 16 16 16 16 16 16 16 16 16 16 16 15 15 15 15 15 15 15 15 15
16 15 15 15 16 16 17 17 17 17 16 15 16 16 17 17 17 17 17 17 16 17 17 16 16 16 15 15 15 15 15 15 15 15 15 15 15 15 15 14 14 14 14
15 15 15 14 15 16 16 16 17 17 17 17 17 17 17 17 17 17 16 16 16 16 16 16 16 15 15 15 15 15 15 15 15 15 14 14 14 14 14 14 14 14 14
15 15 15 15 15 15 15 15 16 16 17 17 17 17 17 18 17 17 17 17 16 16 15 15 15 15 15 15 15 15 15 14 14 14 14 14 14 14 14 14 14 13 13
15 15 15 15 14 15 15 14 15 15 16 17 17 18 18 18 17 17 17 16 16 16 16 15 15 15 15 15 15 14 14 14 14 14 14 14 14 14 13 13 13 13 13
14 15 15 15 14 14 14 14 14 15 16 16 17 17 17 18 17 17 17 16 16 16 16 16 15 15 15 15 14 14 14 14 14 14 14 14 14 13 13 13 13 13 12
16 15 15 15 15 14 15 14 14 14 15 16 17 17 17 18 17 17 17 16 16 16 16 15 15 15 14 14 14 14 14 14 14 14 14 14 13 13 13 13 13 12 12
20 17 15 15 15 15 15 14 14 14 15 16 16 17 17 17 17 17 16 16 16 16 16 16 15 15 14 14 14 14 14 14 14 14 13 13 13 13 13 13 12 12 12
19 18 16 15 15 15 15 14 14 15 14 14 15 16 16 16 17 17 17 16 16 16 16 15 15 15 14 14 14 14 14 13 13 13 13 13 13 13 13 13 12 12 12
18 19 16 15 15 16 15 14 14 15 15 15 15 15 16 16 16 16 16 16 16 15 15 15 14 14 14 14 14 14 13 13 13 13 13 13 13 12 12 12 12 12 12
17 17 18 16 15 15 16 15 14 15 15 15 15 16 16 16 16 16 16 16 15 15 15 15 14 14 14 14 14 14 14 13 13 13 13 13 13 12 12 12 12 12 12
17 15 16 17 16 16 15 15 15 15 15 15 16 16 16 16 16 16 16 16 15 15 14 14 14 14 13 13 13 13 13 13 13 13 13 13 13 12 12 12 12 12 12
15 16 17 17 16 15 15 15 15 14 15 15 15 16 16 16 16 15 15 15 15 14 14 14 14 13 13 13 13 13 14 13 13 13 13 13 13 12 12 12 12 12 12
15 15 16 17 16 15 15 14 14 15 14 14 14 15 15 15 15 15 15 15 15 15 15 14 13 13 13 13 13 13 14 13 14 14 14 13 13 12 12 12 12 12 12
15 14 14 15 16 15 15 15 15 15 15 14 14 14 14 15 15 15 15 15 14 14 14 13 13 13 12 12 12 12 13 13 13 14 14 13 13 13 12 12 12 12 12
15 15 14 14 14 15 16 15 15 15 15 14 15 15 15 15 14 15 14 14 14 14 13 13 13 13 12 12 12 11 12 12 13 13 13 13 13 13 13 13 13 12 11
15 15 15 15 13 14 15 15 14 13 15 15 16 16 16 16 15 14 14 13 14 14 13 12 12 12 13 13 11 11 11 11 11 12 12 12 12 12 12 12 11 11 11
15 14 14 14 13 13 13 14 15 14 14 14 14 14 15 16 15 14 13 13 13 13 13 13 12 13 12 12 13 12 11 11 11 11 10 11 11 10 10 11 10 10 10
15 15 15 14 14 14 14 14 13 14 14 13 14 15 15 15 15 14 14 13 13 12 12 13 12 12 12 12 11 11 11 11 11 10 10 10 10 10 10 10 10 10 10

GFSSE_850_temp_111.txt.gz
Temp
17 17 16 17 17 17 17 17 17 17 17 17 16 17 16 16 16 16 16 16 15 15 15 14 15 14 15 14 14 14 14 15 15 15 15 15 15 14 14 14 14 13 15
18 17 16 17 17 17 17 17 17 17 17 17 16 16 16 16 16 16 16 16 14 13 13 14 15 14 14 15 14 14 14 15 15 15 15 15 15 15 14 14 14 13 15
18 17 16 17 17 17 17 17 17 18 16 16 16 16 16 16 16 16 16 15 14 13 14 15 14 15 15 15 15 15 15 15 15 15 15 14 14 14 14 14 14 15 15
18 17 16 17 17 17 18 18 18 17 16 16 16 16 16 16 16 16 17 15 13 13 14 15 15 16 16 16 16 15 15 16 16 16 16 15 14 14 13 15 15 15 16
17 17 16 17 17 17 18 17 17 17 16 16 16 16 16 16 16 17 17 15 14 14 15 15 16 16 16 16 16 16 16 16 16 16 16 16 16 15 15 15 15 16 16
17 17 17 17 17 17 17 17 16 16 16 16 16 15 15 16 16 17 17 17 15 15 15 16 16 16 16 16 16 16 16 16 16 16 16 16 16 15 15 15 15 15 15
17 16 16 17 17 17 17 16 16 16 16 16 15 15 16 16 17 18 17 17 16 16 16 16 16 16 16 16 16 16 15 15 15 15 15 15 15 15 15 15 15 15 15
16 16 16 16 17 17 17 16 16 15 15 15 15 16 16 16 17 17 17 16 16 16 16 16 16 16 16 16 16 15 15 15 15 15 15 15 15 15 15 15 15 15 14
16 15 15 16 16 17 17 16 16 15 15 15 14 16 16 17 17 17 17 16 16 16 16 16 16 16 15 15 15 15 15 15 15 15 15 15 14 14 14 14 14 14 14
15 15 15 15 16 17 17 16 15 15 15 14 15 16 17 17 17 17 17 16 16 16 16 16 16 16 15 15 15 15 15 15 15 15 15 14 14 14 14 14 14 14 14
15 15 15 15 16 16 17 16 16 15 15 15 16 16 17 17 17 17 16 16 16 16 16 16 16 15 15 15 15 15 15 15 15 15 14 14 14 14 14 14 14 14 13
15 14 15 15 15 16 16 16 16 16 15 16 17 17 17 17 17 17 16 16 16 15 15 16 15 15 15 15 15 15 15 15 15 14 14 14 14 14 14 14 14 13 13
15 14 14 14 15 15 15 15 16 16 16 17 17 17 17 17 16 16 16 16 16 16 16 16 15 15 15 15 14 14 14 14 14 14 14 14 14 13 13 13 13 13 13
14 14 14 14 14 15 14 15 16 16 16 17 16 17 17 17 16 16 16 16 16 16 16 16 15 15 15 15 14 14 14 14 14 14 13 13 13 13 13 13 13 12 12
15 14 14 14 15 14 14 14 15 15 16 16 16 16 16 16 16 16 16 16 16 16 15 15 15 15 15 14 14 14 14 14 14 14 14 13 13 13 13 13 12 12 12
14 15 15 15 15 15 15 15 15 15 16 16 16 16 16 16 16 16 16 16 16 16 15 15 15 15 14 14 14 14 14 14 14 14 14 13 13 13 13 12 12 12 12
15 15 15 16 15 15 15 15 14 14 15 15 16 16 16 16 16 16 16 16 16 16 16 15 15 14 14 14 14 13 13 13 13 13 13 13 13 13 13 12 12 12 12
14 15 15 15 17 15 15 15 14 14 14 14 15 15 15 16 16 16 16 16 16 15 15 15 15 14 14 14 13 13 13 13 13 13 13 13 13 13 13 12 12 12 12
14 14 14 16 17 16 15 15 15 14 14 14 14 14 15 15 15 16 15 15 15 15 15 14 14 14 14 13 13 13 13 13 13 14 13 13 13 13 13 12 12 12 12
15 15 16 20 19 16 15 14 14 15 15 15 15 15 15 15 15 15 15 14 14 14 14 14 14 13 13 13 13 13 13 13 13 13 13 13 13 13 13 12 12 12 13
15 14 15 17 15 15 15 15 14 15 15 15 15 15 15 15 15 15 15 14 14 14 14 13 13 13 13 13 13 13 13 13 13 13 13 13 13 13 13 12 12 12 12
14 14 16 15 14 14 14 14 14 14 15 15 15 15 14 14 14 15 15 14 14 14 13 13 13 13 12 12 13 14 13 13 13 13 13 13 13 13 12 12 13 13 12
14 14 15 14 14 14 15 15 15 14 13 14 14 14 14 14 14 14 14 14 13 13 13 13 13 12 12 13 13 12 12 12 12 12 13 13 13 13 12 12 12 12 12
14 14 13 14 14 13 14 15 15 15 14 14 15 15 14 14 14 14 13 12 12 12 11 12 12 12 13 13 12 12 11 12 11 11 12 11 11 11 11 11 11 11 11
13 13 13 13 14 13 13 14 16 16 16 15 15 14 15 14 14 13 14 13 13 13 13 11 12 12 12 12 12 12 11 11 11 10 11 10 10 10 10 10 10 10 10
14 13 13 13 13 13 12 13 14 14 13 14 14 15 15 14 14 14 14 12 13 13 13 12 12 12 12 11 11 11 11 10 10 10 10 10 10 10 10 11 11 10 10

GFSSE_850_temp_114.txt.gz
Temp
17 16 18 18 18 17 17 17 17 17 17 17 17 16 16 16 16 15 15 16 15 15 15 15 15 15 15 15 16 16 15 15 15 15 15 15 15 15 14 14 13 15 16
17 16 17 18 18 18 17 17 17 17 17 17 17 16 16 16 16 15 15 15 15 15 15 14 15 15 15 15 15 16 15 15 15 15 15 15 14 14 14 14 15 16 16
17 16 17 17 18 18 17 17 17 17 17 17 17 17 16 16 15 15 15 14 15 15 15 14 14 15 15 15 15 15 15 15 15 14 14 14 14 14 14 15 16 16 16
17 16 15 17 18 18 18 17 17 17 17 17 17 17 16 15 15 16 15 15 15 15 15 16 16 15 15 15 15 15 15 15 15 14 14 14 13 15 15 16 16 16 16
16 16 16 17 17 17 18 18 18 18 17 17 16 16 16 15 16 16 15 14 14 15 15 16 16 16 16 16 16 16 15 15 16 14 13 12 12 16 15 15 16 16 16
16 16 16 17 17 17 17 18 18 16 16 16 16 16 15 15 16 16 14 14 15 15 15 16 16 16 16 16 16 16 16 16 15 14 13 15 15 15 15 15 15 15 15
16 16 15 17 17 17 17 17 17 16 16 16 16 16 16 16 17 16 14 14 15 15 16 16 16 16 16 16 16 16 16 16 15 14 13 13 15 15 15 15 15 15 15
16 16 15 16 16 17 17 16 16 16 16 16 15 15 16 16 17 17 14 15 15 16 16 16 16 16 16 16 16 16 15 16 15 15 14 15 15 15 15 15 14 14 14
16 15 15 16 16 17 16 16 16 16 15 15 15 15 16 17 17 17 14 15 15 16 16 16 16 16 16 16 16 16 15 16 15 15 13 14 15 15 14 14 14 14 14
15 15 15 14 16 16 15 15 15 15 15 15 14 16 16 17 17 15 15 15 16 16 16 16 16 15 15 15 15 15 15 15 14 14 13 14 14 14 14 14 14 14 14
15 15 15 14 14 14 15 15 15 15 15 14 14 16 16 16 15 14 13 15 15 16 16 16 16 15 15 15 15 15 15 13 13 12 13 14 14 14 14 14 13 13 13
15 15 14 14 14 14 14 14 14 14 14 14 14 15 14 13 13 13 13 14 15 15 15 16 16 15 15 14 15 15 13 13 13 12 14 14 14 14 13 13 13 13 13
15 15 14 14 14 14 13 14 14 14 14 13 13 13 13 13 12 12 13 13 14 14 15 15 15 15 14 13 14 12 13 12 12 13 14 14 14 14 13 13 13 13 13
14 15 14 13 13 13 13 13 13 14 14 13 12 12 12 12 12 12 13 13 14 13 14 15 14 15 15 14 13 13 13 12 12 13 14 14 14 13 13 13 13 13 13
16 14 14 14 13 13 13 13 12 12 12 12 12 12 13 14 12 12 12 12 12 14 15 15 15 15 14 14 14 14 14 13 14 13 12 13 13 13 13 13 13 13 13
16 14 15 14 13 13 12 13 13 12 12 12 12 12 14 13 12 12 13 13 14 15 15 15 14 14 14 13 14 14 14 14 14 14 13 13 13 13 13 13 12 12 12
15 14 15 15 14 13 14 12 12 13 13 12 12 11 12 12 13 15 15 15 15 15 15 15 15 14 13 14 13 14 14 14 14 14 14 13 13 13 13 13 12 12 12
14 15 15 15 14 13 16 15 15 16 15 14 13 12 13 14 15 15 15 15 15 15 15 15 14 13 12 13 13 13 13 14 13 13 13 13 13 13 13 12 12 12 12
15 14 15 15 14 13 15 15 15 15 15 15 14 14 15 15 15 15 15 15 15 15 15 14 14 13 13 13 13 13 13 13 13 13 13 13 13 13 13 12 12 12 12
14 14 14 16 14 14 14 15 14 14 13 14 14 15 15 15 15 15 15 15 14 14 14 14 13 13 13 13 13 13 13 14 14 14 14 14 13 13 13 12 12 12 12
12 13 13 15 15 14 14 15 14 14 14 13 12 13 14 15 14 14 14 13 13 14 14 13 13 13 13 13 13 13 14 14 13 13 13 13 13 13 13 12 11 12 12
12 13 14 13 14 14 15 16 15 14 14 14 15 15 15 14 14 14 14 13 13 13 13 13 13 13 13 14 13 12 13 12 13 14 14 13 12 12 13 12 12 12 12
12 13 14 14 13 14 14 16 14 14 14 14 14 15 15 14 14 14 14 13 13 13 13 13 13 13 13 14 13 12 12 13 12 12 13 13 13 12 13 12 12 12 11
13 13 13 14 14 13 14 15 16 15 14 15 15 15 15 14 14 14 14 13 13 13 13 13 13 13 14 14 12 12 12 11 11 12 11 12 12 11 11 11 11 11 11
13 13 13 13 13 14 15 14 15 14 14 15 14 15 14 14 13 13 13 13 13 13 13 13 14 14 13 12 12 12 12 12 11 11 10 10 11 11 11 10 10 10 10
12 13 12 12 13 13 13 13 13 13 14 15 14 14 14 14 15 13 12 12 12 12 12 12 12 12 12 12 12 12 11 11 11 10 10 10 11 11 11 10 11 11 11

GFSSE_850_temp_117.txt.gz
Temp
19 17 18 19 18 18 18 18 17 17 17 17 17 16 16 16 16 16 16 15 15 15 15 16 15 15 16 16 15 15 15 15 15 15 15 15 15 14 14 15 16 16 16
19 18 19 18 18 17 18 17 17 17 17 17 17 16 16 16 16 16 16 15 15 15 15 15 15 15 15 16 15 15 15 15 15 15 15 14 14 15 15 15 16 16 16
18 17 19 18 18 17 17 17 17 17 17 17 17 16 16 16 16 16 15 15 15 16 15 15 15 15 15 15 16 16 15 15 14 14 14 13 14 16 16 16 16 16 15
18 16 17 18 18 18 17 17 17 17 17 17 17 16 16 16 15 15 15 15 16 15 15 15 15 14 15 15 16 15 15 15 14 14 14 13 15 16 16 16 14 15 15
18 17 16 18 18 18 17 17 17 17 17 17 17 16 16 15 14 15 15 15 15 15 16 15 15 15 15 16 16 16 16 15 14 13 13 13 15 15 15 15 15 15 15
18 17 16 17 18 18 17 17 17 17 17 17 16 16 16 15 15 15 15 15 15 15 16 16 16 16 16 16 16 16 15 14 13 13 14 15 16 15 15 15 15 15 15
17 16 16 17 18 17 17 17 17 17 17 16 16 16 16 15 15 15 15 15 15 15 16 16 16 16 16 16 16 16 15 14 13 13 13 15 15 15 15 15 15 15 14
16 16 16 15 17 17 17 17 17 16 16 16 16 16 15 16 15 15 14 15 15 16 16 16 16 16 16 16 16 16 16 13 13 13 15 15 15 15 15 15 14 14 14
17 16 16 16 16 17 17 17 16 16 16 16 16 15 15 16 15 15 14 15 15 16 16 16 16 16 16 16 16 16 16 14 13 13 13 15 15 15 15 14 14 14 14
17 16 16 15 15 16 16 16 16 16 15 15 15 14 15 16 15 14 14 14 15 16 16 16 16 16 16 16 16 15 15 13 13 13 14 15 14 14 14 14 14 14 14
17 17 15 15 14 14 15 15 16 15 15 15 15 15 16 15 14 14 13 14 15 15 16 15 16 16 15 15 15 15 14 13 13 13 15 15 15 14 14 14 14 14 14
17 17 15 15 15 15 14 15 15 15 15 15 14 15 14 13 13 13 13 14 15 15 15 15 15 15 15 15 15 15 13 13 13 13 15 15 14 14 14 14 14 13 13
17 16 15 15 15 16 14 15 15 15 15 14 14 13 14 13 13 13 13 13 14 14 15 14 15 15 13 13 14 14 14 13 13 13 14 14 14 14 14 13 13 13 13
15 15 15 15 16 16 14 15 15 15 14 14 13 13 14 14 13 13 12 13 14 14 14 14 14 13 13 13 14 14 14 13 13 13 14 14 14 14 13 13 13 13 13
15 15 15 14 15 16 16 15 14 14 14 14 13 14 14 14 14 13 13 13 12 13 13 13 13 13 13 13 13 13 13 13 13 12 13 14 14 14 14 13 13 13 13
12 14 15 13 15 16 15 15 15 15 15 14 13 13 13 13 14 13 12 13 13 13 13 13 13 13 13 13 13 13 13 13 13 13 12 14 14 14 14 13 13 13 13
11 13 15 14 15 15 14 15 15 14 14 13 13 12 13 13 13 13 13 13 13 13 13 13 13 13 13 13 13 13 13 13 13 13 12 12 13 13 13 13 13 13 13
13 13 15 13 14 14 14 14 14 13 13 13 13 12 12 13 13 13 13 13 12 13 12 13 13 13 13 12 13 13 13 13 13 13 13 13 12 12 13 13 13 12 12
12 12 13 13 13 14 13 13 13 13 13 12 12 12 13 13 12 12 12 12 12 12 12 13 13 12 12 12 13 13 13 14 14 13 12 12 12 12 12 12 12 12 12
12 12 14 14 13 13 13 12 12 12 12 12 12 12 12 12 12 12 12 12 12 13 13 13 12 12 13 13 14 14 14 14 13 13 12 12 12 12 12 11 11 12 12
12 13 12 13 13 14 13 13 12 12 12 12 12 12 13 12 12 13 12 12 12 13 12 13 13 14 14 14 13 13 13 12 13 13 13 13 12 13 12 11 11 11 11
11 13 11 12 13 14 14 13 13 14 13 13 13 13 14 13 14 13 12 12 12 12 12 13 13 14 13 14 13 13 13 13 13 13 13 13 12 12 13 12 12 12 12
13 13 13 12 14 14 13 13 13 13 13 13 13 13 12 13 13 13 12 12 12 13 12 13 14 14 13 12 12 12 13 13 13 12 13 13 12 12 12 12 12 11 11
12 13 12 12 13 14 13 13 13 13 13 13 13 12 12 13 13 13 13 14 14 14 14 14 13 14 13 13 12 12 12 12 12 12 12 12 12 12 12 11 12 12 12
12 13 12 12 12 14 14 13 13 13 14 14 14 14 14 14 14 15 14 14 14 13 13 13 13 13 13 12 13 12 12 12 12 11 11 10 11 11 11 11 11 11 11
12 14 11 12 12 13 14 13 13 13 13 13 13 12 13 13 14 13 13 13 14 13 13 13 13 12 12 12 12 12 12 11 11 11 11 10 10 11 11 11 11 11 11

GFSSE_850_temp_120.txt.gz
Temp
20 20 19 19 19 18 18 18 17 17 18 17 17 17 17 17 16 16 16 16 15 15 16 16 16 15 15 15 15 15 15 15 15 15 15 14 15 15 16 16 16 16 16
20 20 20 18 18 19 18 18 17 17 17 17 17 17 17 16 16 16 15 16 15 16 15 15 15 16 15 15 15 15 15 15 15 15 15 15 15 16 16 16 16 15 14
19 19 19 18 18 18 18 18 17 17 17 17 17 17 16 16 16 16 15 15 15 16 15 15 14 16 15 15 15 15 15 14 14 14 15 16 16 16 16 16 16 15 14
19 19 18 18 18 18 18 18 17 17 17 17 17 17 16 16 16 16 15 15 15 15 15 15 15 15 16 15 15 14 14 14 14 13 15 16 16 16 15 14 13 14 14
20 19 18 17 17 17 17 17 17 17 17 17 17 16 16 16 16 16 16 15 15 15 15 15 14 16 16 15 15 15 14 14 13 14 15 16 16 15 15 16 15 15 14
19 18 19 17 17 17 17 17 17 17 17 17 16 16 16 15 15 15 16 16 15 15 15 16 16 16 16 16 15 15 14 14 14 15 15 15 16 16 16 15 15 15 14
18 18 18 17 17 17 17 17 17 17 17 17 16 16 16 15 15 16 15 15 16 16 15 16 16 16 16 16 15 15 13 13 13 15 15 15 15 15 15 15 15 15 14
19 18 18 17 17 17 17 17 17 17 17 16 16 16 15 15 15 15 15 15 16 16 16 16 16 16 16 16 15 15 13 13 14 15 15 15 15 15 15 15 15 14 14
19 18 18 17 17 17 16 16 17 16 16 16 16 15 15 15 15 15 15 15 16 16 16 16 16 16 16 16 15 15 13 13 14 15 15 15 15 15 15 14 14 14 14
18 18 18 18 16 16 16 16 16 16 15 16 15 15 15 15 14 14 14 15 16 16 16 16 16 16 16 15 15 14 14 13 13 14 15 15 15 14 14 14 14 14 13
17 18 18 18 17 16 16 16 16 16 15 15 15 14 15 15 14 14 14 15 15 16 16 16 16 16 15 15 15 14 13 13 13 15 15 15 14 14 14 14 14 13 13
15 17 17 18 18 16 15 16 15 15 15 15 14 14 15 15 13 13 13 14 15 15 15 15 15 15 15 15 14 14 13 13 13 14 15 15 15 14 14 14 14 13 13
15 16 16 17 17 15 15 15 15 15 15 14 15 14 15 14 13 13 13 13 15 15 15 15 15 15 15 14 14 13 13 13 14 14 15 15 15 14 14 14 14 13 13
13 14 16 15 16 14 15 14 14 14 14 15 15 14 14 13 14 13 13 14 15 15 15 15 14 14 13 13 13 14 13 13 13 14 14 14 14 14 14 14 13 13 13
14 12 13 15 14 14 15 15 14 14 14 15 14 14 14 13 14 13 13 14 14 14 14 14 14 13 13 13 14 13 13 13 13 14 14 14 14 14 14 13 13 13 13
12 11 12 13 13 15 14 16 14 14 14 14 14 14 14 13 14 13 13 13 14 13 14 13 13 13 13 13 14 13 14 13 13 13 13 14 14 14 14 13 13 13 13
12 12 11 12 13 15 12 16 14 14 15 14 14 14 14 14 14 13 12 13 13 13 13 13 13 13 13 13 13 13 13 13 13 13 13 13 13 13 13 13 13 13 13
11 12 10 13 12 15 12 15 15 14 14 14 14 14 14 13 14 13 12 13 13 13 13 13 13 13 13 14 13 13 13 13 13 13 13 12 12 12 12 12 13 12 12
12 12 12 12 13 14 12 14 15 14 14 14 14 14 14 13 13 13 13 13 13 13 13 13 14 14 13 13 13 13 13 13 13 13 12 12 12 12 12 12 12 12 12
12 13 13 13 12 13 13 14 14 13 14 13 13 13 14 13 13 13 13 13 13 13 13 14 14 14 13 13 14 14 13 13 12 12 13 12 12 12 12 12 12 12 12
13 13 14 12 12 13 13 14 14 14 13 13 13 13 13 13 13 13 13 13 13 14 14 15 15 14 13 13 13 13 13 13 13 13 13 12 12 12 12 12 12 12 12
13 14 14 12 12 12 13 13 13 13 13 12 12 12 12 13 13 13 13 13 14 14 14 14 14 14 14 13 13 13 13 13 13 13 13 13 13 12 12 12 11 11 12
14 15 14 12 12 13 13 13 13 13 12 12 12 12 12 12 13 12 13 14 14 14 14 14 14 14 13 12 12 13 13 13 12 12 13 12 12 12 12 12 12 12 12
14 15 13 11 12 13 13 13 13 13 12 12 12 12 12 12 12 12 13 13 14 14 14 13 13 13 13 13 12 12 13 13 13 12 12 12 12 12 12 12 12 11 11
13 12 12 12 12 11 12 13 13 13 13 13 13 12 12 12 12 13 13 14 15 14 13 13 13 14 13 13 12 13 12 12 12 11 11 11 11 11 11 11 11 11 10
13 12 12 12 13 13 12 14 14 13 13 13 13 13 12 12 12 12 13 14 14 13 13 14 14 13 13 13 12 12 12 11 12 11 11 11 10 11 11 11 11 11 11

GFSSE_850_temp_123.txt.gz
Temp
19 20 18 19 18 19 19 18 18 18 18 18 17 17 17 17 17 16 17 16 16 15 15 16 15 15 15 15 15 15 15 15 15 15 15 16 16 16 16 16 16 16 16
20 19 18 18 18 18 18 18 18 18 18 17 17 17 17 17 17 16 16 16 16 16 16 15 15 15 15 15 15 15 15 14 15 15 16 16 16 16 16 16 16 15 14
21 20 20 18 18 18 18 17 17 17 18 17 17 17 17 17 16 16 15 16 15 15 15 16 15 15 15 15 15 14 14 14 15 15 16 17 16 16 16 16 15 14 12
20 21 20 19 18 18 18 17 17 17 17 17 17 17 16 16 16 16 15 16 15 15 15 16 16 15 15 15 14 14 13 14 15 15 16 16 16 15 15 15 15 14 13
20 20 21 19 18 18 18 17 17 17 17 17 17 17 16 16 16 16 16 16 15 15 15 16 16 16 15 14 14 14 14 14 15 15 16 16 15 15 15 15 14 12 12
20 20 20 19 18 17 18 17 17 17 17 17 16 17 17 16 16 15 16 16 15 15 15 16 16 16 15 15 14 14 14 14 14 15 15 15 15 14 15 15 13 12 12
20 19 19 20 18 18 17 17 17 17 16 17 16 16 16 16 16 15 16 16 15 15 16 17 16 16 16 15 15 14 15 15 15 15 15 15 15 14 14 14 14 14 13
21 20 19 19 19 18 17 17 17 16 16 16 16 16 16 16 15 15 15 15 15 15 16 16 16 16 16 15 14 14 15 15 15 15 15 15 15 15 15 14 14 14 13
19 19 19 18 18 18 17 17 16 16 16 16 16 16 15 15 16 15 15 15 16 16 16 16 16 16 16 15 14 14 14 15 15 15 15 15 15 15 14 14 14 14 13
17 19 19 18 18 18 18 17 16 16 16 16 15 15 15 15 16 15 15 15 15 16 16 16 16 16 15 15 14 14 14 15 15 15 15 15 15 15 14 14 14 14 14
16 16 17 18 18 17 18 17 15 15 15 16 15 15 15 14 15 14 15 15 16 16 16 16 16 15 15 15 14 13 14 14 14 15 15 15 15 14 14 14 14 14 14
16 16 16 17 17 17 17 17 16 15 15 15 15 15 14 14 14 14 14 15 15 16 16 16 15 15 15 14 14 13 13 14 14 15 15 15 15 14 14 14 14 14 13
16 16 15 15 16 16 17 16 17 15 15 15 15 14 14 14 14 14 14 15 15 15 15 15 15 15 14 14 14 13 13 14 14 15 15 15 15 14 14 14 14 13 13
16 16 15 15 14 15 16 16 17 15 14 15 14 14 14 14 13 13 14 15 15 15 15 15 14 14 14 13 13 13 13 13 14 14 14 14 14 14 14 13 13 13 13
14 15 15 15 14 15 15 16 16 15 15 15 14 14 14 14 13 13 14 15 15 15 15 14 14 14 14 14 13 13 13 13 13 14 14 14 14 13 13 13 13 13 13
13 13 14 14 15 14 15 15 15 15 15 14 14 14 14 14 14 13 14 15 15 15 14 14 14 14 13 13 13 13 13 13 13 13 13 13 13 13 13 13 13 13 13
13 12 13 14 13 13 12 13 14 14 15 15 14 14 14 14 14 14 14 14 14 14 14 14 14 14 14 13 13 14 14 13 13 13 13 13 13 13 13 13 13 13 13
13 13 13 13 13 12 13 14 13 13 14 15 14 14 14 14 14 14 14 14 14 14 14 14 13 14 14 13 13 13 13 13 13 12 12 13 13 13 13 13 12 13 13
13 13 13 13 14 12 12 12 12 13 14 15 13 13 14 14 14 13 13 14 13 13 13 14 14 14 14 14 13 13 13 13 13 13 12 12 12 12 12 12 12 12 12
13 12 13 13 14 13 11 12 13 12 14 14 14 14 14 14 14 13 13 13 13 13 13 14 14 14 14 14 13 13 13 13 13 13 12 12 12 12 12 13 12 12 12
12 12 12 13 14 11 11 12 12 13 13 13 14 13 14 14 14 13 13 13 13 13 14 14 14 14 13 13 13 13 13 13 12 12 13 12 12 12 12 12 12 12 12
12 12 12 12 13 14 11 13 12 13 13 14 14 14 14 13 14 13 13 13 13 13 14 15 14 14 13 13 13 13 13 12 12 12 13 13 12 12 12 11 11 11 11
12 11 12 13 14 14 12 12 12 13 12 13 13 14 14 13 13 13 13 13 13 14 15 15 14 14 14 13 12 13 13 13 12 13 12 12 13 12 12 12 11 11 11
12 10 12 13 13 13 12 11 12 13 13 12 13 13 14 13 13 13 13 13 14 15 15 15 14 14 14 13 12 13 13 13 13 12 12 12 12 12 12 11 11 11 11
11 10 12 13 13 13 12 11 12 12 14 14 13 13 13 13 13 13 13 14 14 14 14 14 15 14 14 12 12 12 13 13 13 12 12 12 11 12 11 11 11 11 11
11 10 10 10 12 11 14 11 12 13 13 12 13 13 12 12 12 13 13 13 13 13 13 14 14 14 14 13 13 13 13 12 12 12 11 11 10 11 11 11 11 11 10